<?xml version="1.0" encoding="UTF-8" standalone="no" ?>
<gpx xmlns="http://www.topografix.com/GPX/1/1" xmlns:xsi="http://www.w3.org/2001/XMLSchema-instance" xsi:schemaLocation="http://www.topografix.com/GPX/1/1 http://www.topografix.com/GPX/1/1/gpx.xsd" version="1.1" creator="VisuGPX - https://www.visugpx.com">
  <metadata>
    <name>villef Monteils sanvensa</name>
  </metadata>
  <trk>
    <name><![CDATA[villef Monteils sanvensa_1]]></name>
    <trkseg>
      <trkpt lat="44.35535" lon="2.01178">
        <ele>314.7</ele>
        <time>2017-04-17T06:36:14Z</time>
      </trkpt>
      <trkpt lat="44.3553" lon="2.01173">
        <ele>315.9</ele>
        <time>2017-04-17T06:36:19Z</time>
      </trkpt>
      <trkpt lat="44.3552" lon="2.0119">
        <ele>314.6</ele>
        <time>2017-04-17T06:36:24Z</time>
      </trkpt>
      <trkpt lat="44.35508" lon="2.01217">
        <ele>314</ele>
        <time>2017-04-17T06:36:29Z</time>
      </trkpt>
      <trkpt lat="44.35498" lon="2.01245">
        <ele>314.5</ele>
        <time>2017-04-17T06:36:34Z</time>
      </trkpt>
      <trkpt lat="44.3549" lon="2.01272">
        <ele>313.2</ele>
        <time>2017-04-17T06:36:39Z</time>
      </trkpt>
      <trkpt lat="44.35478" lon="2.01302">
        <ele>313.1</ele>
        <time>2017-04-17T06:36:44Z</time>
      </trkpt>
      <trkpt lat="44.35467" lon="2.01328">
        <ele>311.8</ele>
        <time>2017-04-17T06:36:49Z</time>
      </trkpt>
      <trkpt lat="44.3545" lon="2.01325">
        <ele>310.4</ele>
        <time>2017-04-17T06:36:54Z</time>
      </trkpt>
      <trkpt lat="44.35442" lon="2.013">
        <ele>311.2</ele>
        <time>2017-04-17T06:36:59Z</time>
      </trkpt>
      <trkpt lat="44.35432" lon="2.01275">
        <ele>310.9</ele>
        <time>2017-04-17T06:37:04Z</time>
      </trkpt>
      <trkpt lat="44.35423" lon="2.01248">
        <ele>309.6</ele>
        <time>2017-04-17T06:37:09Z</time>
      </trkpt>
      <trkpt lat="44.35415" lon="2.0122">
        <ele>312</ele>
        <time>2017-04-17T06:37:14Z</time>
      </trkpt>
      <trkpt lat="44.35407" lon="2.01195">
        <ele>311.7</ele>
        <time>2017-04-17T06:37:19Z</time>
      </trkpt>
      <trkpt lat="44.35397" lon="2.0117">
        <ele>312.7</ele>
        <time>2017-04-17T06:37:24Z</time>
      </trkpt>
      <trkpt lat="44.35388" lon="2.01147">
        <ele>312.6</ele>
        <time>2017-04-17T06:37:29Z</time>
      </trkpt>
      <trkpt lat="44.35382" lon="2.01127">
        <ele>313.5</ele>
        <time>2017-04-17T06:37:34Z</time>
      </trkpt>
      <trkpt lat="44.35377" lon="2.01107">
        <ele>313.8</ele>
        <time>2017-04-17T06:37:39Z</time>
      </trkpt>
      <trkpt lat="44.35377" lon="2.01082">
        <ele>314.3</ele>
        <time>2017-04-17T06:37:44Z</time>
      </trkpt>
      <trkpt lat="44.35375" lon="2.01055">
        <ele>315.7</ele>
        <time>2017-04-17T06:37:49Z</time>
      </trkpt>
      <trkpt lat="44.35375" lon="2.01027">
        <ele>314.6</ele>
        <time>2017-04-17T06:37:54Z</time>
      </trkpt>
      <trkpt lat="44.35375" lon="2.01002">
        <ele>316.2</ele>
        <time>2017-04-17T06:37:59Z</time>
      </trkpt>
      <trkpt lat="44.35373" lon="2.00977">
        <ele>316</ele>
        <time>2017-04-17T06:38:04Z</time>
      </trkpt>
      <trkpt lat="44.35373" lon="2.0095">
        <ele>316</ele>
        <time>2017-04-17T06:38:09Z</time>
      </trkpt>
      <trkpt lat="44.35372" lon="2.00927">
        <ele>316.5</ele>
        <time>2017-04-17T06:38:14Z</time>
      </trkpt>
      <trkpt lat="44.35367" lon="2.00905">
        <ele>317</ele>
        <time>2017-04-17T06:38:19Z</time>
      </trkpt>
      <trkpt lat="44.35358" lon="2.00883">
        <ele>317.6</ele>
        <time>2017-04-17T06:38:24Z</time>
      </trkpt>
      <trkpt lat="44.35353" lon="2.00858">
        <ele>317.2</ele>
        <time>2017-04-17T06:38:29Z</time>
      </trkpt>
      <trkpt lat="44.3535" lon="2.00832">
        <ele>317.9</ele>
        <time>2017-04-17T06:38:34Z</time>
      </trkpt>
      <trkpt lat="44.35348" lon="2.00803">
        <ele>318.2</ele>
        <time>2017-04-17T06:38:39Z</time>
      </trkpt>
      <trkpt lat="44.35345" lon="2.00772">
        <ele>316.4</ele>
        <time>2017-04-17T06:38:44Z</time>
      </trkpt>
      <trkpt lat="44.35342" lon="2.00743">
        <ele>316.8</ele>
        <time>2017-04-17T06:38:49Z</time>
      </trkpt>
      <trkpt lat="44.35337" lon="2.00717">
        <ele>315.8</ele>
        <time>2017-04-17T06:38:54Z</time>
      </trkpt>
      <trkpt lat="44.35325" lon="2.00707">
        <ele>317.7</ele>
        <time>2017-04-17T06:38:59Z</time>
      </trkpt>
      <trkpt lat="44.35313" lon="2.00705">
        <ele>318.5</ele>
        <time>2017-04-17T06:39:04Z</time>
      </trkpt>
      <trkpt lat="44.353" lon="2.00703">
        <ele>320.1</ele>
        <time>2017-04-17T06:39:09Z</time>
      </trkpt>
      <trkpt lat="44.35287" lon="2.00703">
        <ele>320.6</ele>
        <time>2017-04-17T06:39:14Z</time>
      </trkpt>
      <trkpt lat="44.35273" lon="2.00702">
        <ele>320.7</ele>
        <time>2017-04-17T06:39:19Z</time>
      </trkpt>
      <trkpt lat="44.35258" lon="2.007">
        <ele>320.8</ele>
        <time>2017-04-17T06:39:24Z</time>
      </trkpt>
      <trkpt lat="44.35243" lon="2.00697">
        <ele>320.8</ele>
        <time>2017-04-17T06:39:29Z</time>
      </trkpt>
      <trkpt lat="44.3523" lon="2.00697">
        <ele>321.6</ele>
        <time>2017-04-17T06:39:34Z</time>
      </trkpt>
      <trkpt lat="44.35212" lon="2.00695">
        <ele>320.7</ele>
        <time>2017-04-17T06:39:39Z</time>
      </trkpt>
      <trkpt lat="44.35197" lon="2.00692">
        <ele>320.1</ele>
        <time>2017-04-17T06:39:44Z</time>
      </trkpt>
      <trkpt lat="44.35182" lon="2.0069">
        <ele>321.2</ele>
        <time>2017-04-17T06:39:49Z</time>
      </trkpt>
      <trkpt lat="44.3517" lon="2.00687">
        <ele>323</ele>
        <time>2017-04-17T06:39:54Z</time>
      </trkpt>
      <trkpt lat="44.3516" lon="2.00685">
        <ele>324.9</ele>
        <time>2017-04-17T06:39:59Z</time>
      </trkpt>
      <trkpt lat="44.3515" lon="2.00683">
        <ele>325.3</ele>
        <time>2017-04-17T06:40:04Z</time>
      </trkpt>
      <trkpt lat="44.35138" lon="2.00682">
        <ele>327.5</ele>
        <time>2017-04-17T06:40:09Z</time>
      </trkpt>
      <trkpt lat="44.35127" lon="2.00682">
        <ele>328.3</ele>
        <time>2017-04-17T06:40:14Z</time>
      </trkpt>
      <trkpt lat="44.35115" lon="2.00683">
        <ele>329.4</ele>
        <time>2017-04-17T06:40:19Z</time>
      </trkpt>
      <trkpt lat="44.35102" lon="2.00683">
        <ele>329.4</ele>
        <time>2017-04-17T06:40:24Z</time>
      </trkpt>
      <trkpt lat="44.35088" lon="2.00672">
        <ele>329.5</ele>
        <time>2017-04-17T06:40:29Z</time>
      </trkpt>
      <trkpt lat="44.35073" lon="2.0066">
        <ele>329.5</ele>
        <time>2017-04-17T06:40:34Z</time>
      </trkpt>
      <trkpt lat="44.35058" lon="2.00648">
        <ele>328</ele>
        <time>2017-04-17T06:40:39Z</time>
      </trkpt>
      <trkpt lat="44.35042" lon="2.00637">
        <ele>329.1</ele>
        <time>2017-04-17T06:40:44Z</time>
      </trkpt>
      <trkpt lat="44.35028" lon="2.00622">
        <ele>328.3</ele>
        <time>2017-04-17T06:40:49Z</time>
      </trkpt>
      <trkpt lat="44.35015" lon="2.00605">
        <ele>328.1</ele>
        <time>2017-04-17T06:40:54Z</time>
      </trkpt>
      <trkpt lat="44.35002" lon="2.0059">
        <ele>329.1</ele>
        <time>2017-04-17T06:40:59Z</time>
      </trkpt>
      <trkpt lat="44.34988" lon="2.00573">
        <ele>331.2</ele>
        <time>2017-04-17T06:41:04Z</time>
      </trkpt>
      <trkpt lat="44.34972" lon="2.00567">
        <ele>329.3</ele>
        <time>2017-04-17T06:41:09Z</time>
      </trkpt>
      <trkpt lat="44.34955" lon="2.00563">
        <ele>331.8</ele>
        <time>2017-04-17T06:41:14Z</time>
      </trkpt>
      <trkpt lat="44.34937" lon="2.00562">
        <ele>332.3</ele>
        <time>2017-04-17T06:41:19Z</time>
      </trkpt>
      <trkpt lat="44.3492" lon="2.00557">
        <ele>334.4</ele>
        <time>2017-04-17T06:41:24Z</time>
      </trkpt>
      <trkpt lat="44.34902" lon="2.00558">
        <ele>334.9</ele>
        <time>2017-04-17T06:41:29Z</time>
      </trkpt>
      <trkpt lat="44.34885" lon="2.00555">
        <ele>336.1</ele>
        <time>2017-04-17T06:41:34Z</time>
      </trkpt>
      <trkpt lat="44.34868" lon="2.00552">
        <ele>337.1</ele>
        <time>2017-04-17T06:41:39Z</time>
      </trkpt>
      <trkpt lat="44.34857" lon="2.00533">
        <ele>337.4</ele>
        <time>2017-04-17T06:41:44Z</time>
      </trkpt>
      <trkpt lat="44.34842" lon="2.00522">
        <ele>337.2</ele>
        <time>2017-04-17T06:41:49Z</time>
      </trkpt>
      <trkpt lat="44.34823" lon="2.00518">
        <ele>337.9</ele>
        <time>2017-04-17T06:41:54Z</time>
      </trkpt>
      <trkpt lat="44.34805" lon="2.00515">
        <ele>339.9</ele>
        <time>2017-04-17T06:41:59Z</time>
      </trkpt>
      <trkpt lat="44.34785" lon="2.00513">
        <ele>341.7</ele>
        <time>2017-04-17T06:42:04Z</time>
      </trkpt>
      <trkpt lat="44.34767" lon="2.00515">
        <ele>343</ele>
        <time>2017-04-17T06:42:09Z</time>
      </trkpt>
      <trkpt lat="44.34747" lon="2.00517">
        <ele>344.2</ele>
        <time>2017-04-17T06:42:14Z</time>
      </trkpt>
      <trkpt lat="44.34727" lon="2.0052">
        <ele>344.9</ele>
        <time>2017-04-17T06:42:19Z</time>
      </trkpt>
      <trkpt lat="44.34707" lon="2.00517">
        <ele>345.8</ele>
        <time>2017-04-17T06:42:24Z</time>
      </trkpt>
      <trkpt lat="44.34693" lon="2.00508">
        <ele>345.7</ele>
        <time>2017-04-17T06:42:29Z</time>
      </trkpt>
      <trkpt lat="44.34687" lon="2.00515">
        <ele>345.9</ele>
        <time>2017-04-17T06:42:34Z</time>
      </trkpt>
      <trkpt lat="44.34677" lon="2.00522">
        <ele>346.1</ele>
        <time>2017-04-17T06:42:39Z</time>
      </trkpt>
      <trkpt lat="44.34663" lon="2.00532">
        <ele>345.9</ele>
        <time>2017-04-17T06:42:44Z</time>
      </trkpt>
      <trkpt lat="44.34648" lon="2.0054">
        <ele>346.1</ele>
        <time>2017-04-17T06:42:49Z</time>
      </trkpt>
      <trkpt lat="44.34632" lon="2.00548">
        <ele>345.6</ele>
        <time>2017-04-17T06:42:54Z</time>
      </trkpt>
      <trkpt lat="44.34615" lon="2.00557">
        <ele>345.5</ele>
        <time>2017-04-17T06:42:59Z</time>
      </trkpt>
      <trkpt lat="44.34593" lon="2.00565">
        <ele>344.3</ele>
        <time>2017-04-17T06:43:04Z</time>
      </trkpt>
      <trkpt lat="44.34573" lon="2.00545">
        <ele>344</ele>
        <time>2017-04-17T06:43:09Z</time>
      </trkpt>
      <trkpt lat="44.34552" lon="2.00525">
        <ele>344.4</ele>
        <time>2017-04-17T06:43:14Z</time>
      </trkpt>
      <trkpt lat="44.34532" lon="2.00507">
        <ele>343.5</ele>
        <time>2017-04-17T06:43:19Z</time>
      </trkpt>
      <trkpt lat="44.34508" lon="2.0049">
        <ele>343.7</ele>
        <time>2017-04-17T06:43:24Z</time>
      </trkpt>
      <trkpt lat="44.3449" lon="2.00472">
        <ele>344.9</ele>
        <time>2017-04-17T06:43:29Z</time>
      </trkpt>
      <trkpt lat="44.34478" lon="2.00457">
        <ele>345.6</ele>
        <time>2017-04-17T06:43:34Z</time>
      </trkpt>
      <trkpt lat="44.34465" lon="2.00443">
        <ele>346.9</ele>
        <time>2017-04-17T06:43:39Z</time>
      </trkpt>
      <trkpt lat="44.34455" lon="2.00432">
        <ele>348.5</ele>
        <time>2017-04-17T06:43:44Z</time>
      </trkpt>
      <trkpt lat="44.34448" lon="2.00422">
        <ele>350</ele>
        <time>2017-04-17T06:43:49Z</time>
      </trkpt>
      <trkpt lat="44.34442" lon="2.00407">
        <ele>351.6</ele>
        <time>2017-04-17T06:43:54Z</time>
      </trkpt>
      <trkpt lat="44.34437" lon="2.00392">
        <ele>353.5</ele>
        <time>2017-04-17T06:43:59Z</time>
      </trkpt>
      <trkpt lat="44.34435" lon="2.00372">
        <ele>354.2</ele>
        <time>2017-04-17T06:44:04Z</time>
      </trkpt>
      <trkpt lat="44.34437" lon="2.00353">
        <ele>354.9</ele>
        <time>2017-04-17T06:44:09Z</time>
      </trkpt>
      <trkpt lat="44.3444" lon="2.00337">
        <ele>356.2</ele>
        <time>2017-04-17T06:44:14Z</time>
      </trkpt>
      <trkpt lat="44.34442" lon="2.0032">
        <ele>357.1</ele>
        <time>2017-04-17T06:44:19Z</time>
      </trkpt>
      <trkpt lat="44.34445" lon="2.00302">
        <ele>357.9</ele>
        <time>2017-04-17T06:44:24Z</time>
      </trkpt>
      <trkpt lat="44.3445" lon="2.00285">
        <ele>358.7</ele>
        <time>2017-04-17T06:44:29Z</time>
      </trkpt>
      <trkpt lat="44.34455" lon="2.00268">
        <ele>359.9</ele>
        <time>2017-04-17T06:44:34Z</time>
      </trkpt>
      <trkpt lat="44.34458" lon="2.0025">
        <ele>360.1</ele>
        <time>2017-04-17T06:44:39Z</time>
      </trkpt>
      <trkpt lat="44.34463" lon="2.00232">
        <ele>360.6</ele>
        <time>2017-04-17T06:44:44Z</time>
      </trkpt>
      <trkpt lat="44.34468" lon="2.0021">
        <ele>361.2</ele>
        <time>2017-04-17T06:44:49Z</time>
      </trkpt>
      <trkpt lat="44.34475" lon="2.00187">
        <ele>361.1</ele>
        <time>2017-04-17T06:44:54Z</time>
      </trkpt>
      <trkpt lat="44.34478" lon="2.00163">
        <ele>360.8</ele>
        <time>2017-04-17T06:44:59Z</time>
      </trkpt>
      <trkpt lat="44.34487" lon="2.00133">
        <ele>359.8</ele>
        <time>2017-04-17T06:45:04Z</time>
      </trkpt>
      <trkpt lat="44.34493" lon="2.00102">
        <ele>360.4</ele>
        <time>2017-04-17T06:45:09Z</time>
      </trkpt>
      <trkpt lat="44.34503" lon="2.00065">
        <ele>358.4</ele>
        <time>2017-04-17T06:45:14Z</time>
      </trkpt>
      <trkpt lat="44.3452" lon="2.00035">
        <ele>359.2</ele>
        <time>2017-04-17T06:45:19Z</time>
      </trkpt>
      <trkpt lat="44.34537" lon="2.00008">
        <ele>359.4</ele>
        <time>2017-04-17T06:45:24Z</time>
      </trkpt>
      <trkpt lat="44.34552" lon="1.99982">
        <ele>358.3</ele>
        <time>2017-04-17T06:45:29Z</time>
      </trkpt>
      <trkpt lat="44.34567" lon="1.99953">
        <ele>359.5</ele>
        <time>2017-04-17T06:45:34Z</time>
      </trkpt>
      <trkpt lat="44.34577" lon="1.99922">
        <ele>358.4</ele>
        <time>2017-04-17T06:45:39Z</time>
      </trkpt>
      <trkpt lat="44.34585" lon="1.99887">
        <ele>359.1</ele>
        <time>2017-04-17T06:45:44Z</time>
      </trkpt>
      <trkpt lat="44.34595" lon="1.99852">
        <ele>355.9</ele>
        <time>2017-04-17T06:45:49Z</time>
      </trkpt>
      <trkpt lat="44.34593" lon="1.9982">
        <ele>355.7</ele>
        <time>2017-04-17T06:45:54Z</time>
      </trkpt>
      <trkpt lat="44.34563" lon="1.99805">
        <ele>354</ele>
        <time>2017-04-17T06:45:59Z</time>
      </trkpt>
      <trkpt lat="44.3453" lon="1.9979">
        <ele>348.4</ele>
        <time>2017-04-17T06:46:04Z</time>
      </trkpt>
      <trkpt lat="44.34492" lon="1.99773">
        <ele>345.2</ele>
        <time>2017-04-17T06:46:09Z</time>
      </trkpt>
      <trkpt lat="44.34458" lon="1.99773">
        <ele>341.8</ele>
        <time>2017-04-17T06:46:14Z</time>
      </trkpt>
      <trkpt lat="44.34428" lon="1.99763">
        <ele>338.9</ele>
        <time>2017-04-17T06:46:19Z</time>
      </trkpt>
      <trkpt lat="44.34408" lon="1.99743">
        <ele>336.1</ele>
        <time>2017-04-17T06:46:24Z</time>
      </trkpt>
      <trkpt lat="44.34417" lon="1.99722">
        <ele>334.6</ele>
        <time>2017-04-17T06:46:29Z</time>
      </trkpt>
      <trkpt lat="44.34427" lon="1.99692">
        <ele>334.2</ele>
        <time>2017-04-17T06:46:34Z</time>
      </trkpt>
      <trkpt lat="44.34437" lon="1.99663">
        <ele>333.7</ele>
        <time>2017-04-17T06:46:39Z</time>
      </trkpt>
      <trkpt lat="44.34447" lon="1.99635">
        <ele>332.7</ele>
        <time>2017-04-17T06:46:44Z</time>
      </trkpt>
      <trkpt lat="44.3446" lon="1.9961">
        <ele>335.9</ele>
        <time>2017-04-17T06:46:49Z</time>
      </trkpt>
      <trkpt lat="44.34472" lon="1.99583">
        <ele>332.6</ele>
        <time>2017-04-17T06:46:54Z</time>
      </trkpt>
      <trkpt lat="44.34483" lon="1.99553">
        <ele>331.6</ele>
        <time>2017-04-17T06:46:59Z</time>
      </trkpt>
      <trkpt lat="44.345" lon="1.99513">
        <ele>329.6</ele>
        <time>2017-04-17T06:47:04Z</time>
      </trkpt>
      <trkpt lat="44.34523" lon="1.99475">
        <ele>327.9</ele>
        <time>2017-04-17T06:47:09Z</time>
      </trkpt>
      <trkpt lat="44.34545" lon="1.9944">
        <ele>324.3</ele>
        <time>2017-04-17T06:47:14Z</time>
      </trkpt>
      <trkpt lat="44.3457" lon="1.99412">
        <ele>313.3</ele>
        <time>2017-04-17T06:47:19Z</time>
      </trkpt>
      <trkpt lat="44.34578" lon="1.99382">
        <ele>313.3</ele>
        <time>2017-04-17T06:47:24Z</time>
      </trkpt>
      <trkpt lat="44.34563" lon="1.9937">
        <ele>311.1</ele>
        <time>2017-04-17T06:47:29Z</time>
      </trkpt>
      <trkpt lat="44.34545" lon="1.99368">
        <ele>307.3</ele>
        <time>2017-04-17T06:47:34Z</time>
      </trkpt>
      <trkpt lat="44.34525" lon="1.99372">
        <ele>305.5</ele>
        <time>2017-04-17T06:47:39Z</time>
      </trkpt>
      <trkpt lat="44.34502" lon="1.99373">
        <ele>303.7</ele>
        <time>2017-04-17T06:47:44Z</time>
      </trkpt>
      <trkpt lat="44.3448" lon="1.9937">
        <ele>305.9</ele>
        <time>2017-04-17T06:47:49Z</time>
      </trkpt>
      <trkpt lat="44.34472" lon="1.9937">
        <ele>307.9</ele>
        <time>2017-04-17T06:47:54Z</time>
      </trkpt>
      <trkpt lat="44.3446" lon="1.99367">
        <ele>308.2</ele>
        <time>2017-04-17T06:47:59Z</time>
      </trkpt>
      <trkpt lat="44.34448" lon="1.99363">
        <ele>310.5</ele>
        <time>2017-04-17T06:48:04Z</time>
      </trkpt>
      <trkpt lat="44.3444" lon="1.9936">
        <ele>312.1</ele>
        <time>2017-04-17T06:48:09Z</time>
      </trkpt>
      <trkpt lat="44.34432" lon="1.99358">
        <ele>312.4</ele>
        <time>2017-04-17T06:48:14Z</time>
      </trkpt>
      <trkpt lat="44.34423" lon="1.99358">
        <ele>314.5</ele>
        <time>2017-04-17T06:48:19Z</time>
      </trkpt>
      <trkpt lat="44.34415" lon="1.99353">
        <ele>315.7</ele>
        <time>2017-04-17T06:48:24Z</time>
      </trkpt>
      <trkpt lat="44.34417" lon="1.99342">
        <ele>316.3</ele>
        <time>2017-04-17T06:48:29Z</time>
      </trkpt>
      <trkpt lat="44.34422" lon="1.99332">
        <ele>317.4</ele>
        <time>2017-04-17T06:48:34Z</time>
      </trkpt>
      <trkpt lat="44.34427" lon="1.99323">
        <ele>318.3</ele>
        <time>2017-04-17T06:48:39Z</time>
      </trkpt>
      <trkpt lat="44.3443" lon="1.99315">
        <ele>319.7</ele>
        <time>2017-04-17T06:48:44Z</time>
      </trkpt>
      <trkpt lat="44.34432" lon="1.9931">
        <ele>319.8</ele>
        <time>2017-04-17T06:48:49Z</time>
      </trkpt>
      <trkpt lat="44.34433" lon="1.9931">
        <ele>320.4</ele>
        <time>2017-04-17T06:48:54Z</time>
      </trkpt>
      <trkpt lat="44.34433" lon="1.99308">
        <ele>320.7</ele>
        <time>2017-04-17T06:48:59Z</time>
      </trkpt>
      <trkpt lat="44.34435" lon="1.99307">
        <ele>320.4</ele>
        <time>2017-04-17T06:49:29Z</time>
      </trkpt>
      <trkpt lat="44.34438" lon="1.993">
        <ele>321.6</ele>
        <time>2017-04-17T06:49:34Z</time>
      </trkpt>
      <trkpt lat="44.34442" lon="1.9929">
        <ele>322.4</ele>
        <time>2017-04-17T06:49:39Z</time>
      </trkpt>
      <trkpt lat="44.34447" lon="1.99282">
        <ele>323.2</ele>
        <time>2017-04-17T06:49:44Z</time>
      </trkpt>
      <trkpt lat="44.34452" lon="1.99273">
        <ele>323.4</ele>
        <time>2017-04-17T06:49:49Z</time>
      </trkpt>
      <trkpt lat="44.34457" lon="1.99265">
        <ele>325.8</ele>
        <time>2017-04-17T06:49:54Z</time>
      </trkpt>
      <trkpt lat="44.34458" lon="1.99255">
        <ele>326.5</ele>
        <time>2017-04-17T06:49:59Z</time>
      </trkpt>
      <trkpt lat="44.34463" lon="1.99245">
        <ele>327.5</ele>
        <time>2017-04-17T06:50:04Z</time>
      </trkpt>
      <trkpt lat="44.34467" lon="1.99235">
        <ele>328.6</ele>
        <time>2017-04-17T06:50:09Z</time>
      </trkpt>
      <trkpt lat="44.34473" lon="1.99225">
        <ele>329.6</ele>
        <time>2017-04-17T06:50:14Z</time>
      </trkpt>
      <trkpt lat="44.3448" lon="1.99215">
        <ele>330.3</ele>
        <time>2017-04-17T06:50:19Z</time>
      </trkpt>
      <trkpt lat="44.34488" lon="1.99203">
        <ele>330.4</ele>
        <time>2017-04-17T06:50:24Z</time>
      </trkpt>
      <trkpt lat="44.34497" lon="1.9919">
        <ele>331.7</ele>
        <time>2017-04-17T06:50:29Z</time>
      </trkpt>
      <trkpt lat="44.34508" lon="1.9919">
        <ele>331.4</ele>
        <time>2017-04-17T06:50:34Z</time>
      </trkpt>
      <trkpt lat="44.34517" lon="1.99198">
        <ele>334.3</ele>
        <time>2017-04-17T06:50:39Z</time>
      </trkpt>
      <trkpt lat="44.34523" lon="1.9921">
        <ele>334.4</ele>
        <time>2017-04-17T06:50:44Z</time>
      </trkpt>
      <trkpt lat="44.3453" lon="1.9922">
        <ele>335.9</ele>
        <time>2017-04-17T06:50:49Z</time>
      </trkpt>
      <trkpt lat="44.34538" lon="1.99232">
        <ele>334.8</ele>
        <time>2017-04-17T06:50:54Z</time>
      </trkpt>
      <trkpt lat="44.34553" lon="1.99233">
        <ele>335.2</ele>
        <time>2017-04-17T06:50:59Z</time>
      </trkpt>
      <trkpt lat="44.34568" lon="1.99237">
        <ele>334.6</ele>
        <time>2017-04-17T06:51:04Z</time>
      </trkpt>
      <trkpt lat="44.34583" lon="1.99232">
        <ele>334.3</ele>
        <time>2017-04-17T06:51:09Z</time>
      </trkpt>
      <trkpt lat="44.346" lon="1.99232">
        <ele>333.6</ele>
        <time>2017-04-17T06:51:14Z</time>
      </trkpt>
      <trkpt lat="44.34617" lon="1.99235">
        <ele>333.2</ele>
        <time>2017-04-17T06:51:19Z</time>
      </trkpt>
      <trkpt lat="44.3463" lon="1.99222">
        <ele>334</ele>
        <time>2017-04-17T06:51:24Z</time>
      </trkpt>
      <trkpt lat="44.34643" lon="1.99208">
        <ele>336.3</ele>
        <time>2017-04-17T06:51:29Z</time>
      </trkpt>
      <trkpt lat="44.34657" lon="1.99193">
        <ele>336.3</ele>
        <time>2017-04-17T06:51:34Z</time>
      </trkpt>
      <trkpt lat="44.34663" lon="1.99173">
        <ele>336.6</ele>
        <time>2017-04-17T06:51:39Z</time>
      </trkpt>
      <trkpt lat="44.3467" lon="1.99152">
        <ele>337</ele>
        <time>2017-04-17T06:51:44Z</time>
      </trkpt>
      <trkpt lat="44.34672" lon="1.99133">
        <ele>339.3</ele>
        <time>2017-04-17T06:51:49Z</time>
      </trkpt>
      <trkpt lat="44.34663" lon="1.99117">
        <ele>339.3</ele>
        <time>2017-04-17T06:51:54Z</time>
      </trkpt>
      <trkpt lat="44.3465" lon="1.99095">
        <ele>338.2</ele>
        <time>2017-04-17T06:51:59Z</time>
      </trkpt>
      <trkpt lat="44.34635" lon="1.99065">
        <ele>337.1</ele>
        <time>2017-04-17T06:52:04Z</time>
      </trkpt>
      <trkpt lat="44.34632" lon="1.99035">
        <ele>334.5</ele>
        <time>2017-04-17T06:52:09Z</time>
      </trkpt>
      <trkpt lat="44.34633" lon="1.99">
        <ele>335.5</ele>
        <time>2017-04-17T06:52:14Z</time>
      </trkpt>
      <trkpt lat="44.34635" lon="1.98963">
        <ele>329.7</ele>
        <time>2017-04-17T06:52:19Z</time>
      </trkpt>
      <trkpt lat="44.34637" lon="1.98913">
        <ele>328.7</ele>
        <time>2017-04-17T06:52:24Z</time>
      </trkpt>
      <trkpt lat="44.34643" lon="1.98868">
        <ele>323.7</ele>
        <time>2017-04-17T06:52:29Z</time>
      </trkpt>
      <trkpt lat="44.34652" lon="1.98832">
        <ele>316</ele>
        <time>2017-04-17T06:52:34Z</time>
      </trkpt>
      <trkpt lat="44.34663" lon="1.988">
        <ele>307.7</ele>
        <time>2017-04-17T06:52:39Z</time>
      </trkpt>
      <trkpt lat="44.34667" lon="1.98777">
        <ele>302.3</ele>
        <time>2017-04-17T06:52:44Z</time>
      </trkpt>
      <trkpt lat="44.34653" lon="1.98767">
        <ele>300.4</ele>
        <time>2017-04-17T06:52:49Z</time>
      </trkpt>
      <trkpt lat="44.3464" lon="1.9876">
        <ele>301.2</ele>
        <time>2017-04-17T06:52:54Z</time>
      </trkpt>
      <trkpt lat="44.34628" lon="1.9876">
        <ele>301.6</ele>
        <time>2017-04-17T06:52:59Z</time>
      </trkpt>
      <trkpt lat="44.3462" lon="1.98765">
        <ele>302.3</ele>
        <time>2017-04-17T06:53:04Z</time>
      </trkpt>
      <trkpt lat="44.34612" lon="1.98767">
        <ele>304.3</ele>
        <time>2017-04-17T06:53:09Z</time>
      </trkpt>
      <trkpt lat="44.34605" lon="1.98772">
        <ele>306.2</ele>
        <time>2017-04-17T06:53:14Z</time>
      </trkpt>
      <trkpt lat="44.34602" lon="1.98775">
        <ele>307.2</ele>
        <time>2017-04-17T06:53:19Z</time>
      </trkpt>
      <trkpt lat="44.34595" lon="1.9878">
        <ele>308.7</ele>
        <time>2017-04-17T06:53:24Z</time>
      </trkpt>
      <trkpt lat="44.3459" lon="1.98783">
        <ele>309.6</ele>
        <time>2017-04-17T06:53:29Z</time>
      </trkpt>
      <trkpt lat="44.34583" lon="1.98787">
        <ele>311.4</ele>
        <time>2017-04-17T06:53:34Z</time>
      </trkpt>
      <trkpt lat="44.34575" lon="1.98792">
        <ele>311.8</ele>
        <time>2017-04-17T06:53:39Z</time>
      </trkpt>
      <trkpt lat="44.34568" lon="1.98797">
        <ele>313.5</ele>
        <time>2017-04-17T06:53:44Z</time>
      </trkpt>
      <trkpt lat="44.34562" lon="1.988">
        <ele>314.9</ele>
        <time>2017-04-17T06:53:49Z</time>
      </trkpt>
      <trkpt lat="44.34557" lon="1.98803">
        <ele>315.7</ele>
        <time>2017-04-17T06:53:54Z</time>
      </trkpt>
      <trkpt lat="44.34552" lon="1.98807">
        <ele>317.2</ele>
        <time>2017-04-17T06:53:59Z</time>
      </trkpt>
      <trkpt lat="44.34545" lon="1.98808">
        <ele>317.5</ele>
        <time>2017-04-17T06:54:04Z</time>
      </trkpt>
      <trkpt lat="44.3454" lon="1.9881">
        <ele>318.6</ele>
        <time>2017-04-17T06:54:09Z</time>
      </trkpt>
      <trkpt lat="44.34533" lon="1.98812">
        <ele>320.1</ele>
        <time>2017-04-17T06:54:14Z</time>
      </trkpt>
      <trkpt lat="44.34528" lon="1.98812">
        <ele>320.6</ele>
        <time>2017-04-17T06:54:19Z</time>
      </trkpt>
      <trkpt lat="44.34523" lon="1.9881">
        <ele>322</ele>
        <time>2017-04-17T06:54:24Z</time>
      </trkpt>
      <trkpt lat="44.34515" lon="1.98807">
        <ele>323.8</ele>
        <time>2017-04-17T06:54:29Z</time>
      </trkpt>
      <trkpt lat="44.34508" lon="1.98805">
        <ele>325</ele>
        <time>2017-04-17T06:54:34Z</time>
      </trkpt>
      <trkpt lat="44.34503" lon="1.988">
        <ele>326.2</ele>
        <time>2017-04-17T06:54:39Z</time>
      </trkpt>
      <trkpt lat="44.34498" lon="1.98797">
        <ele>326.8</ele>
        <time>2017-04-17T06:54:44Z</time>
      </trkpt>
      <trkpt lat="44.34495" lon="1.98792">
        <ele>328.8</ele>
        <time>2017-04-17T06:54:49Z</time>
      </trkpt>
      <trkpt lat="44.34492" lon="1.98785">
        <ele>330</ele>
        <time>2017-04-17T06:54:54Z</time>
      </trkpt>
      <trkpt lat="44.34485" lon="1.9878">
        <ele>330.9</ele>
        <time>2017-04-17T06:54:59Z</time>
      </trkpt>
      <trkpt lat="44.34482" lon="1.98773">
        <ele>332.1</ele>
        <time>2017-04-17T06:55:04Z</time>
      </trkpt>
      <trkpt lat="44.34477" lon="1.9877">
        <ele>333</ele>
        <time>2017-04-17T06:55:09Z</time>
      </trkpt>
      <trkpt lat="44.34472" lon="1.98767">
        <ele>333</ele>
        <time>2017-04-17T06:55:14Z</time>
      </trkpt>
      <trkpt lat="44.34465" lon="1.98758">
        <ele>333.3</ele>
        <time>2017-04-17T06:55:19Z</time>
      </trkpt>
      <trkpt lat="44.3446" lon="1.98753">
        <ele>333.6</ele>
        <time>2017-04-17T06:55:24Z</time>
      </trkpt>
      <trkpt lat="44.34455" lon="1.98747">
        <ele>334.5</ele>
        <time>2017-04-17T06:55:29Z</time>
      </trkpt>
      <trkpt lat="44.34448" lon="1.98742">
        <ele>335.2</ele>
        <time>2017-04-17T06:55:34Z</time>
      </trkpt>
      <trkpt lat="44.34443" lon="1.98733">
        <ele>335.8</ele>
        <time>2017-04-17T06:55:39Z</time>
      </trkpt>
      <trkpt lat="44.34437" lon="1.9873">
        <ele>335.7</ele>
        <time>2017-04-17T06:55:44Z</time>
      </trkpt>
      <trkpt lat="44.3443" lon="1.98723">
        <ele>336.2</ele>
        <time>2017-04-17T06:55:49Z</time>
      </trkpt>
      <trkpt lat="44.34422" lon="1.98715">
        <ele>337.2</ele>
        <time>2017-04-17T06:55:54Z</time>
      </trkpt>
      <trkpt lat="44.34413" lon="1.98708">
        <ele>337.7</ele>
        <time>2017-04-17T06:55:59Z</time>
      </trkpt>
      <trkpt lat="44.34407" lon="1.98703">
        <ele>338.5</ele>
        <time>2017-04-17T06:56:04Z</time>
      </trkpt>
      <trkpt lat="44.34398" lon="1.98697">
        <ele>339</ele>
        <time>2017-04-17T06:56:09Z</time>
      </trkpt>
      <trkpt lat="44.34388" lon="1.98695">
        <ele>339</ele>
        <time>2017-04-17T06:56:14Z</time>
      </trkpt>
      <trkpt lat="44.34368" lon="1.98707">
        <ele>337.8</ele>
        <time>2017-04-17T06:56:19Z</time>
      </trkpt>
      <trkpt lat="44.3434" lon="1.9874">
        <ele>336.8</ele>
        <time>2017-04-17T06:56:24Z</time>
      </trkpt>
      <trkpt lat="44.34322" lon="1.9878">
        <ele>335.4</ele>
        <time>2017-04-17T06:56:29Z</time>
      </trkpt>
      <trkpt lat="44.34323" lon="1.98805">
        <ele>337.4</ele>
        <time>2017-04-17T06:56:34Z</time>
      </trkpt>
      <trkpt lat="44.34325" lon="1.98833">
        <ele>337.1</ele>
        <time>2017-04-17T06:56:39Z</time>
      </trkpt>
      <trkpt lat="44.34317" lon="1.98858">
        <ele>338.2</ele>
        <time>2017-04-17T06:56:44Z</time>
      </trkpt>
      <trkpt lat="44.34305" lon="1.98873">
        <ele>339.3</ele>
        <time>2017-04-17T06:56:49Z</time>
      </trkpt>
      <trkpt lat="44.34295" lon="1.9889">
        <ele>340.4</ele>
        <time>2017-04-17T06:56:54Z</time>
      </trkpt>
      <trkpt lat="44.34287" lon="1.98907">
        <ele>340.9</ele>
        <time>2017-04-17T06:56:59Z</time>
      </trkpt>
      <trkpt lat="44.34278" lon="1.98923">
        <ele>341.3</ele>
        <time>2017-04-17T06:57:04Z</time>
      </trkpt>
      <trkpt lat="44.3427" lon="1.9894">
        <ele>341.6</ele>
        <time>2017-04-17T06:57:09Z</time>
      </trkpt>
      <trkpt lat="44.3426" lon="1.98958">
        <ele>341.8</ele>
        <time>2017-04-17T06:57:14Z</time>
      </trkpt>
      <trkpt lat="44.34252" lon="1.98978">
        <ele>341.4</ele>
        <time>2017-04-17T06:57:19Z</time>
      </trkpt>
      <trkpt lat="44.3424" lon="1.99005">
        <ele>340.8</ele>
        <time>2017-04-17T06:57:24Z</time>
      </trkpt>
      <trkpt lat="44.34218" lon="1.99033">
        <ele>339.9</ele>
        <time>2017-04-17T06:57:29Z</time>
      </trkpt>
      <trkpt lat="44.34187" lon="1.99055">
        <ele>337.5</ele>
        <time>2017-04-17T06:57:34Z</time>
      </trkpt>
      <trkpt lat="44.3416" lon="1.99067">
        <ele>338</ele>
        <time>2017-04-17T06:57:39Z</time>
      </trkpt>
      <trkpt lat="44.34147" lon="1.99058">
        <ele>338.6</ele>
        <time>2017-04-17T06:57:44Z</time>
      </trkpt>
      <trkpt lat="44.3414" lon="1.99043">
        <ele>340.3</ele>
        <time>2017-04-17T06:57:49Z</time>
      </trkpt>
      <trkpt lat="44.34137" lon="1.99025">
        <ele>341.2</ele>
        <time>2017-04-17T06:57:54Z</time>
      </trkpt>
      <trkpt lat="44.3414" lon="1.99007">
        <ele>342</ele>
        <time>2017-04-17T06:57:59Z</time>
      </trkpt>
      <trkpt lat="44.34147" lon="1.98992">
        <ele>343</ele>
        <time>2017-04-17T06:58:04Z</time>
      </trkpt>
      <trkpt lat="44.34157" lon="1.98982">
        <ele>344.1</ele>
        <time>2017-04-17T06:58:09Z</time>
      </trkpt>
      <trkpt lat="44.34167" lon="1.98973">
        <ele>345.1</ele>
        <time>2017-04-17T06:58:14Z</time>
      </trkpt>
      <trkpt lat="44.34178" lon="1.98965">
        <ele>345.7</ele>
        <time>2017-04-17T06:58:19Z</time>
      </trkpt>
      <trkpt lat="44.34188" lon="1.98952">
        <ele>346.2</ele>
        <time>2017-04-17T06:58:24Z</time>
      </trkpt>
      <trkpt lat="44.34193" lon="1.98935">
        <ele>347.6</ele>
        <time>2017-04-17T06:58:29Z</time>
      </trkpt>
      <trkpt lat="44.342" lon="1.98917">
        <ele>347.7</ele>
        <time>2017-04-17T06:58:34Z</time>
      </trkpt>
      <trkpt lat="44.34205" lon="1.98897">
        <ele>348</ele>
        <time>2017-04-17T06:58:39Z</time>
      </trkpt>
      <trkpt lat="44.34207" lon="1.98875">
        <ele>348.9</ele>
        <time>2017-04-17T06:58:44Z</time>
      </trkpt>
      <trkpt lat="44.34207" lon="1.98853">
        <ele>348.3</ele>
        <time>2017-04-17T06:58:49Z</time>
      </trkpt>
      <trkpt lat="44.34205" lon="1.98835">
        <ele>348.6</ele>
        <time>2017-04-17T06:58:54Z</time>
      </trkpt>
      <trkpt lat="44.34202" lon="1.98812">
        <ele>349.4</ele>
        <time>2017-04-17T06:58:59Z</time>
      </trkpt>
      <trkpt lat="44.34197" lon="1.98787">
        <ele>348.2</ele>
        <time>2017-04-17T06:59:04Z</time>
      </trkpt>
      <trkpt lat="44.34195" lon="1.9876">
        <ele>348.7</ele>
        <time>2017-04-17T06:59:09Z</time>
      </trkpt>
      <trkpt lat="44.34195" lon="1.9873">
        <ele>348.2</ele>
        <time>2017-04-17T06:59:14Z</time>
      </trkpt>
      <trkpt lat="44.34197" lon="1.98693">
        <ele>347.5</ele>
        <time>2017-04-17T06:59:19Z</time>
      </trkpt>
      <trkpt lat="44.34195" lon="1.98647">
        <ele>346.4</ele>
        <time>2017-04-17T06:59:24Z</time>
      </trkpt>
      <trkpt lat="44.34197" lon="1.98598">
        <ele>344.7</ele>
        <time>2017-04-17T06:59:29Z</time>
      </trkpt>
      <trkpt lat="44.34198" lon="1.9857">
        <ele>345.1</ele>
        <time>2017-04-17T06:59:34Z</time>
      </trkpt>
      <trkpt lat="44.34197" lon="1.98553">
        <ele>346.5</ele>
        <time>2017-04-17T06:59:39Z</time>
      </trkpt>
      <trkpt lat="44.34193" lon="1.9854">
        <ele>348.9</ele>
        <time>2017-04-17T06:59:44Z</time>
      </trkpt>
      <trkpt lat="44.34188" lon="1.98528">
        <ele>349.6</ele>
        <time>2017-04-17T06:59:49Z</time>
      </trkpt>
      <trkpt lat="44.34182" lon="1.98518">
        <ele>350</ele>
        <time>2017-04-17T06:59:54Z</time>
      </trkpt>
      <trkpt lat="44.34173" lon="1.98508">
        <ele>350.4</ele>
        <time>2017-04-17T06:59:59Z</time>
      </trkpt>
      <trkpt lat="44.34163" lon="1.98498">
        <ele>350.4</ele>
        <time>2017-04-17T07:00:04Z</time>
      </trkpt>
      <trkpt lat="44.34153" lon="1.98493">
        <ele>351.4</ele>
        <time>2017-04-17T07:00:09Z</time>
      </trkpt>
      <trkpt lat="44.34142" lon="1.98488">
        <ele>351.4</ele>
        <time>2017-04-17T07:00:14Z</time>
      </trkpt>
      <trkpt lat="44.34133" lon="1.98488">
        <ele>353.5</ele>
        <time>2017-04-17T07:00:19Z</time>
      </trkpt>
      <trkpt lat="44.34125" lon="1.98487">
        <ele>353.9</ele>
        <time>2017-04-17T07:00:24Z</time>
      </trkpt>
      <trkpt lat="44.34115" lon="1.98483">
        <ele>355</ele>
        <time>2017-04-17T07:00:29Z</time>
      </trkpt>
      <trkpt lat="44.34108" lon="1.98482">
        <ele>355.5</ele>
        <time>2017-04-17T07:00:34Z</time>
      </trkpt>
      <trkpt lat="44.341" lon="1.98477">
        <ele>356.6</ele>
        <time>2017-04-17T07:00:39Z</time>
      </trkpt>
      <trkpt lat="44.34088" lon="1.98472">
        <ele>358</ele>
        <time>2017-04-17T07:00:44Z</time>
      </trkpt>
      <trkpt lat="44.3408" lon="1.98472">
        <ele>358.1</ele>
        <time>2017-04-17T07:00:49Z</time>
      </trkpt>
      <trkpt lat="44.34073" lon="1.98477">
        <ele>357.8</ele>
        <time>2017-04-17T07:00:54Z</time>
      </trkpt>
      <trkpt lat="44.3406" lon="1.98477">
        <ele>358.6</ele>
        <time>2017-04-17T07:00:59Z</time>
      </trkpt>
      <trkpt lat="44.34053" lon="1.98477">
        <ele>358.2</ele>
        <time>2017-04-17T07:01:04Z</time>
      </trkpt>
      <trkpt lat="44.34043" lon="1.9847">
        <ele>360.2</ele>
        <time>2017-04-17T07:01:09Z</time>
      </trkpt>
      <trkpt lat="44.34035" lon="1.98465">
        <ele>361.8</ele>
        <time>2017-04-17T07:01:14Z</time>
      </trkpt>
      <trkpt lat="44.34028" lon="1.9846">
        <ele>363.5</ele>
        <time>2017-04-17T07:01:19Z</time>
      </trkpt>
      <trkpt lat="44.34018" lon="1.98455">
        <ele>365</ele>
        <time>2017-04-17T07:01:24Z</time>
      </trkpt>
      <trkpt lat="44.3401" lon="1.98447">
        <ele>365.5</ele>
        <time>2017-04-17T07:01:29Z</time>
      </trkpt>
      <trkpt lat="44.34002" lon="1.98443">
        <ele>366.4</ele>
        <time>2017-04-17T07:01:34Z</time>
      </trkpt>
      <trkpt lat="44.33993" lon="1.98448">
        <ele>365.8</ele>
        <time>2017-04-17T07:01:39Z</time>
      </trkpt>
      <trkpt lat="44.33977" lon="1.98458">
        <ele>362.7</ele>
        <time>2017-04-17T07:01:44Z</time>
      </trkpt>
      <trkpt lat="44.33965" lon="1.9845">
        <ele>365.2</ele>
        <time>2017-04-17T07:01:49Z</time>
      </trkpt>
      <trkpt lat="44.33953" lon="1.98435">
        <ele>364.7</ele>
        <time>2017-04-17T07:01:54Z</time>
      </trkpt>
      <trkpt lat="44.33938" lon="1.98413">
        <ele>361.4</ele>
        <time>2017-04-17T07:01:59Z</time>
      </trkpt>
      <trkpt lat="44.3392" lon="1.98392">
        <ele>360.4</ele>
        <time>2017-04-17T07:02:04Z</time>
      </trkpt>
      <trkpt lat="44.339" lon="1.98368">
        <ele>358.9</ele>
        <time>2017-04-17T07:02:09Z</time>
      </trkpt>
      <trkpt lat="44.33875" lon="1.9834">
        <ele>356.4</ele>
        <time>2017-04-17T07:02:14Z</time>
      </trkpt>
      <trkpt lat="44.33853" lon="1.9831">
        <ele>356.1</ele>
        <time>2017-04-17T07:02:19Z</time>
      </trkpt>
      <trkpt lat="44.33835" lon="1.98287">
        <ele>354.4</ele>
        <time>2017-04-17T07:02:24Z</time>
      </trkpt>
      <trkpt lat="44.33818" lon="1.98265">
        <ele>355.8</ele>
        <time>2017-04-17T07:02:29Z</time>
      </trkpt>
      <trkpt lat="44.338" lon="1.98245">
        <ele>354.9</ele>
        <time>2017-04-17T07:02:34Z</time>
      </trkpt>
      <trkpt lat="44.33783" lon="1.98253">
        <ele>353.7</ele>
        <time>2017-04-17T07:02:39Z</time>
      </trkpt>
      <trkpt lat="44.3377" lon="1.98267">
        <ele>354.5</ele>
        <time>2017-04-17T07:02:44Z</time>
      </trkpt>
      <trkpt lat="44.3376" lon="1.98282">
        <ele>355.2</ele>
        <time>2017-04-17T07:02:49Z</time>
      </trkpt>
      <trkpt lat="44.33748" lon="1.98297">
        <ele>355.6</ele>
        <time>2017-04-17T07:02:54Z</time>
      </trkpt>
      <trkpt lat="44.33733" lon="1.9831">
        <ele>356</ele>
        <time>2017-04-17T07:02:59Z</time>
      </trkpt>
      <trkpt lat="44.33718" lon="1.98322">
        <ele>355.4</ele>
        <time>2017-04-17T07:03:04Z</time>
      </trkpt>
      <trkpt lat="44.33707" lon="1.9833">
        <ele>355.2</ele>
        <time>2017-04-17T07:03:09Z</time>
      </trkpt>
      <trkpt lat="44.337" lon="1.98338">
        <ele>357.1</ele>
        <time>2017-04-17T07:03:14Z</time>
      </trkpt>
      <trkpt lat="44.33692" lon="1.9835">
        <ele>357.9</ele>
        <time>2017-04-17T07:03:19Z</time>
      </trkpt>
      <trkpt lat="44.33683" lon="1.9836">
        <ele>359.1</ele>
        <time>2017-04-17T07:03:24Z</time>
      </trkpt>
      <trkpt lat="44.33675" lon="1.98367">
        <ele>359.5</ele>
        <time>2017-04-17T07:03:29Z</time>
      </trkpt>
      <trkpt lat="44.33667" lon="1.9837">
        <ele>359.3</ele>
        <time>2017-04-17T07:03:34Z</time>
      </trkpt>
      <trkpt lat="44.33657" lon="1.98375">
        <ele>360.6</ele>
        <time>2017-04-17T07:03:39Z</time>
      </trkpt>
      <trkpt lat="44.33647" lon="1.9838">
        <ele>361.4</ele>
        <time>2017-04-17T07:03:44Z</time>
      </trkpt>
      <trkpt lat="44.33638" lon="1.98388">
        <ele>362</ele>
        <time>2017-04-17T07:03:49Z</time>
      </trkpt>
      <trkpt lat="44.3363" lon="1.98395">
        <ele>361.9</ele>
        <time>2017-04-17T07:03:54Z</time>
      </trkpt>
      <trkpt lat="44.33622" lon="1.98403">
        <ele>362.9</ele>
        <time>2017-04-17T07:03:59Z</time>
      </trkpt>
      <trkpt lat="44.33613" lon="1.98413">
        <ele>362.5</ele>
        <time>2017-04-17T07:04:04Z</time>
      </trkpt>
      <trkpt lat="44.33605" lon="1.98422">
        <ele>363.8</ele>
        <time>2017-04-17T07:04:09Z</time>
      </trkpt>
      <trkpt lat="44.33597" lon="1.9843">
        <ele>364.6</ele>
        <time>2017-04-17T07:04:14Z</time>
      </trkpt>
      <trkpt lat="44.33588" lon="1.98435">
        <ele>365.9</ele>
        <time>2017-04-17T07:04:19Z</time>
      </trkpt>
      <trkpt lat="44.33583" lon="1.98443">
        <ele>365.7</ele>
        <time>2017-04-17T07:04:24Z</time>
      </trkpt>
      <trkpt lat="44.3358" lon="1.98447">
        <ele>366.6</ele>
        <time>2017-04-17T07:04:29Z</time>
      </trkpt>
      <trkpt lat="44.3358" lon="1.98447">
        <ele>366.5</ele>
        <time>2017-04-17T07:05:14Z</time>
      </trkpt>
      <trkpt lat="44.33572" lon="1.98452">
        <ele>366.7</ele>
        <time>2017-04-17T07:05:19Z</time>
      </trkpt>
      <trkpt lat="44.33567" lon="1.98458">
        <ele>367.3</ele>
        <time>2017-04-17T07:05:24Z</time>
      </trkpt>
      <trkpt lat="44.3356" lon="1.98463">
        <ele>369.5</ele>
        <time>2017-04-17T07:05:29Z</time>
      </trkpt>
      <trkpt lat="44.33555" lon="1.98468">
        <ele>370.1</ele>
        <time>2017-04-17T07:05:34Z</time>
      </trkpt>
      <trkpt lat="44.33548" lon="1.98475">
        <ele>371</ele>
        <time>2017-04-17T07:05:39Z</time>
      </trkpt>
      <trkpt lat="44.33542" lon="1.9848">
        <ele>371.4</ele>
        <time>2017-04-17T07:05:44Z</time>
      </trkpt>
      <trkpt lat="44.33537" lon="1.98485">
        <ele>372</ele>
        <time>2017-04-17T07:05:49Z</time>
      </trkpt>
      <trkpt lat="44.3353" lon="1.9849">
        <ele>373.3</ele>
        <time>2017-04-17T07:05:54Z</time>
      </trkpt>
      <trkpt lat="44.33523" lon="1.98493">
        <ele>373.4</ele>
        <time>2017-04-17T07:05:59Z</time>
      </trkpt>
      <trkpt lat="44.33518" lon="1.98498">
        <ele>374.6</ele>
        <time>2017-04-17T07:06:04Z</time>
      </trkpt>
      <trkpt lat="44.33512" lon="1.98502">
        <ele>375</ele>
        <time>2017-04-17T07:06:09Z</time>
      </trkpt>
      <trkpt lat="44.33505" lon="1.98507">
        <ele>375.6</ele>
        <time>2017-04-17T07:06:14Z</time>
      </trkpt>
      <trkpt lat="44.33498" lon="1.98513">
        <ele>376.7</ele>
        <time>2017-04-17T07:06:19Z</time>
      </trkpt>
      <trkpt lat="44.33492" lon="1.98518">
        <ele>376.1</ele>
        <time>2017-04-17T07:06:24Z</time>
      </trkpt>
      <trkpt lat="44.33485" lon="1.98523">
        <ele>376.5</ele>
        <time>2017-04-17T07:06:29Z</time>
      </trkpt>
      <trkpt lat="44.33478" lon="1.9853">
        <ele>377.7</ele>
        <time>2017-04-17T07:06:34Z</time>
      </trkpt>
      <trkpt lat="44.3347" lon="1.98537">
        <ele>378</ele>
        <time>2017-04-17T07:06:39Z</time>
      </trkpt>
      <trkpt lat="44.33462" lon="1.98543">
        <ele>378</ele>
        <time>2017-04-17T07:06:44Z</time>
      </trkpt>
      <trkpt lat="44.33455" lon="1.98552">
        <ele>378.8</ele>
        <time>2017-04-17T07:06:49Z</time>
      </trkpt>
      <trkpt lat="44.33448" lon="1.98558">
        <ele>378.8</ele>
        <time>2017-04-17T07:06:54Z</time>
      </trkpt>
      <trkpt lat="44.3344" lon="1.98563">
        <ele>379.4</ele>
        <time>2017-04-17T07:06:59Z</time>
      </trkpt>
      <trkpt lat="44.33432" lon="1.98572">
        <ele>379.2</ele>
        <time>2017-04-17T07:07:04Z</time>
      </trkpt>
      <trkpt lat="44.33422" lon="1.9858">
        <ele>378.9</ele>
        <time>2017-04-17T07:07:09Z</time>
      </trkpt>
      <trkpt lat="44.33408" lon="1.98583">
        <ele>377.1</ele>
        <time>2017-04-17T07:07:14Z</time>
      </trkpt>
      <trkpt lat="44.33393" lon="1.98588">
        <ele>377.8</ele>
        <time>2017-04-17T07:07:19Z</time>
      </trkpt>
      <trkpt lat="44.33377" lon="1.98597">
        <ele>378.8</ele>
        <time>2017-04-17T07:07:24Z</time>
      </trkpt>
      <trkpt lat="44.3336" lon="1.98603">
        <ele>377.3</ele>
        <time>2017-04-17T07:07:29Z</time>
      </trkpt>
      <trkpt lat="44.33347" lon="1.98612">
        <ele>378.9</ele>
        <time>2017-04-17T07:07:34Z</time>
      </trkpt>
      <trkpt lat="44.33333" lon="1.98622">
        <ele>377.9</ele>
        <time>2017-04-17T07:07:39Z</time>
      </trkpt>
      <trkpt lat="44.33317" lon="1.98632">
        <ele>377.9</ele>
        <time>2017-04-17T07:07:44Z</time>
      </trkpt>
      <trkpt lat="44.333" lon="1.98643">
        <ele>377.1</ele>
        <time>2017-04-17T07:07:49Z</time>
      </trkpt>
      <trkpt lat="44.33285" lon="1.98657">
        <ele>378.5</ele>
        <time>2017-04-17T07:07:54Z</time>
      </trkpt>
      <trkpt lat="44.33268" lon="1.98667">
        <ele>376.6</ele>
        <time>2017-04-17T07:07:59Z</time>
      </trkpt>
      <trkpt lat="44.33253" lon="1.98678">
        <ele>375.3</ele>
        <time>2017-04-17T07:08:04Z</time>
      </trkpt>
      <trkpt lat="44.33232" lon="1.9869">
        <ele>376.4</ele>
        <time>2017-04-17T07:08:09Z</time>
      </trkpt>
      <trkpt lat="44.33208" lon="1.98703">
        <ele>371.9</ele>
        <time>2017-04-17T07:08:14Z</time>
      </trkpt>
      <trkpt lat="44.33183" lon="1.98715">
        <ele>369.5</ele>
        <time>2017-04-17T07:08:19Z</time>
      </trkpt>
      <trkpt lat="44.33167" lon="1.98723">
        <ele>370.9</ele>
        <time>2017-04-17T07:08:24Z</time>
      </trkpt>
      <trkpt lat="44.33147" lon="1.9873">
        <ele>370.1</ele>
        <time>2017-04-17T07:08:29Z</time>
      </trkpt>
      <trkpt lat="44.33122" lon="1.98733">
        <ele>365.5</ele>
        <time>2017-04-17T07:08:34Z</time>
      </trkpt>
      <trkpt lat="44.33098" lon="1.98732">
        <ele>368</ele>
        <time>2017-04-17T07:08:39Z</time>
      </trkpt>
      <trkpt lat="44.33077" lon="1.98733">
        <ele>364.9</ele>
        <time>2017-04-17T07:08:44Z</time>
      </trkpt>
      <trkpt lat="44.33053" lon="1.98743">
        <ele>362.8</ele>
        <time>2017-04-17T07:08:49Z</time>
      </trkpt>
      <trkpt lat="44.33033" lon="1.98748">
        <ele>364</ele>
        <time>2017-04-17T07:08:54Z</time>
      </trkpt>
      <trkpt lat="44.33008" lon="1.98752">
        <ele>360.3</ele>
        <time>2017-04-17T07:08:59Z</time>
      </trkpt>
      <trkpt lat="44.32982" lon="1.9876">
        <ele>359.1</ele>
        <time>2017-04-17T07:09:04Z</time>
      </trkpt>
      <trkpt lat="44.32958" lon="1.98778">
        <ele>364.1</ele>
        <time>2017-04-17T07:09:09Z</time>
      </trkpt>
      <trkpt lat="44.32942" lon="1.98807">
        <ele>357.6</ele>
        <time>2017-04-17T07:09:14Z</time>
      </trkpt>
      <trkpt lat="44.32928" lon="1.98823">
        <ele>356.3</ele>
        <time>2017-04-17T07:09:19Z</time>
      </trkpt>
      <trkpt lat="44.32923" lon="1.98815">
        <ele>355.7</ele>
        <time>2017-04-17T07:09:24Z</time>
      </trkpt>
      <trkpt lat="44.32917" lon="1.98797">
        <ele>355.5</ele>
        <time>2017-04-17T07:09:29Z</time>
      </trkpt>
      <trkpt lat="44.3291" lon="1.98777">
        <ele>355.8</ele>
        <time>2017-04-17T07:09:34Z</time>
      </trkpt>
      <trkpt lat="44.32903" lon="1.98753">
        <ele>356.5</ele>
        <time>2017-04-17T07:09:39Z</time>
      </trkpt>
      <trkpt lat="44.329" lon="1.98728">
        <ele>356.2</ele>
        <time>2017-04-17T07:09:44Z</time>
      </trkpt>
      <trkpt lat="44.32895" lon="1.98703">
        <ele>356.5</ele>
        <time>2017-04-17T07:09:49Z</time>
      </trkpt>
      <trkpt lat="44.32883" lon="1.98682">
        <ele>356.3</ele>
        <time>2017-04-17T07:09:54Z</time>
      </trkpt>
      <trkpt lat="44.3287" lon="1.98663">
        <ele>357.1</ele>
        <time>2017-04-17T07:09:59Z</time>
      </trkpt>
      <trkpt lat="44.32857" lon="1.98645">
        <ele>357.3</ele>
        <time>2017-04-17T07:10:04Z</time>
      </trkpt>
      <trkpt lat="44.32843" lon="1.9863">
        <ele>357.7</ele>
        <time>2017-04-17T07:10:09Z</time>
      </trkpt>
      <trkpt lat="44.32833" lon="1.9862">
        <ele>357.2</ele>
        <time>2017-04-17T07:10:14Z</time>
      </trkpt>
      <trkpt lat="44.32825" lon="1.98612">
        <ele>359.5</ele>
        <time>2017-04-17T07:10:19Z</time>
      </trkpt>
      <trkpt lat="44.32818" lon="1.986">
        <ele>360.3</ele>
        <time>2017-04-17T07:10:24Z</time>
      </trkpt>
      <trkpt lat="44.32808" lon="1.9859">
        <ele>362.8</ele>
        <time>2017-04-17T07:10:29Z</time>
      </trkpt>
      <trkpt lat="44.328" lon="1.98577">
        <ele>362</ele>
        <time>2017-04-17T07:10:34Z</time>
      </trkpt>
      <trkpt lat="44.32792" lon="1.98567">
        <ele>364</ele>
        <time>2017-04-17T07:10:39Z</time>
      </trkpt>
      <trkpt lat="44.32782" lon="1.9856">
        <ele>364.1</ele>
        <time>2017-04-17T07:10:44Z</time>
      </trkpt>
      <trkpt lat="44.32773" lon="1.98553">
        <ele>365.3</ele>
        <time>2017-04-17T07:10:49Z</time>
      </trkpt>
      <trkpt lat="44.32773" lon="1.98552">
        <ele>365.3</ele>
        <time>2017-04-17T07:10:54Z</time>
      </trkpt>
      <trkpt lat="44.32772" lon="1.9855">
        <ele>365.3</ele>
        <time>2017-04-17T07:12:19Z</time>
      </trkpt>
      <trkpt lat="44.32763" lon="1.98542">
        <ele>365.6</ele>
        <time>2017-04-17T07:12:24Z</time>
      </trkpt>
      <trkpt lat="44.32755" lon="1.98532">
        <ele>366.6</ele>
        <time>2017-04-17T07:12:29Z</time>
      </trkpt>
      <trkpt lat="44.32748" lon="1.98522">
        <ele>367.4</ele>
        <time>2017-04-17T07:12:34Z</time>
      </trkpt>
      <trkpt lat="44.3274" lon="1.98513">
        <ele>368.2</ele>
        <time>2017-04-17T07:12:39Z</time>
      </trkpt>
      <trkpt lat="44.32732" lon="1.98507">
        <ele>368.3</ele>
        <time>2017-04-17T07:12:44Z</time>
      </trkpt>
      <trkpt lat="44.32723" lon="1.98502">
        <ele>368.9</ele>
        <time>2017-04-17T07:12:49Z</time>
      </trkpt>
      <trkpt lat="44.32712" lon="1.98493">
        <ele>369.7</ele>
        <time>2017-04-17T07:12:54Z</time>
      </trkpt>
      <trkpt lat="44.32702" lon="1.98487">
        <ele>371.1</ele>
        <time>2017-04-17T07:12:59Z</time>
      </trkpt>
      <trkpt lat="44.3269" lon="1.9848">
        <ele>370.7</ele>
        <time>2017-04-17T07:13:04Z</time>
      </trkpt>
      <trkpt lat="44.32678" lon="1.98475">
        <ele>370.2</ele>
        <time>2017-04-17T07:13:09Z</time>
      </trkpt>
      <trkpt lat="44.32668" lon="1.9847">
        <ele>373.2</ele>
        <time>2017-04-17T07:13:14Z</time>
      </trkpt>
      <trkpt lat="44.32658" lon="1.98465">
        <ele>372.6</ele>
        <time>2017-04-17T07:13:19Z</time>
      </trkpt>
      <trkpt lat="44.32648" lon="1.98462">
        <ele>373.2</ele>
        <time>2017-04-17T07:13:24Z</time>
      </trkpt>
      <trkpt lat="44.32638" lon="1.98455">
        <ele>374.6</ele>
        <time>2017-04-17T07:13:29Z</time>
      </trkpt>
      <trkpt lat="44.3263" lon="1.9845">
        <ele>375.3</ele>
        <time>2017-04-17T07:13:34Z</time>
      </trkpt>
      <trkpt lat="44.32625" lon="1.98443">
        <ele>376.3</ele>
        <time>2017-04-17T07:13:39Z</time>
      </trkpt>
      <trkpt lat="44.32617" lon="1.98437">
        <ele>377.3</ele>
        <time>2017-04-17T07:13:44Z</time>
      </trkpt>
      <trkpt lat="44.32608" lon="1.9843">
        <ele>378.3</ele>
        <time>2017-04-17T07:13:49Z</time>
      </trkpt>
      <trkpt lat="44.32603" lon="1.98423">
        <ele>377.6</ele>
        <time>2017-04-17T07:13:54Z</time>
      </trkpt>
      <trkpt lat="44.32598" lon="1.98415">
        <ele>380.1</ele>
        <time>2017-04-17T07:13:59Z</time>
      </trkpt>
      <trkpt lat="44.32592" lon="1.9841">
        <ele>380.7</ele>
        <time>2017-04-17T07:14:04Z</time>
      </trkpt>
      <trkpt lat="44.32583" lon="1.98405">
        <ele>381.3</ele>
        <time>2017-04-17T07:14:09Z</time>
      </trkpt>
      <trkpt lat="44.32575" lon="1.98397">
        <ele>381.1</ele>
        <time>2017-04-17T07:14:14Z</time>
      </trkpt>
      <trkpt lat="44.32565" lon="1.98392">
        <ele>381.5</ele>
        <time>2017-04-17T07:14:19Z</time>
      </trkpt>
      <trkpt lat="44.32558" lon="1.98388">
        <ele>383.1</ele>
        <time>2017-04-17T07:14:24Z</time>
      </trkpt>
      <trkpt lat="44.3255" lon="1.98385">
        <ele>383.1</ele>
        <time>2017-04-17T07:14:29Z</time>
      </trkpt>
      <trkpt lat="44.3254" lon="1.98377">
        <ele>383.5</ele>
        <time>2017-04-17T07:14:34Z</time>
      </trkpt>
      <trkpt lat="44.3253" lon="1.98372">
        <ele>384.3</ele>
        <time>2017-04-17T07:14:39Z</time>
      </trkpt>
      <trkpt lat="44.32522" lon="1.98365">
        <ele>385</ele>
        <time>2017-04-17T07:14:44Z</time>
      </trkpt>
      <trkpt lat="44.3251" lon="1.98357">
        <ele>386.3</ele>
        <time>2017-04-17T07:14:49Z</time>
      </trkpt>
      <trkpt lat="44.32498" lon="1.98352">
        <ele>386.9</ele>
        <time>2017-04-17T07:14:54Z</time>
      </trkpt>
      <trkpt lat="44.32485" lon="1.98352">
        <ele>387.8</ele>
        <time>2017-04-17T07:14:59Z</time>
      </trkpt>
      <trkpt lat="44.32472" lon="1.98353">
        <ele>388.2</ele>
        <time>2017-04-17T07:15:04Z</time>
      </trkpt>
      <trkpt lat="44.32458" lon="1.98355">
        <ele>387.8</ele>
        <time>2017-04-17T07:15:09Z</time>
      </trkpt>
      <trkpt lat="44.32445" lon="1.98357">
        <ele>388.8</ele>
        <time>2017-04-17T07:15:14Z</time>
      </trkpt>
      <trkpt lat="44.32433" lon="1.98357">
        <ele>389.8</ele>
        <time>2017-04-17T07:15:19Z</time>
      </trkpt>
      <trkpt lat="44.32422" lon="1.98362">
        <ele>391</ele>
        <time>2017-04-17T07:15:24Z</time>
      </trkpt>
      <trkpt lat="44.32408" lon="1.98365">
        <ele>390.2</ele>
        <time>2017-04-17T07:15:29Z</time>
      </trkpt>
      <trkpt lat="44.32395" lon="1.9837">
        <ele>391.3</ele>
        <time>2017-04-17T07:15:34Z</time>
      </trkpt>
      <trkpt lat="44.3238" lon="1.98375">
        <ele>391.1</ele>
        <time>2017-04-17T07:15:39Z</time>
      </trkpt>
      <trkpt lat="44.32367" lon="1.9838">
        <ele>392.2</ele>
        <time>2017-04-17T07:15:44Z</time>
      </trkpt>
      <trkpt lat="44.32352" lon="1.98378">
        <ele>393.3</ele>
        <time>2017-04-17T07:15:49Z</time>
      </trkpt>
      <trkpt lat="44.32335" lon="1.9838">
        <ele>392.7</ele>
        <time>2017-04-17T07:15:54Z</time>
      </trkpt>
      <trkpt lat="44.32318" lon="1.98383">
        <ele>394.6</ele>
        <time>2017-04-17T07:15:59Z</time>
      </trkpt>
      <trkpt lat="44.32302" lon="1.9839">
        <ele>394</ele>
        <time>2017-04-17T07:16:04Z</time>
      </trkpt>
      <trkpt lat="44.32285" lon="1.98397">
        <ele>393.8</ele>
        <time>2017-04-17T07:16:09Z</time>
      </trkpt>
      <trkpt lat="44.32268" lon="1.98402">
        <ele>393.7</ele>
        <time>2017-04-17T07:16:14Z</time>
      </trkpt>
      <trkpt lat="44.32248" lon="1.98407">
        <ele>393.7</ele>
        <time>2017-04-17T07:16:19Z</time>
      </trkpt>
      <trkpt lat="44.32227" lon="1.9841">
        <ele>391.9</ele>
        <time>2017-04-17T07:16:24Z</time>
      </trkpt>
      <trkpt lat="44.32202" lon="1.98415">
        <ele>392.5</ele>
        <time>2017-04-17T07:16:29Z</time>
      </trkpt>
      <trkpt lat="44.32173" lon="1.98413">
        <ele>392</ele>
        <time>2017-04-17T07:16:34Z</time>
      </trkpt>
      <trkpt lat="44.32145" lon="1.98412">
        <ele>392.9</ele>
        <time>2017-04-17T07:16:39Z</time>
      </trkpt>
      <trkpt lat="44.32118" lon="1.98408">
        <ele>391.6</ele>
        <time>2017-04-17T07:16:44Z</time>
      </trkpt>
      <trkpt lat="44.32095" lon="1.98402">
        <ele>392</ele>
        <time>2017-04-17T07:16:49Z</time>
      </trkpt>
      <trkpt lat="44.32073" lon="1.98398">
        <ele>391.9</ele>
        <time>2017-04-17T07:16:54Z</time>
      </trkpt>
      <trkpt lat="44.3205" lon="1.98398">
        <ele>390.3</ele>
        <time>2017-04-17T07:16:59Z</time>
      </trkpt>
      <trkpt lat="44.32025" lon="1.984">
        <ele>391.8</ele>
        <time>2017-04-17T07:17:04Z</time>
      </trkpt>
      <trkpt lat="44.31998" lon="1.98403">
        <ele>392.8</ele>
        <time>2017-04-17T07:17:09Z</time>
      </trkpt>
      <trkpt lat="44.3197" lon="1.98405">
        <ele>388.4</ele>
        <time>2017-04-17T07:17:14Z</time>
      </trkpt>
      <trkpt lat="44.31937" lon="1.98407">
        <ele>391.7</ele>
        <time>2017-04-17T07:17:19Z</time>
      </trkpt>
      <trkpt lat="44.31895" lon="1.98412">
        <ele>387.1</ele>
        <time>2017-04-17T07:17:24Z</time>
      </trkpt>
      <trkpt lat="44.31853" lon="1.98418">
        <ele>379</ele>
        <time>2017-04-17T07:17:29Z</time>
      </trkpt>
      <trkpt lat="44.31822" lon="1.98435">
        <ele>383.6</ele>
        <time>2017-04-17T07:17:34Z</time>
      </trkpt>
      <trkpt lat="44.31797" lon="1.98445">
        <ele>382.6</ele>
        <time>2017-04-17T07:17:39Z</time>
      </trkpt>
      <trkpt lat="44.31777" lon="1.98452">
        <ele>383.7</ele>
        <time>2017-04-17T07:17:44Z</time>
      </trkpt>
      <trkpt lat="44.31758" lon="1.98458">
        <ele>384.5</ele>
        <time>2017-04-17T07:17:49Z</time>
      </trkpt>
      <trkpt lat="44.31735" lon="1.98458">
        <ele>382.3</ele>
        <time>2017-04-17T07:17:54Z</time>
      </trkpt>
      <trkpt lat="44.31715" lon="1.9846">
        <ele>384.4</ele>
        <time>2017-04-17T07:17:59Z</time>
      </trkpt>
      <trkpt lat="44.31697" lon="1.9846">
        <ele>385.6</ele>
        <time>2017-04-17T07:18:04Z</time>
      </trkpt>
      <trkpt lat="44.31678" lon="1.98462">
        <ele>384</ele>
        <time>2017-04-17T07:18:09Z</time>
      </trkpt>
      <trkpt lat="44.31665" lon="1.98467">
        <ele>386.1</ele>
        <time>2017-04-17T07:18:14Z</time>
      </trkpt>
      <trkpt lat="44.3165" lon="1.9847">
        <ele>386.6</ele>
        <time>2017-04-17T07:18:19Z</time>
      </trkpt>
      <trkpt lat="44.31638" lon="1.98473">
        <ele>388</ele>
        <time>2017-04-17T07:18:24Z</time>
      </trkpt>
      <trkpt lat="44.31627" lon="1.98477">
        <ele>388.5</ele>
        <time>2017-04-17T07:18:29Z</time>
      </trkpt>
      <trkpt lat="44.31615" lon="1.98483">
        <ele>388.6</ele>
        <time>2017-04-17T07:18:34Z</time>
      </trkpt>
      <trkpt lat="44.31603" lon="1.98492">
        <ele>389</ele>
        <time>2017-04-17T07:18:39Z</time>
      </trkpt>
      <trkpt lat="44.3159" lon="1.98502">
        <ele>389.9</ele>
        <time>2017-04-17T07:18:44Z</time>
      </trkpt>
      <trkpt lat="44.3158" lon="1.98508">
        <ele>390.1</ele>
        <time>2017-04-17T07:18:49Z</time>
      </trkpt>
      <trkpt lat="44.3158" lon="1.9851">
        <ele>390.4</ele>
        <time>2017-04-17T07:18:54Z</time>
      </trkpt>
      <trkpt lat="44.31577" lon="1.98513">
        <ele>390.2</ele>
        <time>2017-04-17T07:19:49Z</time>
      </trkpt>
      <trkpt lat="44.31575" lon="1.98513">
        <ele>390.9</ele>
        <time>2017-04-17T07:19:54Z</time>
      </trkpt>
      <trkpt lat="44.31573" lon="1.98513">
        <ele>391.1</ele>
        <time>2017-04-17T07:21:24Z</time>
      </trkpt>
      <trkpt lat="44.3157" lon="1.98515">
        <ele>391</ele>
        <time>2017-04-17T07:21:29Z</time>
      </trkpt>
      <trkpt lat="44.31567" lon="1.98515">
        <ele>391</ele>
        <time>2017-04-17T07:21:39Z</time>
      </trkpt>
      <trkpt lat="44.31557" lon="1.9852">
        <ele>391.8</ele>
        <time>2017-04-17T07:21:44Z</time>
      </trkpt>
      <trkpt lat="44.31543" lon="1.98523">
        <ele>392</ele>
        <time>2017-04-17T07:21:49Z</time>
      </trkpt>
      <trkpt lat="44.31532" lon="1.98527">
        <ele>393.4</ele>
        <time>2017-04-17T07:21:54Z</time>
      </trkpt>
      <trkpt lat="44.31518" lon="1.98528">
        <ele>394.2</ele>
        <time>2017-04-17T07:21:59Z</time>
      </trkpt>
      <trkpt lat="44.31505" lon="1.98528">
        <ele>394.9</ele>
        <time>2017-04-17T07:22:04Z</time>
      </trkpt>
      <trkpt lat="44.31492" lon="1.98527">
        <ele>396.4</ele>
        <time>2017-04-17T07:22:09Z</time>
      </trkpt>
      <trkpt lat="44.3148" lon="1.98525">
        <ele>397.1</ele>
        <time>2017-04-17T07:22:14Z</time>
      </trkpt>
      <trkpt lat="44.31467" lon="1.98522">
        <ele>397.1</ele>
        <time>2017-04-17T07:22:19Z</time>
      </trkpt>
      <trkpt lat="44.31453" lon="1.98522">
        <ele>397.5</ele>
        <time>2017-04-17T07:22:24Z</time>
      </trkpt>
      <trkpt lat="44.3144" lon="1.98517">
        <ele>399.2</ele>
        <time>2017-04-17T07:22:29Z</time>
      </trkpt>
      <trkpt lat="44.31425" lon="1.98515">
        <ele>398.5</ele>
        <time>2017-04-17T07:22:34Z</time>
      </trkpt>
      <trkpt lat="44.31407" lon="1.9851">
        <ele>399.5</ele>
        <time>2017-04-17T07:22:39Z</time>
      </trkpt>
      <trkpt lat="44.31388" lon="1.98507">
        <ele>399.7</ele>
        <time>2017-04-17T07:22:44Z</time>
      </trkpt>
      <trkpt lat="44.31368" lon="1.985">
        <ele>399.8</ele>
        <time>2017-04-17T07:22:49Z</time>
      </trkpt>
      <trkpt lat="44.31347" lon="1.98495">
        <ele>396.9</ele>
        <time>2017-04-17T07:22:54Z</time>
      </trkpt>
      <trkpt lat="44.31323" lon="1.98493">
        <ele>396.5</ele>
        <time>2017-04-17T07:22:59Z</time>
      </trkpt>
      <trkpt lat="44.31305" lon="1.98498">
        <ele>399.2</ele>
        <time>2017-04-17T07:23:04Z</time>
      </trkpt>
      <trkpt lat="44.31285" lon="1.985">
        <ele>398.2</ele>
        <time>2017-04-17T07:23:09Z</time>
      </trkpt>
      <trkpt lat="44.31267" lon="1.985">
        <ele>398.7</ele>
        <time>2017-04-17T07:23:14Z</time>
      </trkpt>
      <trkpt lat="44.31248" lon="1.98497">
        <ele>398.7</ele>
        <time>2017-04-17T07:23:19Z</time>
      </trkpt>
      <trkpt lat="44.31233" lon="1.98488">
        <ele>402.5</ele>
        <time>2017-04-17T07:23:24Z</time>
      </trkpt>
      <trkpt lat="44.31218" lon="1.98477">
        <ele>401.8</ele>
        <time>2017-04-17T07:23:29Z</time>
      </trkpt>
      <trkpt lat="44.31203" lon="1.98463">
        <ele>402.9</ele>
        <time>2017-04-17T07:23:34Z</time>
      </trkpt>
      <trkpt lat="44.31188" lon="1.98448">
        <ele>401.8</ele>
        <time>2017-04-17T07:23:39Z</time>
      </trkpt>
      <trkpt lat="44.3117" lon="1.98428">
        <ele>401.8</ele>
        <time>2017-04-17T07:23:44Z</time>
      </trkpt>
      <trkpt lat="44.31145" lon="1.98408">
        <ele>400.6</ele>
        <time>2017-04-17T07:23:49Z</time>
      </trkpt>
      <trkpt lat="44.3111" lon="1.98398">
        <ele>398.7</ele>
        <time>2017-04-17T07:23:54Z</time>
      </trkpt>
      <trkpt lat="44.31067" lon="1.98393">
        <ele>396</ele>
        <time>2017-04-17T07:23:59Z</time>
      </trkpt>
      <trkpt lat="44.31023" lon="1.98378">
        <ele>392.4</ele>
        <time>2017-04-17T07:24:04Z</time>
      </trkpt>
      <trkpt lat="44.31" lon="1.98362">
        <ele>393.2</ele>
        <time>2017-04-17T07:24:09Z</time>
      </trkpt>
      <trkpt lat="44.3098" lon="1.98352">
        <ele>394.4</ele>
        <time>2017-04-17T07:24:14Z</time>
      </trkpt>
      <trkpt lat="44.3096" lon="1.98347">
        <ele>395.4</ele>
        <time>2017-04-17T07:24:19Z</time>
      </trkpt>
      <trkpt lat="44.30943" lon="1.98342">
        <ele>395.2</ele>
        <time>2017-04-17T07:24:24Z</time>
      </trkpt>
      <trkpt lat="44.30932" lon="1.98343">
        <ele>396</ele>
        <time>2017-04-17T07:24:29Z</time>
      </trkpt>
      <trkpt lat="44.30922" lon="1.98342">
        <ele>397.3</ele>
        <time>2017-04-17T07:24:34Z</time>
      </trkpt>
      <trkpt lat="44.3091" lon="1.98342">
        <ele>398.3</ele>
        <time>2017-04-17T07:24:39Z</time>
      </trkpt>
      <trkpt lat="44.30897" lon="1.98342">
        <ele>398.3</ele>
        <time>2017-04-17T07:24:44Z</time>
      </trkpt>
      <trkpt lat="44.30885" lon="1.98338">
        <ele>399.9</ele>
        <time>2017-04-17T07:24:49Z</time>
      </trkpt>
      <trkpt lat="44.30873" lon="1.98332">
        <ele>400.6</ele>
        <time>2017-04-17T07:24:54Z</time>
      </trkpt>
      <trkpt lat="44.30862" lon="1.98327">
        <ele>400.3</ele>
        <time>2017-04-17T07:24:59Z</time>
      </trkpt>
      <trkpt lat="44.30847" lon="1.98318">
        <ele>401.4</ele>
        <time>2017-04-17T07:25:04Z</time>
      </trkpt>
      <trkpt lat="44.30828" lon="1.9831">
        <ele>402</ele>
        <time>2017-04-17T07:25:09Z</time>
      </trkpt>
      <trkpt lat="44.30812" lon="1.98302">
        <ele>401.2</ele>
        <time>2017-04-17T07:25:14Z</time>
      </trkpt>
      <trkpt lat="44.30793" lon="1.98295">
        <ele>403.2</ele>
        <time>2017-04-17T07:25:19Z</time>
      </trkpt>
      <trkpt lat="44.30773" lon="1.98288">
        <ele>403.5</ele>
        <time>2017-04-17T07:25:24Z</time>
      </trkpt>
      <trkpt lat="44.30753" lon="1.98278">
        <ele>402.8</ele>
        <time>2017-04-17T07:25:29Z</time>
      </trkpt>
      <trkpt lat="44.30735" lon="1.98267">
        <ele>401.9</ele>
        <time>2017-04-17T07:25:34Z</time>
      </trkpt>
      <trkpt lat="44.30712" lon="1.98248">
        <ele>400.2</ele>
        <time>2017-04-17T07:25:39Z</time>
      </trkpt>
      <trkpt lat="44.30682" lon="1.98227">
        <ele>398.3</ele>
        <time>2017-04-17T07:25:44Z</time>
      </trkpt>
      <trkpt lat="44.30643" lon="1.98215">
        <ele>398.6</ele>
        <time>2017-04-17T07:25:49Z</time>
      </trkpt>
      <trkpt lat="44.30602" lon="1.98213">
        <ele>391.7</ele>
        <time>2017-04-17T07:25:54Z</time>
      </trkpt>
      <trkpt lat="44.30563" lon="1.98208">
        <ele>395.2</ele>
        <time>2017-04-17T07:25:59Z</time>
      </trkpt>
      <trkpt lat="44.3053" lon="1.98208">
        <ele>393.4</ele>
        <time>2017-04-17T07:26:04Z</time>
      </trkpt>
      <trkpt lat="44.305" lon="1.98203">
        <ele>395.3</ele>
        <time>2017-04-17T07:26:09Z</time>
      </trkpt>
      <trkpt lat="44.3047" lon="1.98195">
        <ele>395</ele>
        <time>2017-04-17T07:26:14Z</time>
      </trkpt>
      <trkpt lat="44.3044" lon="1.98183">
        <ele>396.2</ele>
        <time>2017-04-17T07:26:19Z</time>
      </trkpt>
      <trkpt lat="44.3041" lon="1.98182">
        <ele>395</ele>
        <time>2017-04-17T07:26:24Z</time>
      </trkpt>
      <trkpt lat="44.30382" lon="1.98175">
        <ele>394.5</ele>
        <time>2017-04-17T07:26:29Z</time>
      </trkpt>
      <trkpt lat="44.30353" lon="1.98168">
        <ele>393.9</ele>
        <time>2017-04-17T07:26:34Z</time>
      </trkpt>
      <trkpt lat="44.30325" lon="1.9816">
        <ele>395</ele>
        <time>2017-04-17T07:26:39Z</time>
      </trkpt>
      <trkpt lat="44.30298" lon="1.98147">
        <ele>395.5</ele>
        <time>2017-04-17T07:26:44Z</time>
      </trkpt>
      <trkpt lat="44.3027" lon="1.9813">
        <ele>397.1</ele>
        <time>2017-04-17T07:26:49Z</time>
      </trkpt>
      <trkpt lat="44.30247" lon="1.98117">
        <ele>394.3</ele>
        <time>2017-04-17T07:26:54Z</time>
      </trkpt>
      <trkpt lat="44.30218" lon="1.98117">
        <ele>394.5</ele>
        <time>2017-04-17T07:26:59Z</time>
      </trkpt>
      <trkpt lat="44.30188" lon="1.9812">
        <ele>392.7</ele>
        <time>2017-04-17T07:27:04Z</time>
      </trkpt>
      <trkpt lat="44.30157" lon="1.98117">
        <ele>391.1</ele>
        <time>2017-04-17T07:27:09Z</time>
      </trkpt>
      <trkpt lat="44.30115" lon="1.98117">
        <ele>389.8</ele>
        <time>2017-04-17T07:27:14Z</time>
      </trkpt>
      <trkpt lat="44.3007" lon="1.98117">
        <ele>387.6</ele>
        <time>2017-04-17T07:27:19Z</time>
      </trkpt>
      <trkpt lat="44.30023" lon="1.98113">
        <ele>384.1</ele>
        <time>2017-04-17T07:27:24Z</time>
      </trkpt>
      <trkpt lat="44.2998" lon="1.98108">
        <ele>386.3</ele>
        <time>2017-04-17T07:27:29Z</time>
      </trkpt>
      <trkpt lat="44.29948" lon="1.9811">
        <ele>383.8</ele>
        <time>2017-04-17T07:27:34Z</time>
      </trkpt>
      <trkpt lat="44.2992" lon="1.98118">
        <ele>382.9</ele>
        <time>2017-04-17T07:27:39Z</time>
      </trkpt>
      <trkpt lat="44.29888" lon="1.98125">
        <ele>381.1</ele>
        <time>2017-04-17T07:27:44Z</time>
      </trkpt>
      <trkpt lat="44.29853" lon="1.98128">
        <ele>377.9</ele>
        <time>2017-04-17T07:27:49Z</time>
      </trkpt>
      <trkpt lat="44.2981" lon="1.98135">
        <ele>378.9</ele>
        <time>2017-04-17T07:27:54Z</time>
      </trkpt>
      <trkpt lat="44.29767" lon="1.98147">
        <ele>377.1</ele>
        <time>2017-04-17T07:27:59Z</time>
      </trkpt>
      <trkpt lat="44.2973" lon="1.98162">
        <ele>378.7</ele>
        <time>2017-04-17T07:28:04Z</time>
      </trkpt>
      <trkpt lat="44.29698" lon="1.98167">
        <ele>373.4</ele>
        <time>2017-04-17T07:28:09Z</time>
      </trkpt>
      <trkpt lat="44.29667" lon="1.9817">
        <ele>370.7</ele>
        <time>2017-04-17T07:28:14Z</time>
      </trkpt>
      <trkpt lat="44.29638" lon="1.98173">
        <ele>374.4</ele>
        <time>2017-04-17T07:28:19Z</time>
      </trkpt>
      <trkpt lat="44.29613" lon="1.98167">
        <ele>372.6</ele>
        <time>2017-04-17T07:28:24Z</time>
      </trkpt>
      <trkpt lat="44.29587" lon="1.98157">
        <ele>372.6</ele>
        <time>2017-04-17T07:28:29Z</time>
      </trkpt>
      <trkpt lat="44.2956" lon="1.98145">
        <ele>373.3</ele>
        <time>2017-04-17T07:28:34Z</time>
      </trkpt>
      <trkpt lat="44.29535" lon="1.98135">
        <ele>371.6</ele>
        <time>2017-04-17T07:28:39Z</time>
      </trkpt>
      <trkpt lat="44.29513" lon="1.98122">
        <ele>372.5</ele>
        <time>2017-04-17T07:28:44Z</time>
      </trkpt>
      <trkpt lat="44.29495" lon="1.9811">
        <ele>370.8</ele>
        <time>2017-04-17T07:28:49Z</time>
      </trkpt>
      <trkpt lat="44.29482" lon="1.98095">
        <ele>371.3</ele>
        <time>2017-04-17T07:28:54Z</time>
      </trkpt>
      <trkpt lat="44.29467" lon="1.9808">
        <ele>372.5</ele>
        <time>2017-04-17T07:28:59Z</time>
      </trkpt>
      <trkpt lat="44.29448" lon="1.98067">
        <ele>372.8</ele>
        <time>2017-04-17T07:29:04Z</time>
      </trkpt>
      <trkpt lat="44.29432" lon="1.98053">
        <ele>373.5</ele>
        <time>2017-04-17T07:29:09Z</time>
      </trkpt>
      <trkpt lat="44.29417" lon="1.9804">
        <ele>373.5</ele>
        <time>2017-04-17T07:29:14Z</time>
      </trkpt>
      <trkpt lat="44.294" lon="1.9803">
        <ele>373.1</ele>
        <time>2017-04-17T07:29:19Z</time>
      </trkpt>
      <trkpt lat="44.29383" lon="1.98025">
        <ele>374.1</ele>
        <time>2017-04-17T07:29:24Z</time>
      </trkpt>
      <trkpt lat="44.29365" lon="1.98022">
        <ele>376.4</ele>
        <time>2017-04-17T07:29:29Z</time>
      </trkpt>
      <trkpt lat="44.2935" lon="1.98023">
        <ele>376.3</ele>
        <time>2017-04-17T07:29:34Z</time>
      </trkpt>
      <trkpt lat="44.29335" lon="1.9802">
        <ele>377.5</ele>
        <time>2017-04-17T07:29:39Z</time>
      </trkpt>
      <trkpt lat="44.29317" lon="1.98017">
        <ele>377.5</ele>
        <time>2017-04-17T07:29:44Z</time>
      </trkpt>
      <trkpt lat="44.29298" lon="1.9801">
        <ele>378</ele>
        <time>2017-04-17T07:29:49Z</time>
      </trkpt>
      <trkpt lat="44.29283" lon="1.98003">
        <ele>379.5</ele>
        <time>2017-04-17T07:29:54Z</time>
      </trkpt>
      <trkpt lat="44.29268" lon="1.97998">
        <ele>381.1</ele>
        <time>2017-04-17T07:29:59Z</time>
      </trkpt>
      <trkpt lat="44.29253" lon="1.97992">
        <ele>379.3</ele>
        <time>2017-04-17T07:30:04Z</time>
      </trkpt>
      <trkpt lat="44.29238" lon="1.97987">
        <ele>380.1</ele>
        <time>2017-04-17T07:30:09Z</time>
      </trkpt>
      <trkpt lat="44.29225" lon="1.97982">
        <ele>380.4</ele>
        <time>2017-04-17T07:30:14Z</time>
      </trkpt>
      <trkpt lat="44.29208" lon="1.97975">
        <ele>381.9</ele>
        <time>2017-04-17T07:30:19Z</time>
      </trkpt>
      <trkpt lat="44.29192" lon="1.97967">
        <ele>382.8</ele>
        <time>2017-04-17T07:30:24Z</time>
      </trkpt>
      <trkpt lat="44.29172" lon="1.97958">
        <ele>380.2</ele>
        <time>2017-04-17T07:30:29Z</time>
      </trkpt>
      <trkpt lat="44.2915" lon="1.9795">
        <ele>379.7</ele>
        <time>2017-04-17T07:30:34Z</time>
      </trkpt>
      <trkpt lat="44.29128" lon="1.97945">
        <ele>380</ele>
        <time>2017-04-17T07:30:39Z</time>
      </trkpt>
      <trkpt lat="44.29107" lon="1.9794">
        <ele>379.5</ele>
        <time>2017-04-17T07:30:44Z</time>
      </trkpt>
      <trkpt lat="44.29083" lon="1.97935">
        <ele>379.1</ele>
        <time>2017-04-17T07:30:49Z</time>
      </trkpt>
      <trkpt lat="44.29057" lon="1.97928">
        <ele>380.6</ele>
        <time>2017-04-17T07:30:54Z</time>
      </trkpt>
      <trkpt lat="44.2903" lon="1.97925">
        <ele>379.5</ele>
        <time>2017-04-17T07:30:59Z</time>
      </trkpt>
      <trkpt lat="44.29007" lon="1.97917">
        <ele>379.5</ele>
        <time>2017-04-17T07:31:04Z</time>
      </trkpt>
      <trkpt lat="44.28982" lon="1.97905">
        <ele>378.5</ele>
        <time>2017-04-17T07:31:09Z</time>
      </trkpt>
      <trkpt lat="44.28958" lon="1.9789">
        <ele>380.1</ele>
        <time>2017-04-17T07:31:14Z</time>
      </trkpt>
      <trkpt lat="44.28935" lon="1.97885">
        <ele>379.4</ele>
        <time>2017-04-17T07:31:19Z</time>
      </trkpt>
      <trkpt lat="44.28912" lon="1.97882">
        <ele>380.3</ele>
        <time>2017-04-17T07:31:24Z</time>
      </trkpt>
      <trkpt lat="44.28888" lon="1.97885">
        <ele>380.7</ele>
        <time>2017-04-17T07:31:29Z</time>
      </trkpt>
      <trkpt lat="44.28867" lon="1.97887">
        <ele>379.1</ele>
        <time>2017-04-17T07:31:34Z</time>
      </trkpt>
      <trkpt lat="44.28845" lon="1.97887">
        <ele>379.1</ele>
        <time>2017-04-17T07:31:39Z</time>
      </trkpt>
      <trkpt lat="44.2882" lon="1.97885">
        <ele>379.1</ele>
        <time>2017-04-17T07:31:44Z</time>
      </trkpt>
      <trkpt lat="44.28793" lon="1.97887">
        <ele>378.6</ele>
        <time>2017-04-17T07:31:49Z</time>
      </trkpt>
      <trkpt lat="44.28767" lon="1.97902">
        <ele>375.6</ele>
        <time>2017-04-17T07:31:54Z</time>
      </trkpt>
      <trkpt lat="44.28738" lon="1.97917">
        <ele>372</ele>
        <time>2017-04-17T07:31:59Z</time>
      </trkpt>
      <trkpt lat="44.28712" lon="1.97942">
        <ele>375.5</ele>
        <time>2017-04-17T07:32:04Z</time>
      </trkpt>
      <trkpt lat="44.28687" lon="1.97962">
        <ele>371.6</ele>
        <time>2017-04-17T07:32:09Z</time>
      </trkpt>
      <trkpt lat="44.28667" lon="1.97975">
        <ele>371.2</ele>
        <time>2017-04-17T07:32:14Z</time>
      </trkpt>
      <trkpt lat="44.28653" lon="1.97985">
        <ele>373.5</ele>
        <time>2017-04-17T07:32:19Z</time>
      </trkpt>
      <trkpt lat="44.28642" lon="1.97995">
        <ele>372.2</ele>
        <time>2017-04-17T07:32:24Z</time>
      </trkpt>
      <trkpt lat="44.2863" lon="1.98003">
        <ele>375</ele>
        <time>2017-04-17T07:32:29Z</time>
      </trkpt>
      <trkpt lat="44.2862" lon="1.98012">
        <ele>375.4</ele>
        <time>2017-04-17T07:32:34Z</time>
      </trkpt>
      <trkpt lat="44.28608" lon="1.98017">
        <ele>376.9</ele>
        <time>2017-04-17T07:32:39Z</time>
      </trkpt>
      <trkpt lat="44.28598" lon="1.98022">
        <ele>377.3</ele>
        <time>2017-04-17T07:32:44Z</time>
      </trkpt>
      <trkpt lat="44.28587" lon="1.98025">
        <ele>378.6</ele>
        <time>2017-04-17T07:32:49Z</time>
      </trkpt>
      <trkpt lat="44.28575" lon="1.98028">
        <ele>378.4</ele>
        <time>2017-04-17T07:32:54Z</time>
      </trkpt>
      <trkpt lat="44.28562" lon="1.98033">
        <ele>379.8</ele>
        <time>2017-04-17T07:32:59Z</time>
      </trkpt>
      <trkpt lat="44.28547" lon="1.9804">
        <ele>377.4</ele>
        <time>2017-04-17T07:33:04Z</time>
      </trkpt>
      <trkpt lat="44.28532" lon="1.98045">
        <ele>378.3</ele>
        <time>2017-04-17T07:33:09Z</time>
      </trkpt>
      <trkpt lat="44.28515" lon="1.98053">
        <ele>377.5</ele>
        <time>2017-04-17T07:33:14Z</time>
      </trkpt>
      <trkpt lat="44.28495" lon="1.98062">
        <ele>378.1</ele>
        <time>2017-04-17T07:33:19Z</time>
      </trkpt>
      <trkpt lat="44.28472" lon="1.98073">
        <ele>376.1</ele>
        <time>2017-04-17T07:33:24Z</time>
      </trkpt>
      <trkpt lat="44.28448" lon="1.98085">
        <ele>376.7</ele>
        <time>2017-04-17T07:33:29Z</time>
      </trkpt>
      <trkpt lat="44.28423" lon="1.98097">
        <ele>373.2</ele>
        <time>2017-04-17T07:33:34Z</time>
      </trkpt>
      <trkpt lat="44.28393" lon="1.98105">
        <ele>373.2</ele>
        <time>2017-04-17T07:33:39Z</time>
      </trkpt>
      <trkpt lat="44.28373" lon="1.98113">
        <ele>371</ele>
        <time>2017-04-17T07:33:44Z</time>
      </trkpt>
      <trkpt lat="44.2836" lon="1.98123">
        <ele>368.4</ele>
        <time>2017-04-17T07:33:49Z</time>
      </trkpt>
      <trkpt lat="44.2835" lon="1.98143">
        <ele>372.5</ele>
        <time>2017-04-17T07:33:54Z</time>
      </trkpt>
      <trkpt lat="44.28342" lon="1.98165">
        <ele>370.7</ele>
        <time>2017-04-17T07:33:59Z</time>
      </trkpt>
      <trkpt lat="44.28333" lon="1.98185">
        <ele>372.4</ele>
        <time>2017-04-17T07:34:04Z</time>
      </trkpt>
      <trkpt lat="44.28328" lon="1.98207">
        <ele>372.6</ele>
        <time>2017-04-17T07:34:09Z</time>
      </trkpt>
      <trkpt lat="44.28325" lon="1.9823">
        <ele>375.7</ele>
        <time>2017-04-17T07:34:14Z</time>
      </trkpt>
      <trkpt lat="44.28327" lon="1.98252">
        <ele>373.4</ele>
        <time>2017-04-17T07:34:19Z</time>
      </trkpt>
      <trkpt lat="44.28328" lon="1.98277">
        <ele>375.3</ele>
        <time>2017-04-17T07:34:24Z</time>
      </trkpt>
      <trkpt lat="44.28328" lon="1.98303">
        <ele>374.9</ele>
        <time>2017-04-17T07:34:29Z</time>
      </trkpt>
      <trkpt lat="44.2833" lon="1.98325">
        <ele>374.9</ele>
        <time>2017-04-17T07:34:34Z</time>
      </trkpt>
      <trkpt lat="44.28335" lon="1.9835">
        <ele>374.9</ele>
        <time>2017-04-17T07:34:39Z</time>
      </trkpt>
      <trkpt lat="44.28332" lon="1.98373">
        <ele>370.9</ele>
        <time>2017-04-17T07:34:44Z</time>
      </trkpt>
      <trkpt lat="44.2833" lon="1.98392">
        <ele>371.5</ele>
        <time>2017-04-17T07:34:49Z</time>
      </trkpt>
      <trkpt lat="44.28328" lon="1.9842">
        <ele>370.8</ele>
        <time>2017-04-17T07:34:54Z</time>
      </trkpt>
      <trkpt lat="44.28318" lon="1.98447">
        <ele>371</ele>
        <time>2017-04-17T07:34:59Z</time>
      </trkpt>
      <trkpt lat="44.283" lon="1.98468">
        <ele>369.8</ele>
        <time>2017-04-17T07:35:04Z</time>
      </trkpt>
      <trkpt lat="44.28302" lon="1.98498">
        <ele>370.2</ele>
        <time>2017-04-17T07:35:09Z</time>
      </trkpt>
      <trkpt lat="44.28295" lon="1.98528">
        <ele>371</ele>
        <time>2017-04-17T07:35:14Z</time>
      </trkpt>
      <trkpt lat="44.28292" lon="1.98553">
        <ele>369.4</ele>
        <time>2017-04-17T07:35:19Z</time>
      </trkpt>
      <trkpt lat="44.28297" lon="1.98582">
        <ele>369.9</ele>
        <time>2017-04-17T07:35:24Z</time>
      </trkpt>
      <trkpt lat="44.28302" lon="1.98615">
        <ele>367.3</ele>
        <time>2017-04-17T07:35:29Z</time>
      </trkpt>
      <trkpt lat="44.28293" lon="1.98633">
        <ele>366.3</ele>
        <time>2017-04-17T07:35:34Z</time>
      </trkpt>
      <trkpt lat="44.28285" lon="1.98635">
        <ele>365.7</ele>
        <time>2017-04-17T07:35:39Z</time>
      </trkpt>
      <trkpt lat="44.28278" lon="1.98627">
        <ele>367.9</ele>
        <time>2017-04-17T07:35:44Z</time>
      </trkpt>
      <trkpt lat="44.28268" lon="1.9862">
        <ele>368.9</ele>
        <time>2017-04-17T07:35:49Z</time>
      </trkpt>
      <trkpt lat="44.28262" lon="1.9861">
        <ele>370.3</ele>
        <time>2017-04-17T07:35:54Z</time>
      </trkpt>
      <trkpt lat="44.28252" lon="1.98603">
        <ele>371.8</ele>
        <time>2017-04-17T07:35:59Z</time>
      </trkpt>
      <trkpt lat="44.28243" lon="1.98595">
        <ele>372.6</ele>
        <time>2017-04-17T07:36:04Z</time>
      </trkpt>
      <trkpt lat="44.28233" lon="1.98587">
        <ele>372.7</ele>
        <time>2017-04-17T07:36:09Z</time>
      </trkpt>
      <trkpt lat="44.28223" lon="1.98578">
        <ele>374.5</ele>
        <time>2017-04-17T07:36:14Z</time>
      </trkpt>
      <trkpt lat="44.28212" lon="1.98572">
        <ele>374.6</ele>
        <time>2017-04-17T07:36:19Z</time>
      </trkpt>
      <trkpt lat="44.282" lon="1.98575">
        <ele>375.7</ele>
        <time>2017-04-17T07:36:24Z</time>
      </trkpt>
      <trkpt lat="44.28187" lon="1.98582">
        <ele>375.7</ele>
        <time>2017-04-17T07:36:29Z</time>
      </trkpt>
      <trkpt lat="44.28172" lon="1.98578">
        <ele>375.4</ele>
        <time>2017-04-17T07:36:34Z</time>
      </trkpt>
      <trkpt lat="44.28158" lon="1.98563">
        <ele>375.8</ele>
        <time>2017-04-17T07:36:39Z</time>
      </trkpt>
      <trkpt lat="44.28143" lon="1.98548">
        <ele>376.2</ele>
        <time>2017-04-17T07:36:44Z</time>
      </trkpt>
      <trkpt lat="44.28127" lon="1.9853">
        <ele>376.7</ele>
        <time>2017-04-17T07:36:49Z</time>
      </trkpt>
      <trkpt lat="44.28112" lon="1.98513">
        <ele>376.8</ele>
        <time>2017-04-17T07:36:54Z</time>
      </trkpt>
      <trkpt lat="44.28097" lon="1.98498">
        <ele>378.2</ele>
        <time>2017-04-17T07:36:59Z</time>
      </trkpt>
      <trkpt lat="44.28083" lon="1.9848">
        <ele>378.2</ele>
        <time>2017-04-17T07:37:04Z</time>
      </trkpt>
      <trkpt lat="44.28072" lon="1.98455">
        <ele>377.7</ele>
        <time>2017-04-17T07:37:09Z</time>
      </trkpt>
      <trkpt lat="44.28043" lon="1.98445">
        <ele>376</ele>
        <time>2017-04-17T07:37:14Z</time>
      </trkpt>
      <trkpt lat="44.28003" lon="1.98448">
        <ele>374.9</ele>
        <time>2017-04-17T07:37:19Z</time>
      </trkpt>
      <trkpt lat="44.27957" lon="1.98455">
        <ele>372.6</ele>
        <time>2017-04-17T07:37:24Z</time>
      </trkpt>
      <trkpt lat="44.27913" lon="1.98465">
        <ele>368.5</ele>
        <time>2017-04-17T07:37:29Z</time>
      </trkpt>
      <trkpt lat="44.2787" lon="1.98455">
        <ele>368</ele>
        <time>2017-04-17T07:37:34Z</time>
      </trkpt>
      <trkpt lat="44.27832" lon="1.98438">
        <ele>366.4</ele>
        <time>2017-04-17T07:37:39Z</time>
      </trkpt>
      <trkpt lat="44.278" lon="1.98423">
        <ele>367.4</ele>
        <time>2017-04-17T07:37:44Z</time>
      </trkpt>
      <trkpt lat="44.27773" lon="1.9841">
        <ele>367.7</ele>
        <time>2017-04-17T07:37:49Z</time>
      </trkpt>
      <trkpt lat="44.27747" lon="1.98397">
        <ele>370</ele>
        <time>2017-04-17T07:37:54Z</time>
      </trkpt>
      <trkpt lat="44.27723" lon="1.98385">
        <ele>370.8</ele>
        <time>2017-04-17T07:37:59Z</time>
      </trkpt>
      <trkpt lat="44.27712" lon="1.98395">
        <ele>369.8</ele>
        <time>2017-04-17T07:38:04Z</time>
      </trkpt>
      <trkpt lat="44.27702" lon="1.98417">
        <ele>369.1</ele>
        <time>2017-04-17T07:38:09Z</time>
      </trkpt>
      <trkpt lat="44.2769" lon="1.98442">
        <ele>367.4</ele>
        <time>2017-04-17T07:38:14Z</time>
      </trkpt>
      <trkpt lat="44.27672" lon="1.9847">
        <ele>366.4</ele>
        <time>2017-04-17T07:38:19Z</time>
      </trkpt>
      <trkpt lat="44.27648" lon="1.98502">
        <ele>368.3</ele>
        <time>2017-04-17T07:38:24Z</time>
      </trkpt>
      <trkpt lat="44.27625" lon="1.98537">
        <ele>362.7</ele>
        <time>2017-04-17T07:38:29Z</time>
      </trkpt>
      <trkpt lat="44.27608" lon="1.98582">
        <ele>357.7</ele>
        <time>2017-04-17T07:38:34Z</time>
      </trkpt>
      <trkpt lat="44.27592" lon="1.9863">
        <ele>357.9</ele>
        <time>2017-04-17T07:38:39Z</time>
      </trkpt>
      <trkpt lat="44.27578" lon="1.98672">
        <ele>355.9</ele>
        <time>2017-04-17T07:38:44Z</time>
      </trkpt>
      <trkpt lat="44.27567" lon="1.9871">
        <ele>352.5</ele>
        <time>2017-04-17T07:38:49Z</time>
      </trkpt>
      <trkpt lat="44.27548" lon="1.98742">
        <ele>355.1</ele>
        <time>2017-04-17T07:38:54Z</time>
      </trkpt>
      <trkpt lat="44.27533" lon="1.9877">
        <ele>350.3</ele>
        <time>2017-04-17T07:38:59Z</time>
      </trkpt>
      <trkpt lat="44.27515" lon="1.9878">
        <ele>353.4</ele>
        <time>2017-04-17T07:39:04Z</time>
      </trkpt>
      <trkpt lat="44.27493" lon="1.98788">
        <ele>351.3</ele>
        <time>2017-04-17T07:39:09Z</time>
      </trkpt>
      <trkpt lat="44.27468" lon="1.9879">
        <ele>352.5</ele>
        <time>2017-04-17T07:39:14Z</time>
      </trkpt>
      <trkpt lat="44.27453" lon="1.98785">
        <ele>351.8</ele>
        <time>2017-04-17T07:39:19Z</time>
      </trkpt>
      <trkpt lat="44.27448" lon="1.98768">
        <ele>350.8</ele>
        <time>2017-04-17T07:39:24Z</time>
      </trkpt>
      <trkpt lat="44.27443" lon="1.98745">
        <ele>352.1</ele>
        <time>2017-04-17T07:39:29Z</time>
      </trkpt>
      <trkpt lat="44.27437" lon="1.98718">
        <ele>346.5</ele>
        <time>2017-04-17T07:39:34Z</time>
      </trkpt>
      <trkpt lat="44.27433" lon="1.98697">
        <ele>346.2</ele>
        <time>2017-04-17T07:39:39Z</time>
      </trkpt>
      <trkpt lat="44.27427" lon="1.98673">
        <ele>340.9</ele>
        <time>2017-04-17T07:39:44Z</time>
      </trkpt>
      <trkpt lat="44.27417" lon="1.98643">
        <ele>339.4</ele>
        <time>2017-04-17T07:39:49Z</time>
      </trkpt>
      <trkpt lat="44.27415" lon="1.98617">
        <ele>331.2</ele>
        <time>2017-04-17T07:39:54Z</time>
      </trkpt>
      <trkpt lat="44.274" lon="1.98597">
        <ele>326.2</ele>
        <time>2017-04-17T07:39:59Z</time>
      </trkpt>
      <trkpt lat="44.27378" lon="1.98578">
        <ele>322.8</ele>
        <time>2017-04-17T07:40:04Z</time>
      </trkpt>
      <trkpt lat="44.27352" lon="1.98572">
        <ele>323.4</ele>
        <time>2017-04-17T07:40:09Z</time>
      </trkpt>
      <trkpt lat="44.27332" lon="1.98582">
        <ele>319.1</ele>
        <time>2017-04-17T07:40:14Z</time>
      </trkpt>
      <trkpt lat="44.27307" lon="1.98598">
        <ele>313.9</ele>
        <time>2017-04-17T07:40:19Z</time>
      </trkpt>
      <trkpt lat="44.27282" lon="1.98627">
        <ele>311.8</ele>
        <time>2017-04-17T07:40:24Z</time>
      </trkpt>
      <trkpt lat="44.2726" lon="1.98643">
        <ele>309.3</ele>
        <time>2017-04-17T07:40:29Z</time>
      </trkpt>
      <trkpt lat="44.27238" lon="1.9866">
        <ele>300.8</ele>
        <time>2017-04-17T07:40:34Z</time>
      </trkpt>
      <trkpt lat="44.27212" lon="1.98677">
        <ele>300</ele>
        <time>2017-04-17T07:40:39Z</time>
      </trkpt>
      <trkpt lat="44.27185" lon="1.98695">
        <ele>291.7</ele>
        <time>2017-04-17T07:40:44Z</time>
      </trkpt>
      <trkpt lat="44.27158" lon="1.9871">
        <ele>286.5</ele>
        <time>2017-04-17T07:40:49Z</time>
      </trkpt>
      <trkpt lat="44.27132" lon="1.98732">
        <ele>289.5</ele>
        <time>2017-04-17T07:40:54Z</time>
      </trkpt>
      <trkpt lat="44.27102" lon="1.9876">
        <ele>284.9</ele>
        <time>2017-04-17T07:40:59Z</time>
      </trkpt>
      <trkpt lat="44.27088" lon="1.9877">
        <ele>276.9</ele>
        <time>2017-04-17T07:41:04Z</time>
      </trkpt>
      <trkpt lat="44.27088" lon="1.98755">
        <ele>275</ele>
        <time>2017-04-17T07:41:09Z</time>
      </trkpt>
      <trkpt lat="44.27077" lon="1.98738">
        <ele>274.4</ele>
        <time>2017-04-17T07:41:14Z</time>
      </trkpt>
      <trkpt lat="44.27072" lon="1.98712">
        <ele>268.1</ele>
        <time>2017-04-17T07:41:19Z</time>
      </trkpt>
      <trkpt lat="44.2707" lon="1.98693">
        <ele>263.8</ele>
        <time>2017-04-17T07:41:24Z</time>
      </trkpt>
      <trkpt lat="44.27063" lon="1.98702">
        <ele>262.9</ele>
        <time>2017-04-17T07:41:29Z</time>
      </trkpt>
      <trkpt lat="44.27055" lon="1.98722">
        <ele>260.9</ele>
        <time>2017-04-17T07:41:34Z</time>
      </trkpt>
      <trkpt lat="44.27045" lon="1.98755">
        <ele>260</ele>
        <time>2017-04-17T07:41:39Z</time>
      </trkpt>
      <trkpt lat="44.27032" lon="1.98802">
        <ele>258</ele>
        <time>2017-04-17T07:41:44Z</time>
      </trkpt>
      <trkpt lat="44.27023" lon="1.98845">
        <ele>247.5</ele>
        <time>2017-04-17T07:41:49Z</time>
      </trkpt>
      <trkpt lat="44.27017" lon="1.98887">
        <ele>253.7</ele>
        <time>2017-04-17T07:41:54Z</time>
      </trkpt>
      <trkpt lat="44.2701" lon="1.98912">
        <ele>246</ele>
        <time>2017-04-17T07:41:59Z</time>
      </trkpt>
      <trkpt lat="44.2701" lon="1.98942">
        <ele>244.5</ele>
        <time>2017-04-17T07:42:04Z</time>
      </trkpt>
      <trkpt lat="44.27008" lon="1.98983">
        <ele>240.6</ele>
        <time>2017-04-17T07:42:09Z</time>
      </trkpt>
      <trkpt lat="44.2701" lon="1.99027">
        <ele>242.2</ele>
        <time>2017-04-17T07:42:14Z</time>
      </trkpt>
      <trkpt lat="44.27003" lon="1.99063">
        <ele>237.4</ele>
        <time>2017-04-17T07:42:19Z</time>
      </trkpt>
      <trkpt lat="44.26997" lon="1.99097">
        <ele>234.5</ele>
        <time>2017-04-17T07:42:24Z</time>
      </trkpt>
      <trkpt lat="44.26987" lon="1.99132">
        <ele>232.6</ele>
        <time>2017-04-17T07:42:29Z</time>
      </trkpt>
      <trkpt lat="44.26987" lon="1.99173">
        <ele>229.7</ele>
        <time>2017-04-17T07:42:34Z</time>
      </trkpt>
      <trkpt lat="44.26992" lon="1.9922">
        <ele>228.2</ele>
        <time>2017-04-17T07:42:39Z</time>
      </trkpt>
      <trkpt lat="44.26992" lon="1.99262">
        <ele>227.7</ele>
        <time>2017-04-17T07:42:44Z</time>
      </trkpt>
      <trkpt lat="44.2699" lon="1.99298">
        <ele>227.3</ele>
        <time>2017-04-17T07:42:49Z</time>
      </trkpt>
      <trkpt lat="44.26985" lon="1.99335">
        <ele>227.7</ele>
        <time>2017-04-17T07:42:54Z</time>
      </trkpt>
      <trkpt lat="44.26982" lon="1.9937">
        <ele>227.3</ele>
        <time>2017-04-17T07:42:59Z</time>
      </trkpt>
      <trkpt lat="44.26983" lon="1.99403">
        <ele>226.9</ele>
        <time>2017-04-17T07:43:04Z</time>
      </trkpt>
      <trkpt lat="44.26985" lon="1.99433">
        <ele>226.5</ele>
        <time>2017-04-17T07:43:09Z</time>
      </trkpt>
      <trkpt lat="44.26988" lon="1.9946">
        <ele>225.6</ele>
        <time>2017-04-17T07:43:14Z</time>
      </trkpt>
      <trkpt lat="44.26992" lon="1.9949">
        <ele>226</ele>
        <time>2017-04-17T07:43:19Z</time>
      </trkpt>
      <trkpt lat="44.26992" lon="1.99522">
        <ele>226.9</ele>
        <time>2017-04-17T07:43:24Z</time>
      </trkpt>
      <trkpt lat="44.26988" lon="1.99552">
        <ele>226.4</ele>
        <time>2017-04-17T07:43:29Z</time>
      </trkpt>
      <trkpt lat="44.26983" lon="1.99582">
        <ele>226.3</ele>
        <time>2017-04-17T07:43:34Z</time>
      </trkpt>
      <trkpt lat="44.2698" lon="1.99608">
        <ele>226.3</ele>
        <time>2017-04-17T07:43:39Z</time>
      </trkpt>
      <trkpt lat="44.2699" lon="1.99625">
        <ele>226.6</ele>
        <time>2017-04-17T07:43:44Z</time>
      </trkpt>
      <trkpt lat="44.27002" lon="1.99627">
        <ele>228.2</ele>
        <time>2017-04-17T07:43:49Z</time>
      </trkpt>
      <trkpt lat="44.27012" lon="1.99628">
        <ele>229</ele>
        <time>2017-04-17T07:43:54Z</time>
      </trkpt>
      <trkpt lat="44.27022" lon="1.9963">
        <ele>229.9</ele>
        <time>2017-04-17T07:43:59Z</time>
      </trkpt>
      <trkpt lat="44.27032" lon="1.99628">
        <ele>231.9</ele>
        <time>2017-04-17T07:44:04Z</time>
      </trkpt>
      <trkpt lat="44.27042" lon="1.99635">
        <ele>233.3</ele>
        <time>2017-04-17T07:44:09Z</time>
      </trkpt>
      <trkpt lat="44.27043" lon="1.99655">
        <ele>233.2</ele>
        <time>2017-04-17T07:44:14Z</time>
      </trkpt>
      <trkpt lat="44.27045" lon="1.99677">
        <ele>232.6</ele>
        <time>2017-04-17T07:44:19Z</time>
      </trkpt>
      <trkpt lat="44.27048" lon="1.99698">
        <ele>233.2</ele>
        <time>2017-04-17T07:44:24Z</time>
      </trkpt>
      <trkpt lat="44.27052" lon="1.99723">
        <ele>232.4</ele>
        <time>2017-04-17T07:44:29Z</time>
      </trkpt>
      <trkpt lat="44.27052" lon="1.99748">
        <ele>232.2</ele>
        <time>2017-04-17T07:44:34Z</time>
      </trkpt>
      <trkpt lat="44.27055" lon="1.99775">
        <ele>231.5</ele>
        <time>2017-04-17T07:44:39Z</time>
      </trkpt>
      <trkpt lat="44.27055" lon="1.99803">
        <ele>231.5</ele>
        <time>2017-04-17T07:44:44Z</time>
      </trkpt>
      <trkpt lat="44.27058" lon="1.99837">
        <ele>230.3</ele>
        <time>2017-04-17T07:44:49Z</time>
      </trkpt>
      <trkpt lat="44.27063" lon="1.99867">
        <ele>230.4</ele>
        <time>2017-04-17T07:44:54Z</time>
      </trkpt>
      <trkpt lat="44.27077" lon="1.9987">
        <ele>229.5</ele>
        <time>2017-04-17T07:44:59Z</time>
      </trkpt>
      <trkpt lat="44.2709" lon="1.99865">
        <ele>230.1</ele>
        <time>2017-04-17T07:45:04Z</time>
      </trkpt>
      <trkpt lat="44.27105" lon="1.9986">
        <ele>231</ele>
        <time>2017-04-17T07:45:09Z</time>
      </trkpt>
      <trkpt lat="44.27118" lon="1.99857">
        <ele>232</ele>
        <time>2017-04-17T07:45:14Z</time>
      </trkpt>
      <trkpt lat="44.2713" lon="1.99845">
        <ele>233.3</ele>
        <time>2017-04-17T07:45:19Z</time>
      </trkpt>
      <trkpt lat="44.27142" lon="1.99833">
        <ele>234.3</ele>
        <time>2017-04-17T07:45:24Z</time>
      </trkpt>
      <trkpt lat="44.2715" lon="1.9982">
        <ele>235.3</ele>
        <time>2017-04-17T07:45:29Z</time>
      </trkpt>
      <trkpt lat="44.27158" lon="1.99807">
        <ele>236.1</ele>
        <time>2017-04-17T07:45:34Z</time>
      </trkpt>
      <trkpt lat="44.27168" lon="1.99793">
        <ele>237.4</ele>
        <time>2017-04-17T07:45:39Z</time>
      </trkpt>
      <trkpt lat="44.27178" lon="1.99782">
        <ele>238</ele>
        <time>2017-04-17T07:45:44Z</time>
      </trkpt>
      <trkpt lat="44.27188" lon="1.9977">
        <ele>239.9</ele>
        <time>2017-04-17T07:45:49Z</time>
      </trkpt>
      <trkpt lat="44.27198" lon="1.99762">
        <ele>241.2</ele>
        <time>2017-04-17T07:45:54Z</time>
      </trkpt>
      <trkpt lat="44.27208" lon="1.9975">
        <ele>242.2</ele>
        <time>2017-04-17T07:45:59Z</time>
      </trkpt>
      <trkpt lat="44.27215" lon="1.9974">
        <ele>243.1</ele>
        <time>2017-04-17T07:46:04Z</time>
      </trkpt>
      <trkpt lat="44.27225" lon="1.99728">
        <ele>243.3</ele>
        <time>2017-04-17T07:46:09Z</time>
      </trkpt>
      <trkpt lat="44.27233" lon="1.9972">
        <ele>244.5</ele>
        <time>2017-04-17T07:46:14Z</time>
      </trkpt>
      <trkpt lat="44.27242" lon="1.9971">
        <ele>245.7</ele>
        <time>2017-04-17T07:46:19Z</time>
      </trkpt>
      <trkpt lat="44.2725" lon="1.99702">
        <ele>246.8</ele>
        <time>2017-04-17T07:46:24Z</time>
      </trkpt>
      <trkpt lat="44.2726" lon="1.99692">
        <ele>246.9</ele>
        <time>2017-04-17T07:46:29Z</time>
      </trkpt>
      <trkpt lat="44.2727" lon="1.99685">
        <ele>248.2</ele>
        <time>2017-04-17T07:46:34Z</time>
      </trkpt>
      <trkpt lat="44.2728" lon="1.99678">
        <ele>249</ele>
        <time>2017-04-17T07:46:39Z</time>
      </trkpt>
      <trkpt lat="44.2729" lon="1.99672">
        <ele>249.9</ele>
        <time>2017-04-17T07:46:44Z</time>
      </trkpt>
      <trkpt lat="44.273" lon="1.99665">
        <ele>250.2</ele>
        <time>2017-04-17T07:46:49Z</time>
      </trkpt>
      <trkpt lat="44.27308" lon="1.99657">
        <ele>251.2</ele>
        <time>2017-04-17T07:46:54Z</time>
      </trkpt>
      <trkpt lat="44.27317" lon="1.9965">
        <ele>252</ele>
        <time>2017-04-17T07:46:59Z</time>
      </trkpt>
      <trkpt lat="44.27327" lon="1.99643">
        <ele>252.8</ele>
        <time>2017-04-17T07:47:04Z</time>
      </trkpt>
      <trkpt lat="44.27335" lon="1.99633">
        <ele>253.2</ele>
        <time>2017-04-17T07:47:09Z</time>
      </trkpt>
      <trkpt lat="44.2734" lon="1.99625">
        <ele>254.2</ele>
        <time>2017-04-17T07:47:14Z</time>
      </trkpt>
      <trkpt lat="44.27347" lon="1.99615">
        <ele>254</ele>
        <time>2017-04-17T07:47:19Z</time>
      </trkpt>
      <trkpt lat="44.27353" lon="1.99605">
        <ele>255.5</ele>
        <time>2017-04-17T07:47:24Z</time>
      </trkpt>
      <trkpt lat="44.27358" lon="1.99595">
        <ele>255.5</ele>
        <time>2017-04-17T07:47:29Z</time>
      </trkpt>
      <trkpt lat="44.27363" lon="1.99583">
        <ele>256.4</ele>
        <time>2017-04-17T07:47:34Z</time>
      </trkpt>
      <trkpt lat="44.27368" lon="1.99573">
        <ele>256.8</ele>
        <time>2017-04-17T07:47:39Z</time>
      </trkpt>
      <trkpt lat="44.27375" lon="1.99563">
        <ele>258</ele>
        <time>2017-04-17T07:47:44Z</time>
      </trkpt>
      <trkpt lat="44.2738" lon="1.99553">
        <ele>259</ele>
        <time>2017-04-17T07:47:49Z</time>
      </trkpt>
      <trkpt lat="44.27387" lon="1.99543">
        <ele>260.1</ele>
        <time>2017-04-17T07:47:54Z</time>
      </trkpt>
      <trkpt lat="44.27392" lon="1.99533">
        <ele>260.8</ele>
        <time>2017-04-17T07:47:59Z</time>
      </trkpt>
      <trkpt lat="44.27398" lon="1.99527">
        <ele>261.3</ele>
        <time>2017-04-17T07:48:04Z</time>
      </trkpt>
      <trkpt lat="44.27407" lon="1.99522">
        <ele>262.3</ele>
        <time>2017-04-17T07:48:09Z</time>
      </trkpt>
      <trkpt lat="44.27417" lon="1.99517">
        <ele>262.9</ele>
        <time>2017-04-17T07:48:14Z</time>
      </trkpt>
      <trkpt lat="44.27425" lon="1.99512">
        <ele>263.9</ele>
        <time>2017-04-17T07:48:19Z</time>
      </trkpt>
      <trkpt lat="44.27433" lon="1.99508">
        <ele>263.8</ele>
        <time>2017-04-17T07:48:24Z</time>
      </trkpt>
      <trkpt lat="44.27442" lon="1.99502">
        <ele>265.7</ele>
        <time>2017-04-17T07:48:29Z</time>
      </trkpt>
      <trkpt lat="44.27448" lon="1.99497">
        <ele>266.4</ele>
        <time>2017-04-17T07:48:34Z</time>
      </trkpt>
      <trkpt lat="44.27455" lon="1.9949">
        <ele>267.5</ele>
        <time>2017-04-17T07:48:39Z</time>
      </trkpt>
      <trkpt lat="44.27462" lon="1.99482">
        <ele>267.8</ele>
        <time>2017-04-17T07:48:44Z</time>
      </trkpt>
      <trkpt lat="44.2747" lon="1.99477">
        <ele>269.3</ele>
        <time>2017-04-17T07:48:49Z</time>
      </trkpt>
      <trkpt lat="44.27478" lon="1.9947">
        <ele>270.2</ele>
        <time>2017-04-17T07:48:54Z</time>
      </trkpt>
      <trkpt lat="44.27487" lon="1.99468">
        <ele>271.1</ele>
        <time>2017-04-17T07:48:59Z</time>
      </trkpt>
      <trkpt lat="44.27495" lon="1.99465">
        <ele>271.7</ele>
        <time>2017-04-17T07:49:04Z</time>
      </trkpt>
      <trkpt lat="44.27502" lon="1.99463">
        <ele>272.8</ele>
        <time>2017-04-17T07:49:09Z</time>
      </trkpt>
      <trkpt lat="44.2751" lon="1.9946">
        <ele>272</ele>
        <time>2017-04-17T07:49:14Z</time>
      </trkpt>
      <trkpt lat="44.27518" lon="1.99458">
        <ele>273</ele>
        <time>2017-04-17T07:49:19Z</time>
      </trkpt>
      <trkpt lat="44.27527" lon="1.99455">
        <ele>274.4</ele>
        <time>2017-04-17T07:49:24Z</time>
      </trkpt>
      <trkpt lat="44.27535" lon="1.9945">
        <ele>275.2</ele>
        <time>2017-04-17T07:49:29Z</time>
      </trkpt>
      <trkpt lat="44.27542" lon="1.99447">
        <ele>275.9</ele>
        <time>2017-04-17T07:49:34Z</time>
      </trkpt>
      <trkpt lat="44.2755" lon="1.99443">
        <ele>277</ele>
        <time>2017-04-17T07:49:39Z</time>
      </trkpt>
      <trkpt lat="44.27558" lon="1.99442">
        <ele>277.3</ele>
        <time>2017-04-17T07:49:44Z</time>
      </trkpt>
      <trkpt lat="44.27565" lon="1.99437">
        <ele>278</ele>
        <time>2017-04-17T07:49:49Z</time>
      </trkpt>
      <trkpt lat="44.27573" lon="1.99432">
        <ele>278.6</ele>
        <time>2017-04-17T07:49:54Z</time>
      </trkpt>
      <trkpt lat="44.2758" lon="1.99427">
        <ele>279.4</ele>
        <time>2017-04-17T07:49:59Z</time>
      </trkpt>
      <trkpt lat="44.2759" lon="1.9942">
        <ele>280.2</ele>
        <time>2017-04-17T07:50:04Z</time>
      </trkpt>
      <trkpt lat="44.27597" lon="1.99413">
        <ele>280.5</ele>
        <time>2017-04-17T07:50:09Z</time>
      </trkpt>
      <trkpt lat="44.27605" lon="1.99407">
        <ele>281.5</ele>
        <time>2017-04-17T07:50:14Z</time>
      </trkpt>
      <trkpt lat="44.27612" lon="1.99398">
        <ele>282.5</ele>
        <time>2017-04-17T07:50:19Z</time>
      </trkpt>
      <trkpt lat="44.27617" lon="1.9939">
        <ele>283.4</ele>
        <time>2017-04-17T07:50:24Z</time>
      </trkpt>
      <trkpt lat="44.27622" lon="1.99382">
        <ele>284.5</ele>
        <time>2017-04-17T07:50:29Z</time>
      </trkpt>
      <trkpt lat="44.27627" lon="1.99373">
        <ele>285.3</ele>
        <time>2017-04-17T07:50:34Z</time>
      </trkpt>
      <trkpt lat="44.27632" lon="1.99363">
        <ele>286.8</ele>
        <time>2017-04-17T07:50:39Z</time>
      </trkpt>
      <trkpt lat="44.27637" lon="1.99355">
        <ele>287.1</ele>
        <time>2017-04-17T07:50:44Z</time>
      </trkpt>
      <trkpt lat="44.27643" lon="1.99345">
        <ele>288.5</ele>
        <time>2017-04-17T07:50:49Z</time>
      </trkpt>
      <trkpt lat="44.27648" lon="1.99338">
        <ele>289.6</ele>
        <time>2017-04-17T07:50:54Z</time>
      </trkpt>
      <trkpt lat="44.27653" lon="1.9933">
        <ele>290.2</ele>
        <time>2017-04-17T07:50:59Z</time>
      </trkpt>
      <trkpt lat="44.2766" lon="1.9932">
        <ele>290.7</ele>
        <time>2017-04-17T07:51:04Z</time>
      </trkpt>
      <trkpt lat="44.27665" lon="1.99312">
        <ele>291.5</ele>
        <time>2017-04-17T07:51:09Z</time>
      </trkpt>
      <trkpt lat="44.27672" lon="1.99305">
        <ele>292.4</ele>
        <time>2017-04-17T07:51:14Z</time>
      </trkpt>
      <trkpt lat="44.27677" lon="1.99297">
        <ele>293.5</ele>
        <time>2017-04-17T07:51:19Z</time>
      </trkpt>
      <trkpt lat="44.27682" lon="1.99287">
        <ele>293.3</ele>
        <time>2017-04-17T07:51:24Z</time>
      </trkpt>
      <trkpt lat="44.27685" lon="1.99277">
        <ele>294.8</ele>
        <time>2017-04-17T07:51:29Z</time>
      </trkpt>
      <trkpt lat="44.2769" lon="1.99265">
        <ele>295.5</ele>
        <time>2017-04-17T07:51:34Z</time>
      </trkpt>
      <trkpt lat="44.27695" lon="1.99252">
        <ele>295</ele>
        <time>2017-04-17T07:51:39Z</time>
      </trkpt>
      <trkpt lat="44.27698" lon="1.99237">
        <ele>295.3</ele>
        <time>2017-04-17T07:51:44Z</time>
      </trkpt>
      <trkpt lat="44.27705" lon="1.99223">
        <ele>294.6</ele>
        <time>2017-04-17T07:51:49Z</time>
      </trkpt>
      <trkpt lat="44.27712" lon="1.99212">
        <ele>295.5</ele>
        <time>2017-04-17T07:51:54Z</time>
      </trkpt>
      <trkpt lat="44.27722" lon="1.99203">
        <ele>295.5</ele>
        <time>2017-04-17T07:51:59Z</time>
      </trkpt>
      <trkpt lat="44.27732" lon="1.992">
        <ele>296.2</ele>
        <time>2017-04-17T07:52:04Z</time>
      </trkpt>
      <trkpt lat="44.27742" lon="1.992">
        <ele>296.8</ele>
        <time>2017-04-17T07:52:09Z</time>
      </trkpt>
      <trkpt lat="44.27753" lon="1.992">
        <ele>297.2</ele>
        <time>2017-04-17T07:52:14Z</time>
      </trkpt>
      <trkpt lat="44.27763" lon="1.992">
        <ele>298.2</ele>
        <time>2017-04-17T07:52:19Z</time>
      </trkpt>
      <trkpt lat="44.27773" lon="1.99197">
        <ele>299.2</ele>
        <time>2017-04-17T07:52:24Z</time>
      </trkpt>
      <trkpt lat="44.27783" lon="1.99192">
        <ele>300.2</ele>
        <time>2017-04-17T07:52:29Z</time>
      </trkpt>
      <trkpt lat="44.27795" lon="1.99187">
        <ele>300.9</ele>
        <time>2017-04-17T07:52:34Z</time>
      </trkpt>
      <trkpt lat="44.27805" lon="1.9918">
        <ele>301.4</ele>
        <time>2017-04-17T07:52:39Z</time>
      </trkpt>
      <trkpt lat="44.27815" lon="1.99173">
        <ele>302.2</ele>
        <time>2017-04-17T07:52:44Z</time>
      </trkpt>
      <trkpt lat="44.27825" lon="1.99168">
        <ele>302.7</ele>
        <time>2017-04-17T07:52:49Z</time>
      </trkpt>
      <trkpt lat="44.27833" lon="1.9916">
        <ele>304</ele>
        <time>2017-04-17T07:52:54Z</time>
      </trkpt>
      <trkpt lat="44.27843" lon="1.99153">
        <ele>304.4</ele>
        <time>2017-04-17T07:52:59Z</time>
      </trkpt>
      <trkpt lat="44.27852" lon="1.99145">
        <ele>304.3</ele>
        <time>2017-04-17T07:53:04Z</time>
      </trkpt>
      <trkpt lat="44.2786" lon="1.99138">
        <ele>305.1</ele>
        <time>2017-04-17T07:53:09Z</time>
      </trkpt>
      <trkpt lat="44.27868" lon="1.9913">
        <ele>306</ele>
        <time>2017-04-17T07:53:14Z</time>
      </trkpt>
      <trkpt lat="44.27878" lon="1.99123">
        <ele>306.1</ele>
        <time>2017-04-17T07:53:19Z</time>
      </trkpt>
      <trkpt lat="44.27887" lon="1.99115">
        <ele>306</ele>
        <time>2017-04-17T07:53:24Z</time>
      </trkpt>
      <trkpt lat="44.279" lon="1.99108">
        <ele>306.8</ele>
        <time>2017-04-17T07:53:29Z</time>
      </trkpt>
      <trkpt lat="44.27912" lon="1.991">
        <ele>306.6</ele>
        <time>2017-04-17T07:53:34Z</time>
      </trkpt>
      <trkpt lat="44.27925" lon="1.99092">
        <ele>307.2</ele>
        <time>2017-04-17T07:53:39Z</time>
      </trkpt>
      <trkpt lat="44.27938" lon="1.99082">
        <ele>306.7</ele>
        <time>2017-04-17T07:53:44Z</time>
      </trkpt>
      <trkpt lat="44.2795" lon="1.99073">
        <ele>307.9</ele>
        <time>2017-04-17T07:53:49Z</time>
      </trkpt>
      <trkpt lat="44.27962" lon="1.99068">
        <ele>308.2</ele>
        <time>2017-04-17T07:53:54Z</time>
      </trkpt>
      <trkpt lat="44.27973" lon="1.99062">
        <ele>309.9</ele>
        <time>2017-04-17T07:53:59Z</time>
      </trkpt>
      <trkpt lat="44.27985" lon="1.99055">
        <ele>310.4</ele>
        <time>2017-04-17T07:54:04Z</time>
      </trkpt>
      <trkpt lat="44.27997" lon="1.99048">
        <ele>311.6</ele>
        <time>2017-04-17T07:54:09Z</time>
      </trkpt>
      <trkpt lat="44.28008" lon="1.99045">
        <ele>311.1</ele>
        <time>2017-04-17T07:54:14Z</time>
      </trkpt>
      <trkpt lat="44.28022" lon="1.9904">
        <ele>311.3</ele>
        <time>2017-04-17T07:54:19Z</time>
      </trkpt>
      <trkpt lat="44.28035" lon="1.99037">
        <ele>312.9</ele>
        <time>2017-04-17T07:54:24Z</time>
      </trkpt>
      <trkpt lat="44.28048" lon="1.99033">
        <ele>312.9</ele>
        <time>2017-04-17T07:54:29Z</time>
      </trkpt>
      <trkpt lat="44.2806" lon="1.99033">
        <ele>313.9</ele>
        <time>2017-04-17T07:54:34Z</time>
      </trkpt>
      <trkpt lat="44.28073" lon="1.99028">
        <ele>314.7</ele>
        <time>2017-04-17T07:54:39Z</time>
      </trkpt>
      <trkpt lat="44.28083" lon="1.99025">
        <ele>316</ele>
        <time>2017-04-17T07:54:44Z</time>
      </trkpt>
      <trkpt lat="44.28093" lon="1.9902">
        <ele>317.2</ele>
        <time>2017-04-17T07:54:49Z</time>
      </trkpt>
      <trkpt lat="44.28102" lon="1.99017">
        <ele>317.9</ele>
        <time>2017-04-17T07:54:54Z</time>
      </trkpt>
      <trkpt lat="44.28112" lon="1.99012">
        <ele>319.1</ele>
        <time>2017-04-17T07:54:59Z</time>
      </trkpt>
      <trkpt lat="44.28118" lon="1.99008">
        <ele>320.5</ele>
        <time>2017-04-17T07:55:04Z</time>
      </trkpt>
      <trkpt lat="44.28128" lon="1.99005">
        <ele>320.9</ele>
        <time>2017-04-17T07:55:09Z</time>
      </trkpt>
      <trkpt lat="44.28135" lon="1.99002">
        <ele>322.4</ele>
        <time>2017-04-17T07:55:14Z</time>
      </trkpt>
      <trkpt lat="44.28143" lon="1.99">
        <ele>323.2</ele>
        <time>2017-04-17T07:55:19Z</time>
      </trkpt>
      <trkpt lat="44.28152" lon="1.98998">
        <ele>323.7</ele>
        <time>2017-04-17T07:55:24Z</time>
      </trkpt>
      <trkpt lat="44.2816" lon="1.98998">
        <ele>324.6</ele>
        <time>2017-04-17T07:55:29Z</time>
      </trkpt>
      <trkpt lat="44.28167" lon="1.98997">
        <ele>325.8</ele>
        <time>2017-04-17T07:55:34Z</time>
      </trkpt>
      <trkpt lat="44.28173" lon="1.98997">
        <ele>327.2</ele>
        <time>2017-04-17T07:55:39Z</time>
      </trkpt>
      <trkpt lat="44.2818" lon="1.98995">
        <ele>328.2</ele>
        <time>2017-04-17T07:55:44Z</time>
      </trkpt>
      <trkpt lat="44.28187" lon="1.98995">
        <ele>329.1</ele>
        <time>2017-04-17T07:55:49Z</time>
      </trkpt>
      <trkpt lat="44.28193" lon="1.98997">
        <ele>330.4</ele>
        <time>2017-04-17T07:55:54Z</time>
      </trkpt>
      <trkpt lat="44.282" lon="1.98995">
        <ele>330.9</ele>
        <time>2017-04-17T07:55:59Z</time>
      </trkpt>
      <trkpt lat="44.28207" lon="1.98995">
        <ele>332.3</ele>
        <time>2017-04-17T07:56:04Z</time>
      </trkpt>
      <trkpt lat="44.28213" lon="1.98995">
        <ele>333.6</ele>
        <time>2017-04-17T07:56:09Z</time>
      </trkpt>
      <trkpt lat="44.28218" lon="1.98995">
        <ele>334.7</ele>
        <time>2017-04-17T07:56:14Z</time>
      </trkpt>
      <trkpt lat="44.28227" lon="1.98997">
        <ele>334.8</ele>
        <time>2017-04-17T07:56:19Z</time>
      </trkpt>
      <trkpt lat="44.28232" lon="1.98997">
        <ele>335.8</ele>
        <time>2017-04-17T07:56:24Z</time>
      </trkpt>
      <trkpt lat="44.2824" lon="1.98997">
        <ele>336.9</ele>
        <time>2017-04-17T07:56:29Z</time>
      </trkpt>
      <trkpt lat="44.28247" lon="1.98997">
        <ele>337.3</ele>
        <time>2017-04-17T07:56:34Z</time>
      </trkpt>
      <trkpt lat="44.28255" lon="1.98997">
        <ele>338.5</ele>
        <time>2017-04-17T07:56:39Z</time>
      </trkpt>
      <trkpt lat="44.28263" lon="1.98998">
        <ele>338.6</ele>
        <time>2017-04-17T07:56:44Z</time>
      </trkpt>
      <trkpt lat="44.28272" lon="1.98998">
        <ele>339.5</ele>
        <time>2017-04-17T07:56:49Z</time>
      </trkpt>
      <trkpt lat="44.28282" lon="1.98997">
        <ele>340.1</ele>
        <time>2017-04-17T07:56:54Z</time>
      </trkpt>
      <trkpt lat="44.28292" lon="1.98997">
        <ele>341.2</ele>
        <time>2017-04-17T07:56:59Z</time>
      </trkpt>
      <trkpt lat="44.28305" lon="1.98997">
        <ele>341.9</ele>
        <time>2017-04-17T07:57:04Z</time>
      </trkpt>
      <trkpt lat="44.2832" lon="1.98997">
        <ele>340.8</ele>
        <time>2017-04-17T07:57:09Z</time>
      </trkpt>
      <trkpt lat="44.28335" lon="1.98998">
        <ele>342.5</ele>
        <time>2017-04-17T07:57:14Z</time>
      </trkpt>
      <trkpt lat="44.2835" lon="1.98998">
        <ele>342</ele>
        <time>2017-04-17T07:57:19Z</time>
      </trkpt>
      <trkpt lat="44.2837" lon="1.98998">
        <ele>341.1</ele>
        <time>2017-04-17T07:57:24Z</time>
      </trkpt>
      <trkpt lat="44.2839" lon="1.99002">
        <ele>341.5</ele>
        <time>2017-04-17T07:57:29Z</time>
      </trkpt>
      <trkpt lat="44.2841" lon="1.99005">
        <ele>340.3</ele>
        <time>2017-04-17T07:57:34Z</time>
      </trkpt>
      <trkpt lat="44.28427" lon="1.99012">
        <ele>341.2</ele>
        <time>2017-04-17T07:57:39Z</time>
      </trkpt>
      <trkpt lat="44.28445" lon="1.99017">
        <ele>340.9</ele>
        <time>2017-04-17T07:57:44Z</time>
      </trkpt>
      <trkpt lat="44.28465" lon="1.9902">
        <ele>341.2</ele>
        <time>2017-04-17T07:57:49Z</time>
      </trkpt>
      <trkpt lat="44.2848" lon="1.99013">
        <ele>341.2</ele>
        <time>2017-04-17T07:57:54Z</time>
      </trkpt>
      <trkpt lat="44.28495" lon="1.99002">
        <ele>342.2</ele>
        <time>2017-04-17T07:57:59Z</time>
      </trkpt>
      <trkpt lat="44.28508" lon="1.98988">
        <ele>341</ele>
        <time>2017-04-17T07:58:04Z</time>
      </trkpt>
      <trkpt lat="44.28523" lon="1.98973">
        <ele>341.5</ele>
        <time>2017-04-17T07:58:09Z</time>
      </trkpt>
      <trkpt lat="44.2854" lon="1.98957">
        <ele>340.3</ele>
        <time>2017-04-17T07:58:14Z</time>
      </trkpt>
      <trkpt lat="44.28562" lon="1.98932">
        <ele>337.1</ele>
        <time>2017-04-17T07:58:19Z</time>
      </trkpt>
      <trkpt lat="44.28583" lon="1.98902">
        <ele>338.9</ele>
        <time>2017-04-17T07:58:24Z</time>
      </trkpt>
      <trkpt lat="44.28607" lon="1.98878">
        <ele>333.2</ele>
        <time>2017-04-17T07:58:29Z</time>
      </trkpt>
      <trkpt lat="44.28628" lon="1.98857">
        <ele>328.9</ele>
        <time>2017-04-17T07:58:34Z</time>
      </trkpt>
      <trkpt lat="44.28645" lon="1.98853">
        <ele>327</ele>
        <time>2017-04-17T07:58:39Z</time>
      </trkpt>
      <trkpt lat="44.28667" lon="1.98882">
        <ele>326.2</ele>
        <time>2017-04-17T07:58:44Z</time>
      </trkpt>
      <trkpt lat="44.28693" lon="1.98925">
        <ele>319.8</ele>
        <time>2017-04-17T07:58:49Z</time>
      </trkpt>
      <trkpt lat="44.28718" lon="1.98965">
        <ele>315.1</ele>
        <time>2017-04-17T07:58:54Z</time>
      </trkpt>
      <trkpt lat="44.28718" lon="1.99017">
        <ele>312</ele>
        <time>2017-04-17T07:58:59Z</time>
      </trkpt>
      <trkpt lat="44.28718" lon="1.99078">
        <ele>306.7</ele>
        <time>2017-04-17T07:59:04Z</time>
      </trkpt>
      <trkpt lat="44.28732" lon="1.99138">
        <ele>301.6</ele>
        <time>2017-04-17T07:59:09Z</time>
      </trkpt>
      <trkpt lat="44.28748" lon="1.99197">
        <ele>293.7</ele>
        <time>2017-04-17T07:59:14Z</time>
      </trkpt>
      <trkpt lat="44.28768" lon="1.99248">
        <ele>290.1</ele>
        <time>2017-04-17T07:59:19Z</time>
      </trkpt>
      <trkpt lat="44.2879" lon="1.99307">
        <ele>285.9</ele>
        <time>2017-04-17T07:59:24Z</time>
      </trkpt>
      <trkpt lat="44.28785" lon="1.9937">
        <ele>282.5</ele>
        <time>2017-04-17T07:59:29Z</time>
      </trkpt>
      <trkpt lat="44.28767" lon="1.99435">
        <ele>278.4</ele>
        <time>2017-04-17T07:59:34Z</time>
      </trkpt>
      <trkpt lat="44.28752" lon="1.99495">
        <ele>268.5</ele>
        <time>2017-04-17T07:59:39Z</time>
      </trkpt>
      <trkpt lat="44.28737" lon="1.99565">
        <ele>262.7</ele>
        <time>2017-04-17T07:59:44Z</time>
      </trkpt>
      <trkpt lat="44.2873" lon="1.99625">
        <ele>255.8</ele>
        <time>2017-04-17T07:59:49Z</time>
      </trkpt>
      <trkpt lat="44.28738" lon="1.99692">
        <ele>250.9</ele>
        <time>2017-04-17T07:59:54Z</time>
      </trkpt>
      <trkpt lat="44.28742" lon="1.9976">
        <ele>243.7</ele>
        <time>2017-04-17T07:59:59Z</time>
      </trkpt>
      <trkpt lat="44.28725" lon="1.99815">
        <ele>240.8</ele>
        <time>2017-04-17T08:00:04Z</time>
      </trkpt>
      <trkpt lat="44.28693" lon="1.99843">
        <ele>237.6</ele>
        <time>2017-04-17T08:00:09Z</time>
      </trkpt>
      <trkpt lat="44.28672" lon="1.9986">
        <ele>233.2</ele>
        <time>2017-04-17T08:00:14Z</time>
      </trkpt>
      <trkpt lat="44.28672" lon="1.99888">
        <ele>232.5</ele>
        <time>2017-04-17T08:00:19Z</time>
      </trkpt>
      <trkpt lat="44.28675" lon="1.99923">
        <ele>232.5</ele>
        <time>2017-04-17T08:00:24Z</time>
      </trkpt>
      <trkpt lat="44.28685" lon="1.99957">
        <ele>232</ele>
        <time>2017-04-17T08:00:29Z</time>
      </trkpt>
      <trkpt lat="44.28692" lon="1.99992">
        <ele>230.6</ele>
        <time>2017-04-17T08:00:34Z</time>
      </trkpt>
      <trkpt lat="44.28677" lon="2.00022">
        <ele>229.8</ele>
        <time>2017-04-17T08:00:39Z</time>
      </trkpt>
      <trkpt lat="44.28655" lon="2.00045">
        <ele>229.6</ele>
        <time>2017-04-17T08:00:44Z</time>
      </trkpt>
      <trkpt lat="44.28635" lon="2.00068">
        <ele>229.1</ele>
        <time>2017-04-17T08:00:49Z</time>
      </trkpt>
      <trkpt lat="44.2862" lon="2.00093">
        <ele>229.4</ele>
        <time>2017-04-17T08:00:54Z</time>
      </trkpt>
      <trkpt lat="44.28608" lon="2.00113">
        <ele>230.3</ele>
        <time>2017-04-17T08:00:59Z</time>
      </trkpt>
      <trkpt lat="44.28592" lon="2.00127">
        <ele>231.2</ele>
        <time>2017-04-17T08:01:04Z</time>
      </trkpt>
      <trkpt lat="44.28577" lon="2.00137">
        <ele>232.3</ele>
        <time>2017-04-17T08:01:09Z</time>
      </trkpt>
      <trkpt lat="44.28558" lon="2.00148">
        <ele>232.1</ele>
        <time>2017-04-17T08:01:14Z</time>
      </trkpt>
      <trkpt lat="44.28537" lon="2.00155">
        <ele>231.6</ele>
        <time>2017-04-17T08:01:19Z</time>
      </trkpt>
      <trkpt lat="44.28507" lon="2.00147">
        <ele>230.1</ele>
        <time>2017-04-17T08:01:24Z</time>
      </trkpt>
      <trkpt lat="44.28482" lon="2.00138">
        <ele>230.6</ele>
        <time>2017-04-17T08:01:29Z</time>
      </trkpt>
      <trkpt lat="44.28468" lon="2.00132">
        <ele>230.4</ele>
        <time>2017-04-17T08:01:34Z</time>
      </trkpt>
      <trkpt lat="44.28458" lon="2.00128">
        <ele>232</ele>
        <time>2017-04-17T08:01:39Z</time>
      </trkpt>
      <trkpt lat="44.28448" lon="2.00127">
        <ele>233.1</ele>
        <time>2017-04-17T08:01:44Z</time>
      </trkpt>
      <trkpt lat="44.28438" lon="2.00127">
        <ele>233.8</ele>
        <time>2017-04-17T08:01:49Z</time>
      </trkpt>
      <trkpt lat="44.28428" lon="2.00132">
        <ele>235.4</ele>
        <time>2017-04-17T08:01:54Z</time>
      </trkpt>
      <trkpt lat="44.28422" lon="2.00137">
        <ele>236.4</ele>
        <time>2017-04-17T08:01:59Z</time>
      </trkpt>
      <trkpt lat="44.28415" lon="2.00147">
        <ele>237.2</ele>
        <time>2017-04-17T08:02:04Z</time>
      </trkpt>
      <trkpt lat="44.28412" lon="2.00155">
        <ele>237.7</ele>
        <time>2017-04-17T08:02:09Z</time>
      </trkpt>
      <trkpt lat="44.28407" lon="2.00167">
        <ele>238.6</ele>
        <time>2017-04-17T08:02:14Z</time>
      </trkpt>
      <trkpt lat="44.28403" lon="2.00178">
        <ele>240</ele>
        <time>2017-04-17T08:02:19Z</time>
      </trkpt>
      <trkpt lat="44.284" lon="2.0019">
        <ele>240.4</ele>
        <time>2017-04-17T08:02:24Z</time>
      </trkpt>
      <trkpt lat="44.28395" lon="2.00202">
        <ele>241.2</ele>
        <time>2017-04-17T08:02:29Z</time>
      </trkpt>
      <trkpt lat="44.28392" lon="2.00215">
        <ele>242.2</ele>
        <time>2017-04-17T08:02:34Z</time>
      </trkpt>
      <trkpt lat="44.28388" lon="2.00227">
        <ele>243.3</ele>
        <time>2017-04-17T08:02:39Z</time>
      </trkpt>
      <trkpt lat="44.28383" lon="2.0024">
        <ele>244.2</ele>
        <time>2017-04-17T08:02:44Z</time>
      </trkpt>
      <trkpt lat="44.28378" lon="2.00252">
        <ele>245.5</ele>
        <time>2017-04-17T08:02:49Z</time>
      </trkpt>
      <trkpt lat="44.28375" lon="2.00265">
        <ele>245.6</ele>
        <time>2017-04-17T08:02:54Z</time>
      </trkpt>
      <trkpt lat="44.28367" lon="2.00287">
        <ele>245.2</ele>
        <time>2017-04-17T08:02:59Z</time>
      </trkpt>
      <trkpt lat="44.2836" lon="2.0031">
        <ele>245.2</ele>
        <time>2017-04-17T08:03:04Z</time>
      </trkpt>
      <trkpt lat="44.28353" lon="2.00332">
        <ele>245.1</ele>
        <time>2017-04-17T08:03:09Z</time>
      </trkpt>
      <trkpt lat="44.28348" lon="2.00355">
        <ele>244.4</ele>
        <time>2017-04-17T08:03:14Z</time>
      </trkpt>
      <trkpt lat="44.2834" lon="2.00375">
        <ele>245.2</ele>
        <time>2017-04-17T08:03:19Z</time>
      </trkpt>
      <trkpt lat="44.2833" lon="2.00392">
        <ele>245.3</ele>
        <time>2017-04-17T08:03:24Z</time>
      </trkpt>
      <trkpt lat="44.28325" lon="2.00408">
        <ele>246.4</ele>
        <time>2017-04-17T08:03:29Z</time>
      </trkpt>
      <trkpt lat="44.28322" lon="2.00425">
        <ele>247.4</ele>
        <time>2017-04-17T08:03:34Z</time>
      </trkpt>
      <trkpt lat="44.28322" lon="2.00442">
        <ele>248.4</ele>
        <time>2017-04-17T08:03:39Z</time>
      </trkpt>
      <trkpt lat="44.28332" lon="2.0045">
        <ele>248.9</ele>
        <time>2017-04-17T08:03:44Z</time>
      </trkpt>
      <trkpt lat="44.2834" lon="2.00452">
        <ele>250</ele>
        <time>2017-04-17T08:03:49Z</time>
      </trkpt>
      <trkpt lat="44.2835" lon="2.0045">
        <ele>250.4</ele>
        <time>2017-04-17T08:03:54Z</time>
      </trkpt>
      <trkpt lat="44.28362" lon="2.00445">
        <ele>250.3</ele>
        <time>2017-04-17T08:03:59Z</time>
      </trkpt>
      <trkpt lat="44.28373" lon="2.00442">
        <ele>251</ele>
        <time>2017-04-17T08:04:04Z</time>
      </trkpt>
      <trkpt lat="44.28387" lon="2.00442">
        <ele>251</ele>
        <time>2017-04-17T08:04:09Z</time>
      </trkpt>
      <trkpt lat="44.28402" lon="2.00443">
        <ele>251.1</ele>
        <time>2017-04-17T08:04:14Z</time>
      </trkpt>
      <trkpt lat="44.28415" lon="2.00447">
        <ele>251.6</ele>
        <time>2017-04-17T08:04:19Z</time>
      </trkpt>
      <trkpt lat="44.28427" lon="2.00453">
        <ele>252.3</ele>
        <time>2017-04-17T08:04:24Z</time>
      </trkpt>
      <trkpt lat="44.2844" lon="2.0046">
        <ele>253.4</ele>
        <time>2017-04-17T08:04:29Z</time>
      </trkpt>
      <trkpt lat="44.28452" lon="2.00468">
        <ele>254.5</ele>
        <time>2017-04-17T08:04:34Z</time>
      </trkpt>
      <trkpt lat="44.28463" lon="2.00475">
        <ele>255.3</ele>
        <time>2017-04-17T08:04:39Z</time>
      </trkpt>
      <trkpt lat="44.28473" lon="2.00478">
        <ele>256.2</ele>
        <time>2017-04-17T08:04:44Z</time>
      </trkpt>
      <trkpt lat="44.28483" lon="2.00482">
        <ele>257.8</ele>
        <time>2017-04-17T08:04:49Z</time>
      </trkpt>
      <trkpt lat="44.28492" lon="2.00485">
        <ele>258.6</ele>
        <time>2017-04-17T08:04:54Z</time>
      </trkpt>
      <trkpt lat="44.285" lon="2.00492">
        <ele>259.4</ele>
        <time>2017-04-17T08:04:59Z</time>
      </trkpt>
      <trkpt lat="44.28505" lon="2.00505">
        <ele>260</ele>
        <time>2017-04-17T08:05:04Z</time>
      </trkpt>
      <trkpt lat="44.2851" lon="2.00518">
        <ele>260.8</ele>
        <time>2017-04-17T08:05:09Z</time>
      </trkpt>
      <trkpt lat="44.28513" lon="2.0053">
        <ele>261.8</ele>
        <time>2017-04-17T08:05:14Z</time>
      </trkpt>
      <trkpt lat="44.28517" lon="2.00542">
        <ele>261.9</ele>
        <time>2017-04-17T08:05:19Z</time>
      </trkpt>
      <trkpt lat="44.28523" lon="2.00553">
        <ele>262.4</ele>
        <time>2017-04-17T08:05:24Z</time>
      </trkpt>
      <trkpt lat="44.28528" lon="2.00565">
        <ele>263.1</ele>
        <time>2017-04-17T08:05:29Z</time>
      </trkpt>
      <trkpt lat="44.28537" lon="2.00577">
        <ele>264.5</ele>
        <time>2017-04-17T08:05:34Z</time>
      </trkpt>
      <trkpt lat="44.28543" lon="2.0059">
        <ele>264.9</ele>
        <time>2017-04-17T08:05:39Z</time>
      </trkpt>
      <trkpt lat="44.2855" lon="2.00602">
        <ele>266.1</ele>
        <time>2017-04-17T08:05:44Z</time>
      </trkpt>
      <trkpt lat="44.28557" lon="2.00613">
        <ele>266</ele>
        <time>2017-04-17T08:05:49Z</time>
      </trkpt>
      <trkpt lat="44.28565" lon="2.00627">
        <ele>266.8</ele>
        <time>2017-04-17T08:05:54Z</time>
      </trkpt>
      <trkpt lat="44.28572" lon="2.00638">
        <ele>267.1</ele>
        <time>2017-04-17T08:05:59Z</time>
      </trkpt>
      <trkpt lat="44.2858" lon="2.0065">
        <ele>267.7</ele>
        <time>2017-04-17T08:06:04Z</time>
      </trkpt>
      <trkpt lat="44.28588" lon="2.00662">
        <ele>267.4</ele>
        <time>2017-04-17T08:06:09Z</time>
      </trkpt>
      <trkpt lat="44.28597" lon="2.00672">
        <ele>267.3</ele>
        <time>2017-04-17T08:06:14Z</time>
      </trkpt>
      <trkpt lat="44.28605" lon="2.00687">
        <ele>267.6</ele>
        <time>2017-04-17T08:06:19Z</time>
      </trkpt>
      <trkpt lat="44.2862" lon="2.0071">
        <ele>267.6</ele>
        <time>2017-04-17T08:06:24Z</time>
      </trkpt>
      <trkpt lat="44.28637" lon="2.00742">
        <ele>266.5</ele>
        <time>2017-04-17T08:06:29Z</time>
      </trkpt>
      <trkpt lat="44.28655" lon="2.00782">
        <ele>266</ele>
        <time>2017-04-17T08:06:34Z</time>
      </trkpt>
      <trkpt lat="44.28673" lon="2.0082">
        <ele>263.4</ele>
        <time>2017-04-17T08:06:39Z</time>
      </trkpt>
      <trkpt lat="44.28698" lon="2.0086">
        <ele>262.3</ele>
        <time>2017-04-17T08:06:44Z</time>
      </trkpt>
      <trkpt lat="44.28728" lon="2.00902">
        <ele>259.9</ele>
        <time>2017-04-17T08:06:49Z</time>
      </trkpt>
      <trkpt lat="44.28762" lon="2.00942">
        <ele>258.7</ele>
        <time>2017-04-17T08:06:54Z</time>
      </trkpt>
      <trkpt lat="44.288" lon="2.00978">
        <ele>254.6</ele>
        <time>2017-04-17T08:06:59Z</time>
      </trkpt>
      <trkpt lat="44.28838" lon="2.00987">
        <ele>251.3</ele>
        <time>2017-04-17T08:07:04Z</time>
      </trkpt>
      <trkpt lat="44.28875" lon="2.01002">
        <ele>252.3</ele>
        <time>2017-04-17T08:07:09Z</time>
      </trkpt>
      <trkpt lat="44.28918" lon="2.01022">
        <ele>246.7</ele>
        <time>2017-04-17T08:07:14Z</time>
      </trkpt>
      <trkpt lat="44.28963" lon="2.01045">
        <ele>247.3</ele>
        <time>2017-04-17T08:07:19Z</time>
      </trkpt>
      <trkpt lat="44.29015" lon="2.01065">
        <ele>241.1</ele>
        <time>2017-04-17T08:07:24Z</time>
      </trkpt>
      <trkpt lat="44.29068" lon="2.01088">
        <ele>238.1</ele>
        <time>2017-04-17T08:07:29Z</time>
      </trkpt>
      <trkpt lat="44.29113" lon="2.01113">
        <ele>236.8</ele>
        <time>2017-04-17T08:07:34Z</time>
      </trkpt>
      <trkpt lat="44.29152" lon="2.01133">
        <ele>237.2</ele>
        <time>2017-04-17T08:07:39Z</time>
      </trkpt>
      <trkpt lat="44.29193" lon="2.01152">
        <ele>237.9</ele>
        <time>2017-04-17T08:07:44Z</time>
      </trkpt>
      <trkpt lat="44.29235" lon="2.01168">
        <ele>233</ele>
        <time>2017-04-17T08:07:49Z</time>
      </trkpt>
      <trkpt lat="44.29273" lon="2.01178">
        <ele>233.6</ele>
        <time>2017-04-17T08:07:54Z</time>
      </trkpt>
      <trkpt lat="44.29307" lon="2.01178">
        <ele>234.7</ele>
        <time>2017-04-17T08:07:59Z</time>
      </trkpt>
      <trkpt lat="44.29335" lon="2.01177">
        <ele>234.2</ele>
        <time>2017-04-17T08:08:04Z</time>
      </trkpt>
      <trkpt lat="44.2936" lon="2.01177">
        <ele>234.9</ele>
        <time>2017-04-17T08:08:09Z</time>
      </trkpt>
      <trkpt lat="44.29385" lon="2.01183">
        <ele>236</ele>
        <time>2017-04-17T08:08:14Z</time>
      </trkpt>
      <trkpt lat="44.29405" lon="2.01202">
        <ele>235</ele>
        <time>2017-04-17T08:08:19Z</time>
      </trkpt>
      <trkpt lat="44.29425" lon="2.01223">
        <ele>235.2</ele>
        <time>2017-04-17T08:08:24Z</time>
      </trkpt>
      <trkpt lat="44.29445" lon="2.01247">
        <ele>234.4</ele>
        <time>2017-04-17T08:08:29Z</time>
      </trkpt>
      <trkpt lat="44.29467" lon="2.0127">
        <ele>234.4</ele>
        <time>2017-04-17T08:08:34Z</time>
      </trkpt>
      <trkpt lat="44.29492" lon="2.01293">
        <ele>233.8</ele>
        <time>2017-04-17T08:08:39Z</time>
      </trkpt>
      <trkpt lat="44.29517" lon="2.01305">
        <ele>233.9</ele>
        <time>2017-04-17T08:08:44Z</time>
      </trkpt>
      <trkpt lat="44.29543" lon="2.01313">
        <ele>234.2</ele>
        <time>2017-04-17T08:08:49Z</time>
      </trkpt>
      <trkpt lat="44.29572" lon="2.01317">
        <ele>234.2</ele>
        <time>2017-04-17T08:08:54Z</time>
      </trkpt>
      <trkpt lat="44.296" lon="2.01317">
        <ele>234.6</ele>
        <time>2017-04-17T08:08:59Z</time>
      </trkpt>
      <trkpt lat="44.29623" lon="2.01317">
        <ele>234.8</ele>
        <time>2017-04-17T08:09:04Z</time>
      </trkpt>
      <trkpt lat="44.29647" lon="2.01318">
        <ele>234.8</ele>
        <time>2017-04-17T08:09:09Z</time>
      </trkpt>
      <trkpt lat="44.29668" lon="2.0133">
        <ele>234.1</ele>
        <time>2017-04-17T08:09:14Z</time>
      </trkpt>
      <trkpt lat="44.29688" lon="2.01352">
        <ele>235.3</ele>
        <time>2017-04-17T08:09:19Z</time>
      </trkpt>
      <trkpt lat="44.29708" lon="2.01375">
        <ele>234.7</ele>
        <time>2017-04-17T08:09:24Z</time>
      </trkpt>
      <trkpt lat="44.29732" lon="2.0139">
        <ele>235.4</ele>
        <time>2017-04-17T08:09:29Z</time>
      </trkpt>
      <trkpt lat="44.29757" lon="2.0139">
        <ele>234.9</ele>
        <time>2017-04-17T08:09:34Z</time>
      </trkpt>
      <trkpt lat="44.29782" lon="2.01387">
        <ele>234.6</ele>
        <time>2017-04-17T08:09:39Z</time>
      </trkpt>
      <trkpt lat="44.29808" lon="2.01387">
        <ele>235.2</ele>
        <time>2017-04-17T08:09:44Z</time>
      </trkpt>
      <trkpt lat="44.29837" lon="2.01393">
        <ele>234.4</ele>
        <time>2017-04-17T08:09:49Z</time>
      </trkpt>
      <trkpt lat="44.29862" lon="2.01403">
        <ele>234</ele>
        <time>2017-04-17T08:09:54Z</time>
      </trkpt>
      <trkpt lat="44.29888" lon="2.01413">
        <ele>233.6</ele>
        <time>2017-04-17T08:09:59Z</time>
      </trkpt>
      <trkpt lat="44.29915" lon="2.01423">
        <ele>234.3</ele>
        <time>2017-04-17T08:10:04Z</time>
      </trkpt>
      <trkpt lat="44.29942" lon="2.01437">
        <ele>234.7</ele>
        <time>2017-04-17T08:10:09Z</time>
      </trkpt>
      <trkpt lat="44.29968" lon="2.01452">
        <ele>233.7</ele>
        <time>2017-04-17T08:10:14Z</time>
      </trkpt>
      <trkpt lat="44.29993" lon="2.01468">
        <ele>233.8</ele>
        <time>2017-04-17T08:10:19Z</time>
      </trkpt>
      <trkpt lat="44.30017" lon="2.01483">
        <ele>234.8</ele>
        <time>2017-04-17T08:10:24Z</time>
      </trkpt>
      <trkpt lat="44.3004" lon="2.01497">
        <ele>234.3</ele>
        <time>2017-04-17T08:10:29Z</time>
      </trkpt>
      <trkpt lat="44.30063" lon="2.01513">
        <ele>234.2</ele>
        <time>2017-04-17T08:10:34Z</time>
      </trkpt>
      <trkpt lat="44.30088" lon="2.01532">
        <ele>234.1</ele>
        <time>2017-04-17T08:10:39Z</time>
      </trkpt>
      <trkpt lat="44.30113" lon="2.0155">
        <ele>234.3</ele>
        <time>2017-04-17T08:10:44Z</time>
      </trkpt>
      <trkpt lat="44.30137" lon="2.01568">
        <ele>233.4</ele>
        <time>2017-04-17T08:10:49Z</time>
      </trkpt>
      <trkpt lat="44.3016" lon="2.01585">
        <ele>232.8</ele>
        <time>2017-04-17T08:10:54Z</time>
      </trkpt>
      <trkpt lat="44.30182" lon="2.01602">
        <ele>233.3</ele>
        <time>2017-04-17T08:10:59Z</time>
      </trkpt>
      <trkpt lat="44.30205" lon="2.01617">
        <ele>233.3</ele>
        <time>2017-04-17T08:11:04Z</time>
      </trkpt>
      <trkpt lat="44.3023" lon="2.01628">
        <ele>233.6</ele>
        <time>2017-04-17T08:11:09Z</time>
      </trkpt>
      <trkpt lat="44.30252" lon="2.01633">
        <ele>233.7</ele>
        <time>2017-04-17T08:11:14Z</time>
      </trkpt>
      <trkpt lat="44.30277" lon="2.01635">
        <ele>234.2</ele>
        <time>2017-04-17T08:11:19Z</time>
      </trkpt>
      <trkpt lat="44.30303" lon="2.01635">
        <ele>233.7</ele>
        <time>2017-04-17T08:11:24Z</time>
      </trkpt>
      <trkpt lat="44.30332" lon="2.01635">
        <ele>232.8</ele>
        <time>2017-04-17T08:11:29Z</time>
      </trkpt>
      <trkpt lat="44.30358" lon="2.01632">
        <ele>232.9</ele>
        <time>2017-04-17T08:11:34Z</time>
      </trkpt>
      <trkpt lat="44.30387" lon="2.01628">
        <ele>233.4</ele>
        <time>2017-04-17T08:11:39Z</time>
      </trkpt>
      <trkpt lat="44.30412" lon="2.01625">
        <ele>232.1</ele>
        <time>2017-04-17T08:11:44Z</time>
      </trkpt>
      <trkpt lat="44.30438" lon="2.01622">
        <ele>233.6</ele>
        <time>2017-04-17T08:11:49Z</time>
      </trkpt>
      <trkpt lat="44.30463" lon="2.01623">
        <ele>233.6</ele>
        <time>2017-04-17T08:11:54Z</time>
      </trkpt>
      <trkpt lat="44.30488" lon="2.01627">
        <ele>233.6</ele>
        <time>2017-04-17T08:11:59Z</time>
      </trkpt>
      <trkpt lat="44.30512" lon="2.01632">
        <ele>233.9</ele>
        <time>2017-04-17T08:12:04Z</time>
      </trkpt>
      <trkpt lat="44.30533" lon="2.01635">
        <ele>234.7</ele>
        <time>2017-04-17T08:12:09Z</time>
      </trkpt>
      <trkpt lat="44.30555" lon="2.01638">
        <ele>234.5</ele>
        <time>2017-04-17T08:12:14Z</time>
      </trkpt>
      <trkpt lat="44.30578" lon="2.01643">
        <ele>235.1</ele>
        <time>2017-04-17T08:12:19Z</time>
      </trkpt>
      <trkpt lat="44.30598" lon="2.01657">
        <ele>235.8</ele>
        <time>2017-04-17T08:12:24Z</time>
      </trkpt>
      <trkpt lat="44.30617" lon="2.01672">
        <ele>235.5</ele>
        <time>2017-04-17T08:12:29Z</time>
      </trkpt>
      <trkpt lat="44.30632" lon="2.01687">
        <ele>234.9</ele>
        <time>2017-04-17T08:12:34Z</time>
      </trkpt>
      <trkpt lat="44.30643" lon="2.01703">
        <ele>234.5</ele>
        <time>2017-04-17T08:12:39Z</time>
      </trkpt>
      <trkpt lat="44.30643" lon="2.01707">
        <ele>233.9</ele>
        <time>2017-04-17T08:12:44Z</time>
      </trkpt>
      <trkpt lat="44.30643" lon="2.01707">
        <ele>234.7</ele>
        <time>2017-04-17T08:12:59Z</time>
      </trkpt>
      <trkpt lat="44.30642" lon="2.01708">
        <ele>234.4</ele>
        <time>2017-04-17T08:13:04Z</time>
      </trkpt>
      <trkpt lat="44.30642" lon="2.01705">
        <ele>234.5</ele>
        <time>2017-04-17T08:19:00Z</time>
      </trkpt>
      <trkpt lat="44.30648" lon="2.01707">
        <ele>234</ele>
        <time>2017-04-17T08:19:05Z</time>
      </trkpt>
      <trkpt lat="44.30657" lon="2.01707">
        <ele>234.3</ele>
        <time>2017-04-17T08:19:10Z</time>
      </trkpt>
      <trkpt lat="44.30648" lon="2.01708">
        <ele>233.8</ele>
        <time>2017-04-17T08:19:15Z</time>
      </trkpt>
      <trkpt lat="44.30638" lon="2.01715">
        <ele>234.2</ele>
        <time>2017-04-17T08:19:20Z</time>
      </trkpt>
      <trkpt lat="44.30627" lon="2.0172">
        <ele>235.8</ele>
        <time>2017-04-17T08:19:25Z</time>
      </trkpt>
      <trkpt lat="44.30617" lon="2.01723">
        <ele>236.8</ele>
        <time>2017-04-17T08:19:30Z</time>
      </trkpt>
      <trkpt lat="44.30603" lon="2.01728">
        <ele>236.2</ele>
        <time>2017-04-17T08:19:35Z</time>
      </trkpt>
      <trkpt lat="44.30592" lon="2.01733">
        <ele>237.1</ele>
        <time>2017-04-17T08:19:40Z</time>
      </trkpt>
      <trkpt lat="44.3058" lon="2.0174">
        <ele>238.5</ele>
        <time>2017-04-17T08:19:45Z</time>
      </trkpt>
      <trkpt lat="44.30568" lon="2.01745">
        <ele>238.7</ele>
        <time>2017-04-17T08:19:50Z</time>
      </trkpt>
      <trkpt lat="44.30558" lon="2.0175">
        <ele>240.2</ele>
        <time>2017-04-17T08:19:55Z</time>
      </trkpt>
      <trkpt lat="44.30552" lon="2.01755">
        <ele>241</ele>
        <time>2017-04-17T08:20:00Z</time>
      </trkpt>
      <trkpt lat="44.30543" lon="2.01762">
        <ele>241.8</ele>
        <time>2017-04-17T08:20:05Z</time>
      </trkpt>
      <trkpt lat="44.30537" lon="2.01768">
        <ele>242.3</ele>
        <time>2017-04-17T08:20:10Z</time>
      </trkpt>
      <trkpt lat="44.30532" lon="2.01777">
        <ele>243.1</ele>
        <time>2017-04-17T08:20:15Z</time>
      </trkpt>
      <trkpt lat="44.30528" lon="2.01785">
        <ele>243.6</ele>
        <time>2017-04-17T08:20:20Z</time>
      </trkpt>
      <trkpt lat="44.30528" lon="2.01797">
        <ele>244</ele>
        <time>2017-04-17T08:20:25Z</time>
      </trkpt>
      <trkpt lat="44.3052" lon="2.01803">
        <ele>245.1</ele>
        <time>2017-04-17T08:20:30Z</time>
      </trkpt>
      <trkpt lat="44.30515" lon="2.01808">
        <ele>245.1</ele>
        <time>2017-04-17T08:20:35Z</time>
      </trkpt>
      <trkpt lat="44.30512" lon="2.01815">
        <ele>245.4</ele>
        <time>2017-04-17T08:20:40Z</time>
      </trkpt>
      <trkpt lat="44.30505" lon="2.01818">
        <ele>246.7</ele>
        <time>2017-04-17T08:20:45Z</time>
      </trkpt>
      <trkpt lat="44.305" lon="2.01823">
        <ele>248</ele>
        <time>2017-04-17T08:20:50Z</time>
      </trkpt>
      <trkpt lat="44.30493" lon="2.01822">
        <ele>248.4</ele>
        <time>2017-04-17T08:20:55Z</time>
      </trkpt>
      <trkpt lat="44.3049" lon="2.01817">
        <ele>249.4</ele>
        <time>2017-04-17T08:21:00Z</time>
      </trkpt>
      <trkpt lat="44.30485" lon="2.01812">
        <ele>250.4</ele>
        <time>2017-04-17T08:21:05Z</time>
      </trkpt>
      <trkpt lat="44.3048" lon="2.01805">
        <ele>252.1</ele>
        <time>2017-04-17T08:21:10Z</time>
      </trkpt>
      <trkpt lat="44.30473" lon="2.01803">
        <ele>252.2</ele>
        <time>2017-04-17T08:21:15Z</time>
      </trkpt>
      <trkpt lat="44.30473" lon="2.01803">
        <ele>252.9</ele>
        <time>2017-04-17T08:21:20Z</time>
      </trkpt>
      <trkpt lat="44.30472" lon="2.01803">
        <ele>253.2</ele>
        <time>2017-04-17T08:21:35Z</time>
      </trkpt>
      <trkpt lat="44.30468" lon="2.01803">
        <ele>254.3</ele>
        <time>2017-04-17T08:21:40Z</time>
      </trkpt>
      <trkpt lat="44.30465" lon="2.01803">
        <ele>254.1</ele>
        <time>2017-04-17T08:21:45Z</time>
      </trkpt>
      <trkpt lat="44.3046" lon="2.01805">
        <ele>255.8</ele>
        <time>2017-04-17T08:21:50Z</time>
      </trkpt>
      <trkpt lat="44.30457" lon="2.01805">
        <ele>256.7</ele>
        <time>2017-04-17T08:21:55Z</time>
      </trkpt>
      <trkpt lat="44.30452" lon="2.01803">
        <ele>257.6</ele>
        <time>2017-04-17T08:22:00Z</time>
      </trkpt>
      <trkpt lat="44.30448" lon="2.01805">
        <ele>258.6</ele>
        <time>2017-04-17T08:22:05Z</time>
      </trkpt>
      <trkpt lat="44.30443" lon="2.01807">
        <ele>259.8</ele>
        <time>2017-04-17T08:22:10Z</time>
      </trkpt>
      <trkpt lat="44.3044" lon="2.01807">
        <ele>260.8</ele>
        <time>2017-04-17T08:22:15Z</time>
      </trkpt>
      <trkpt lat="44.30437" lon="2.01808">
        <ele>260.7</ele>
        <time>2017-04-17T08:22:20Z</time>
      </trkpt>
      <trkpt lat="44.30432" lon="2.0181">
        <ele>262.7</ele>
        <time>2017-04-17T08:22:25Z</time>
      </trkpt>
      <trkpt lat="44.3043" lon="2.01813">
        <ele>263.6</ele>
        <time>2017-04-17T08:22:30Z</time>
      </trkpt>
      <trkpt lat="44.3043" lon="2.01815">
        <ele>263.4</ele>
        <time>2017-04-17T08:23:00Z</time>
      </trkpt>
      <trkpt lat="44.30432" lon="2.01822">
        <ele>264.9</ele>
        <time>2017-04-17T08:23:05Z</time>
      </trkpt>
      <trkpt lat="44.30435" lon="2.01825">
        <ele>265.4</ele>
        <time>2017-04-17T08:23:10Z</time>
      </trkpt>
      <trkpt lat="44.30438" lon="2.0183">
        <ele>266.3</ele>
        <time>2017-04-17T08:23:15Z</time>
      </trkpt>
      <trkpt lat="44.30438" lon="2.01837">
        <ele>267.3</ele>
        <time>2017-04-17T08:23:20Z</time>
      </trkpt>
      <trkpt lat="44.30435" lon="2.01842">
        <ele>268.2</ele>
        <time>2017-04-17T08:23:25Z</time>
      </trkpt>
      <trkpt lat="44.3043" lon="2.01845">
        <ele>270</ele>
        <time>2017-04-17T08:23:30Z</time>
      </trkpt>
      <trkpt lat="44.30425" lon="2.01845">
        <ele>271.2</ele>
        <time>2017-04-17T08:23:35Z</time>
      </trkpt>
      <trkpt lat="44.3042" lon="2.01843">
        <ele>271.7</ele>
        <time>2017-04-17T08:23:40Z</time>
      </trkpt>
      <trkpt lat="44.30417" lon="2.01843">
        <ele>272.6</ele>
        <time>2017-04-17T08:23:45Z</time>
      </trkpt>
      <trkpt lat="44.30417" lon="2.01843">
        <ele>272.7</ele>
        <time>2017-04-17T08:23:50Z</time>
      </trkpt>
      <trkpt lat="44.30412" lon="2.01843">
        <ele>273.5</ele>
        <time>2017-04-17T08:23:55Z</time>
      </trkpt>
      <trkpt lat="44.30407" lon="2.01842">
        <ele>273.4</ele>
        <time>2017-04-17T08:24:00Z</time>
      </trkpt>
      <trkpt lat="44.30402" lon="2.01843">
        <ele>274.6</ele>
        <time>2017-04-17T08:24:05Z</time>
      </trkpt>
      <trkpt lat="44.30397" lon="2.01845">
        <ele>274.4</ele>
        <time>2017-04-17T08:24:10Z</time>
      </trkpt>
      <trkpt lat="44.30392" lon="2.01845">
        <ele>275.4</ele>
        <time>2017-04-17T08:24:15Z</time>
      </trkpt>
      <trkpt lat="44.30392" lon="2.01847">
        <ele>275.2</ele>
        <time>2017-04-17T08:24:35Z</time>
      </trkpt>
      <trkpt lat="44.30387" lon="2.01848">
        <ele>275.7</ele>
        <time>2017-04-17T08:24:40Z</time>
      </trkpt>
      <trkpt lat="44.3038" lon="2.0185">
        <ele>275.8</ele>
        <time>2017-04-17T08:24:45Z</time>
      </trkpt>
      <trkpt lat="44.30375" lon="2.01852">
        <ele>277.2</ele>
        <time>2017-04-17T08:24:50Z</time>
      </trkpt>
      <trkpt lat="44.3037" lon="2.01855">
        <ele>277.8</ele>
        <time>2017-04-17T08:24:55Z</time>
      </trkpt>
      <trkpt lat="44.30363" lon="2.01858">
        <ele>279</ele>
        <time>2017-04-17T08:25:00Z</time>
      </trkpt>
      <trkpt lat="44.30357" lon="2.0186">
        <ele>279.8</ele>
        <time>2017-04-17T08:25:05Z</time>
      </trkpt>
      <trkpt lat="44.3035" lon="2.01863">
        <ele>280.2</ele>
        <time>2017-04-17T08:25:10Z</time>
      </trkpt>
      <trkpt lat="44.30345" lon="2.01867">
        <ele>281.3</ele>
        <time>2017-04-17T08:25:15Z</time>
      </trkpt>
      <trkpt lat="44.30347" lon="2.0187">
        <ele>281.6</ele>
        <time>2017-04-17T08:25:25Z</time>
      </trkpt>
      <trkpt lat="44.30347" lon="2.01868">
        <ele>281.7</ele>
        <time>2017-04-17T08:25:30Z</time>
      </trkpt>
      <trkpt lat="44.30347" lon="2.01872">
        <ele>283.4</ele>
        <time>2017-04-17T08:25:35Z</time>
      </trkpt>
      <trkpt lat="44.30352" lon="2.01873">
        <ele>284.1</ele>
        <time>2017-04-17T08:25:40Z</time>
      </trkpt>
      <trkpt lat="44.30357" lon="2.01877">
        <ele>284.9</ele>
        <time>2017-04-17T08:25:45Z</time>
      </trkpt>
      <trkpt lat="44.30362" lon="2.01882">
        <ele>286</ele>
        <time>2017-04-17T08:25:50Z</time>
      </trkpt>
      <trkpt lat="44.30367" lon="2.01887">
        <ele>287.1</ele>
        <time>2017-04-17T08:25:55Z</time>
      </trkpt>
      <trkpt lat="44.30372" lon="2.01892">
        <ele>287.1</ele>
        <time>2017-04-17T08:26:00Z</time>
      </trkpt>
      <trkpt lat="44.30375" lon="2.01897">
        <ele>288.5</ele>
        <time>2017-04-17T08:26:05Z</time>
      </trkpt>
      <trkpt lat="44.30377" lon="2.01897">
        <ele>289.3</ele>
        <time>2017-04-17T08:26:10Z</time>
      </trkpt>
      <trkpt lat="44.3038" lon="2.01898">
        <ele>288.9</ele>
        <time>2017-04-17T08:26:40Z</time>
      </trkpt>
      <trkpt lat="44.30382" lon="2.01898">
        <ele>289.4</ele>
        <time>2017-04-17T08:26:45Z</time>
      </trkpt>
      <trkpt lat="44.30382" lon="2.01898">
        <ele>289.1</ele>
        <time>2017-04-17T08:26:50Z</time>
      </trkpt>
      <trkpt lat="44.30385" lon="2.019">
        <ele>289.9</ele>
        <time>2017-04-17T08:26:55Z</time>
      </trkpt>
      <trkpt lat="44.30388" lon="2.01905">
        <ele>290.9</ele>
        <time>2017-04-17T08:27:00Z</time>
      </trkpt>
      <trkpt lat="44.30395" lon="2.0191">
        <ele>292</ele>
        <time>2017-04-17T08:27:05Z</time>
      </trkpt>
      <trkpt lat="44.304" lon="2.01917">
        <ele>293</ele>
        <time>2017-04-17T08:27:10Z</time>
      </trkpt>
      <trkpt lat="44.30405" lon="2.01922">
        <ele>293.3</ele>
        <time>2017-04-17T08:27:15Z</time>
      </trkpt>
      <trkpt lat="44.3041" lon="2.01927">
        <ele>294.7</ele>
        <time>2017-04-17T08:27:20Z</time>
      </trkpt>
      <trkpt lat="44.30417" lon="2.01932">
        <ele>294.1</ele>
        <time>2017-04-17T08:27:25Z</time>
      </trkpt>
      <trkpt lat="44.30418" lon="2.0194">
        <ele>295.9</ele>
        <time>2017-04-17T08:27:30Z</time>
      </trkpt>
      <trkpt lat="44.3041" lon="2.01947">
        <ele>297.9</ele>
        <time>2017-04-17T08:27:35Z</time>
      </trkpt>
      <trkpt lat="44.30405" lon="2.01945">
        <ele>298.6</ele>
        <time>2017-04-17T08:27:40Z</time>
      </trkpt>
      <trkpt lat="44.30402" lon="2.01947">
        <ele>299.2</ele>
        <time>2017-04-17T08:28:20Z</time>
      </trkpt>
      <trkpt lat="44.30395" lon="2.01947">
        <ele>300.1</ele>
        <time>2017-04-17T08:28:25Z</time>
      </trkpt>
      <trkpt lat="44.30387" lon="2.01945">
        <ele>300.2</ele>
        <time>2017-04-17T08:28:30Z</time>
      </trkpt>
      <trkpt lat="44.30382" lon="2.01945">
        <ele>300.5</ele>
        <time>2017-04-17T08:28:35Z</time>
      </trkpt>
      <trkpt lat="44.30373" lon="2.01947">
        <ele>301.3</ele>
        <time>2017-04-17T08:28:40Z</time>
      </trkpt>
      <trkpt lat="44.30367" lon="2.01947">
        <ele>301.6</ele>
        <time>2017-04-17T08:28:45Z</time>
      </trkpt>
      <trkpt lat="44.3036" lon="2.0195">
        <ele>303</ele>
        <time>2017-04-17T08:28:50Z</time>
      </trkpt>
      <trkpt lat="44.30352" lon="2.01952">
        <ele>303.4</ele>
        <time>2017-04-17T08:28:55Z</time>
      </trkpt>
      <trkpt lat="44.30345" lon="2.01955">
        <ele>304.3</ele>
        <time>2017-04-17T08:29:00Z</time>
      </trkpt>
      <trkpt lat="44.30337" lon="2.01957">
        <ele>304.9</ele>
        <time>2017-04-17T08:29:05Z</time>
      </trkpt>
      <trkpt lat="44.3033" lon="2.0196">
        <ele>306.2</ele>
        <time>2017-04-17T08:29:10Z</time>
      </trkpt>
      <trkpt lat="44.30323" lon="2.01965">
        <ele>307.2</ele>
        <time>2017-04-17T08:29:15Z</time>
      </trkpt>
      <trkpt lat="44.30317" lon="2.01967">
        <ele>308.3</ele>
        <time>2017-04-17T08:29:20Z</time>
      </trkpt>
      <trkpt lat="44.30313" lon="2.0197">
        <ele>308.5</ele>
        <time>2017-04-17T08:29:25Z</time>
      </trkpt>
      <trkpt lat="44.30307" lon="2.01973">
        <ele>309.5</ele>
        <time>2017-04-17T08:29:30Z</time>
      </trkpt>
      <trkpt lat="44.303" lon="2.01977">
        <ele>310.6</ele>
        <time>2017-04-17T08:29:35Z</time>
      </trkpt>
      <trkpt lat="44.30293" lon="2.01978">
        <ele>311.6</ele>
        <time>2017-04-17T08:29:40Z</time>
      </trkpt>
      <trkpt lat="44.30287" lon="2.01983">
        <ele>313.5</ele>
        <time>2017-04-17T08:29:45Z</time>
      </trkpt>
      <trkpt lat="44.30282" lon="2.01987">
        <ele>314.2</ele>
        <time>2017-04-17T08:29:50Z</time>
      </trkpt>
      <trkpt lat="44.30278" lon="2.01988">
        <ele>315</ele>
        <time>2017-04-17T08:29:55Z</time>
      </trkpt>
      <trkpt lat="44.30273" lon="2.01992">
        <ele>316.3</ele>
        <time>2017-04-17T08:30:00Z</time>
      </trkpt>
      <trkpt lat="44.30267" lon="2.01992">
        <ele>317.4</ele>
        <time>2017-04-17T08:30:05Z</time>
      </trkpt>
      <trkpt lat="44.30262" lon="2.01992">
        <ele>318.3</ele>
        <time>2017-04-17T08:30:10Z</time>
      </trkpt>
      <trkpt lat="44.30257" lon="2.0199">
        <ele>319.1</ele>
        <time>2017-04-17T08:30:15Z</time>
      </trkpt>
      <trkpt lat="44.30253" lon="2.0199">
        <ele>320.7</ele>
        <time>2017-04-17T08:30:20Z</time>
      </trkpt>
      <trkpt lat="44.30247" lon="2.01988">
        <ele>320.9</ele>
        <time>2017-04-17T08:30:25Z</time>
      </trkpt>
      <trkpt lat="44.30245" lon="2.01988">
        <ele>322.1</ele>
        <time>2017-04-17T08:30:30Z</time>
      </trkpt>
      <trkpt lat="44.30238" lon="2.01988">
        <ele>321.7</ele>
        <time>2017-04-17T08:32:00Z</time>
      </trkpt>
      <trkpt lat="44.30233" lon="2.01987">
        <ele>322.9</ele>
        <time>2017-04-17T08:32:05Z</time>
      </trkpt>
      <trkpt lat="44.30228" lon="2.01983">
        <ele>324.1</ele>
        <time>2017-04-17T08:32:10Z</time>
      </trkpt>
      <trkpt lat="44.30223" lon="2.01983">
        <ele>324.8</ele>
        <time>2017-04-17T08:32:15Z</time>
      </trkpt>
      <trkpt lat="44.30217" lon="2.01982">
        <ele>325.8</ele>
        <time>2017-04-17T08:32:20Z</time>
      </trkpt>
      <trkpt lat="44.30208" lon="2.01983">
        <ele>326.7</ele>
        <time>2017-04-17T08:32:25Z</time>
      </trkpt>
      <trkpt lat="44.30202" lon="2.01983">
        <ele>327.7</ele>
        <time>2017-04-17T08:32:30Z</time>
      </trkpt>
      <trkpt lat="44.30195" lon="2.01982">
        <ele>328.6</ele>
        <time>2017-04-17T08:32:35Z</time>
      </trkpt>
      <trkpt lat="44.30188" lon="2.0198">
        <ele>329.5</ele>
        <time>2017-04-17T08:32:40Z</time>
      </trkpt>
      <trkpt lat="44.30183" lon="2.01978">
        <ele>330.5</ele>
        <time>2017-04-17T08:32:45Z</time>
      </trkpt>
      <trkpt lat="44.30177" lon="2.01978">
        <ele>331.4</ele>
        <time>2017-04-17T08:32:50Z</time>
      </trkpt>
      <trkpt lat="44.30172" lon="2.01977">
        <ele>331.7</ele>
        <time>2017-04-17T08:32:55Z</time>
      </trkpt>
      <trkpt lat="44.30163" lon="2.01977">
        <ele>332.9</ele>
        <time>2017-04-17T08:33:00Z</time>
      </trkpt>
      <trkpt lat="44.30157" lon="2.01975">
        <ele>333.7</ele>
        <time>2017-04-17T08:33:05Z</time>
      </trkpt>
      <trkpt lat="44.30152" lon="2.01975">
        <ele>334.1</ele>
        <time>2017-04-17T08:33:10Z</time>
      </trkpt>
      <trkpt lat="44.30148" lon="2.01975">
        <ele>334.9</ele>
        <time>2017-04-17T08:33:15Z</time>
      </trkpt>
      <trkpt lat="44.30142" lon="2.01973">
        <ele>335.4</ele>
        <time>2017-04-17T08:33:20Z</time>
      </trkpt>
      <trkpt lat="44.30135" lon="2.01973">
        <ele>336.2</ele>
        <time>2017-04-17T08:33:25Z</time>
      </trkpt>
      <trkpt lat="44.3013" lon="2.0197">
        <ele>336.5</ele>
        <time>2017-04-17T08:33:30Z</time>
      </trkpt>
      <trkpt lat="44.30123" lon="2.01968">
        <ele>337.7</ele>
        <time>2017-04-17T08:33:35Z</time>
      </trkpt>
      <trkpt lat="44.30118" lon="2.01965">
        <ele>338.1</ele>
        <time>2017-04-17T08:33:40Z</time>
      </trkpt>
      <trkpt lat="44.30113" lon="2.01965">
        <ele>338.8</ele>
        <time>2017-04-17T08:33:45Z</time>
      </trkpt>
      <trkpt lat="44.30107" lon="2.01963">
        <ele>339</ele>
        <time>2017-04-17T08:33:50Z</time>
      </trkpt>
      <trkpt lat="44.301" lon="2.0196">
        <ele>340.3</ele>
        <time>2017-04-17T08:33:55Z</time>
      </trkpt>
      <trkpt lat="44.30097" lon="2.0196">
        <ele>341.7</ele>
        <time>2017-04-17T08:34:00Z</time>
      </trkpt>
      <trkpt lat="44.3009" lon="2.01958">
        <ele>341.8</ele>
        <time>2017-04-17T08:34:05Z</time>
      </trkpt>
      <trkpt lat="44.30087" lon="2.01958">
        <ele>343.3</ele>
        <time>2017-04-17T08:34:10Z</time>
      </trkpt>
      <trkpt lat="44.3008" lon="2.01958">
        <ele>343.3</ele>
        <time>2017-04-17T08:34:15Z</time>
      </trkpt>
      <trkpt lat="44.30075" lon="2.0196">
        <ele>344.2</ele>
        <time>2017-04-17T08:34:20Z</time>
      </trkpt>
      <trkpt lat="44.30068" lon="2.01958">
        <ele>345.8</ele>
        <time>2017-04-17T08:34:25Z</time>
      </trkpt>
      <trkpt lat="44.30062" lon="2.01962">
        <ele>346</ele>
        <time>2017-04-17T08:34:30Z</time>
      </trkpt>
      <trkpt lat="44.30057" lon="2.01963">
        <ele>347.4</ele>
        <time>2017-04-17T08:34:35Z</time>
      </trkpt>
      <trkpt lat="44.30052" lon="2.01967">
        <ele>348.3</ele>
        <time>2017-04-17T08:34:40Z</time>
      </trkpt>
      <trkpt lat="44.30047" lon="2.0197">
        <ele>349.5</ele>
        <time>2017-04-17T08:34:45Z</time>
      </trkpt>
      <trkpt lat="44.3004" lon="2.01973">
        <ele>349.8</ele>
        <time>2017-04-17T08:34:50Z</time>
      </trkpt>
      <trkpt lat="44.30037" lon="2.01977">
        <ele>350.7</ele>
        <time>2017-04-17T08:34:55Z</time>
      </trkpt>
      <trkpt lat="44.3003" lon="2.01978">
        <ele>351.5</ele>
        <time>2017-04-17T08:35:00Z</time>
      </trkpt>
      <trkpt lat="44.30028" lon="2.01983">
        <ele>352.2</ele>
        <time>2017-04-17T08:35:05Z</time>
      </trkpt>
      <trkpt lat="44.30022" lon="2.01987">
        <ele>352.7</ele>
        <time>2017-04-17T08:35:10Z</time>
      </trkpt>
      <trkpt lat="44.30022" lon="2.01988">
        <ele>353.1</ele>
        <time>2017-04-17T08:35:15Z</time>
      </trkpt>
      <trkpt lat="44.30022" lon="2.0199">
        <ele>353.9</ele>
        <time>2017-04-17T08:35:20Z</time>
      </trkpt>
      <trkpt lat="44.30018" lon="2.01992">
        <ele>352.4</ele>
        <time>2017-04-17T08:36:25Z</time>
      </trkpt>
      <trkpt lat="44.30015" lon="2.01995">
        <ele>354</ele>
        <time>2017-04-17T08:36:30Z</time>
      </trkpt>
      <trkpt lat="44.30013" lon="2.02">
        <ele>355.1</ele>
        <time>2017-04-17T08:36:35Z</time>
      </trkpt>
      <trkpt lat="44.30005" lon="2.02008">
        <ele>358</ele>
        <time>2017-04-17T08:36:45Z</time>
      </trkpt>
      <trkpt lat="44.3" lon="2.02013">
        <ele>359.1</ele>
        <time>2017-04-17T08:36:50Z</time>
      </trkpt>
      <trkpt lat="44.29995" lon="2.02018">
        <ele>360.2</ele>
        <time>2017-04-17T08:36:55Z</time>
      </trkpt>
      <trkpt lat="44.29988" lon="2.02023">
        <ele>361.4</ele>
        <time>2017-04-17T08:37:00Z</time>
      </trkpt>
      <trkpt lat="44.29983" lon="2.02027">
        <ele>362.5</ele>
        <time>2017-04-17T08:37:05Z</time>
      </trkpt>
      <trkpt lat="44.2998" lon="2.0203">
        <ele>362.8</ele>
        <time>2017-04-17T08:38:15Z</time>
      </trkpt>
      <trkpt lat="44.29975" lon="2.02035">
        <ele>363.4</ele>
        <time>2017-04-17T08:38:20Z</time>
      </trkpt>
      <trkpt lat="44.2997" lon="2.02042">
        <ele>364.9</ele>
        <time>2017-04-17T08:38:25Z</time>
      </trkpt>
      <trkpt lat="44.29968" lon="2.02043">
        <ele>364.9</ele>
        <time>2017-04-17T08:38:30Z</time>
      </trkpt>
      <trkpt lat="44.29965" lon="2.02047">
        <ele>365.8</ele>
        <time>2017-04-17T08:38:55Z</time>
      </trkpt>
      <trkpt lat="44.2996" lon="2.02052">
        <ele>366.4</ele>
        <time>2017-04-17T08:39:00Z</time>
      </trkpt>
      <trkpt lat="44.29953" lon="2.02058">
        <ele>367.8</ele>
        <time>2017-04-17T08:39:05Z</time>
      </trkpt>
      <trkpt lat="44.29948" lon="2.02062">
        <ele>369.2</ele>
        <time>2017-04-17T08:39:10Z</time>
      </trkpt>
      <trkpt lat="44.29943" lon="2.02067">
        <ele>369.4</ele>
        <time>2017-04-17T08:39:15Z</time>
      </trkpt>
      <trkpt lat="44.29938" lon="2.02072">
        <ele>370.6</ele>
        <time>2017-04-17T08:39:20Z</time>
      </trkpt>
      <trkpt lat="44.29933" lon="2.02077">
        <ele>370.9</ele>
        <time>2017-04-17T08:39:25Z</time>
      </trkpt>
      <trkpt lat="44.29928" lon="2.02082">
        <ele>371.6</ele>
        <time>2017-04-17T08:39:30Z</time>
      </trkpt>
      <trkpt lat="44.29922" lon="2.02082">
        <ele>371.2</ele>
        <time>2017-04-17T08:39:35Z</time>
      </trkpt>
      <trkpt lat="44.29913" lon="2.02083">
        <ele>370.7</ele>
        <time>2017-04-17T08:39:40Z</time>
      </trkpt>
      <trkpt lat="44.29903" lon="2.02085">
        <ele>371.3</ele>
        <time>2017-04-17T08:39:45Z</time>
      </trkpt>
      <trkpt lat="44.29895" lon="2.02087">
        <ele>371.9</ele>
        <time>2017-04-17T08:39:50Z</time>
      </trkpt>
      <trkpt lat="44.29887" lon="2.02087">
        <ele>371.7</ele>
        <time>2017-04-17T08:39:55Z</time>
      </trkpt>
      <trkpt lat="44.29878" lon="2.02092">
        <ele>373.4</ele>
        <time>2017-04-17T08:40:00Z</time>
      </trkpt>
      <trkpt lat="44.29872" lon="2.02095">
        <ele>374.4</ele>
        <time>2017-04-17T08:40:05Z</time>
      </trkpt>
      <trkpt lat="44.29865" lon="2.02097">
        <ele>374.5</ele>
        <time>2017-04-17T08:40:10Z</time>
      </trkpt>
      <trkpt lat="44.29858" lon="2.021">
        <ele>375.5</ele>
        <time>2017-04-17T08:40:15Z</time>
      </trkpt>
      <trkpt lat="44.29852" lon="2.02102">
        <ele>376.4</ele>
        <time>2017-04-17T08:40:20Z</time>
      </trkpt>
      <trkpt lat="44.29845" lon="2.02103">
        <ele>377.2</ele>
        <time>2017-04-17T08:40:25Z</time>
      </trkpt>
      <trkpt lat="44.29837" lon="2.02103">
        <ele>377.6</ele>
        <time>2017-04-17T08:40:30Z</time>
      </trkpt>
      <trkpt lat="44.29828" lon="2.02105">
        <ele>376.7</ele>
        <time>2017-04-17T08:40:35Z</time>
      </trkpt>
      <trkpt lat="44.29815" lon="2.02103">
        <ele>377.6</ele>
        <time>2017-04-17T08:40:40Z</time>
      </trkpt>
      <trkpt lat="44.29803" lon="2.02102">
        <ele>376.8</ele>
        <time>2017-04-17T08:40:45Z</time>
      </trkpt>
      <trkpt lat="44.29792" lon="2.02095">
        <ele>377.3</ele>
        <time>2017-04-17T08:40:50Z</time>
      </trkpt>
      <trkpt lat="44.29778" lon="2.02085">
        <ele>376.8</ele>
        <time>2017-04-17T08:40:55Z</time>
      </trkpt>
      <trkpt lat="44.29765" lon="2.02072">
        <ele>377.7</ele>
        <time>2017-04-17T08:41:00Z</time>
      </trkpt>
      <trkpt lat="44.29753" lon="2.02062">
        <ele>378.3</ele>
        <time>2017-04-17T08:41:05Z</time>
      </trkpt>
      <trkpt lat="44.29742" lon="2.02048">
        <ele>377.6</ele>
        <time>2017-04-17T08:41:10Z</time>
      </trkpt>
      <trkpt lat="44.29732" lon="2.0204">
        <ele>378.9</ele>
        <time>2017-04-17T08:41:15Z</time>
      </trkpt>
      <trkpt lat="44.29722" lon="2.0203">
        <ele>379.2</ele>
        <time>2017-04-17T08:41:20Z</time>
      </trkpt>
      <trkpt lat="44.29715" lon="2.02022">
        <ele>379.5</ele>
        <time>2017-04-17T08:41:25Z</time>
      </trkpt>
      <trkpt lat="44.2971" lon="2.02008">
        <ele>379.9</ele>
        <time>2017-04-17T08:41:30Z</time>
      </trkpt>
      <trkpt lat="44.29707" lon="2.01993">
        <ele>381.1</ele>
        <time>2017-04-17T08:41:35Z</time>
      </trkpt>
      <trkpt lat="44.29708" lon="2.01978">
        <ele>381.3</ele>
        <time>2017-04-17T08:41:40Z</time>
      </trkpt>
      <trkpt lat="44.29707" lon="2.01965">
        <ele>382.4</ele>
        <time>2017-04-17T08:41:45Z</time>
      </trkpt>
      <trkpt lat="44.29702" lon="2.01953">
        <ele>382.8</ele>
        <time>2017-04-17T08:41:50Z</time>
      </trkpt>
      <trkpt lat="44.29693" lon="2.01948">
        <ele>383.2</ele>
        <time>2017-04-17T08:41:55Z</time>
      </trkpt>
      <trkpt lat="44.29685" lon="2.01945">
        <ele>383.3</ele>
        <time>2017-04-17T08:42:00Z</time>
      </trkpt>
      <trkpt lat="44.29677" lon="2.01943">
        <ele>384.1</ele>
        <time>2017-04-17T08:42:05Z</time>
      </trkpt>
      <trkpt lat="44.29672" lon="2.01947">
        <ele>384.6</ele>
        <time>2017-04-17T08:42:10Z</time>
      </trkpt>
      <trkpt lat="44.29665" lon="2.0195">
        <ele>384.8</ele>
        <time>2017-04-17T08:42:15Z</time>
      </trkpt>
      <trkpt lat="44.29658" lon="2.01955">
        <ele>386</ele>
        <time>2017-04-17T08:42:20Z</time>
      </trkpt>
      <trkpt lat="44.29652" lon="2.01958">
        <ele>386.6</ele>
        <time>2017-04-17T08:42:25Z</time>
      </trkpt>
      <trkpt lat="44.29645" lon="2.01962">
        <ele>387.1</ele>
        <time>2017-04-17T08:42:30Z</time>
      </trkpt>
      <trkpt lat="44.29638" lon="2.01963">
        <ele>387.8</ele>
        <time>2017-04-17T08:42:35Z</time>
      </trkpt>
      <trkpt lat="44.29633" lon="2.01968">
        <ele>388.2</ele>
        <time>2017-04-17T08:42:40Z</time>
      </trkpt>
      <trkpt lat="44.29628" lon="2.01972">
        <ele>389.4</ele>
        <time>2017-04-17T08:42:45Z</time>
      </trkpt>
      <trkpt lat="44.29622" lon="2.01975">
        <ele>390.7</ele>
        <time>2017-04-17T08:42:50Z</time>
      </trkpt>
      <trkpt lat="44.29617" lon="2.01978">
        <ele>391.9</ele>
        <time>2017-04-17T08:42:55Z</time>
      </trkpt>
      <trkpt lat="44.29612" lon="2.01982">
        <ele>393.1</ele>
        <time>2017-04-17T08:43:00Z</time>
      </trkpt>
      <trkpt lat="44.29607" lon="2.01985">
        <ele>393.7</ele>
        <time>2017-04-17T08:43:05Z</time>
      </trkpt>
      <trkpt lat="44.29602" lon="2.01988">
        <ele>395.2</ele>
        <time>2017-04-17T08:43:10Z</time>
      </trkpt>
      <trkpt lat="44.29597" lon="2.01993">
        <ele>395.8</ele>
        <time>2017-04-17T08:43:15Z</time>
      </trkpt>
      <trkpt lat="44.29592" lon="2.01995">
        <ele>396.9</ele>
        <time>2017-04-17T08:43:20Z</time>
      </trkpt>
      <trkpt lat="44.29587" lon="2.01998">
        <ele>397.4</ele>
        <time>2017-04-17T08:43:25Z</time>
      </trkpt>
      <trkpt lat="44.29582" lon="2.02002">
        <ele>398.5</ele>
        <time>2017-04-17T08:43:30Z</time>
      </trkpt>
      <trkpt lat="44.29577" lon="2.02005">
        <ele>399.2</ele>
        <time>2017-04-17T08:43:35Z</time>
      </trkpt>
      <trkpt lat="44.29572" lon="2.02008">
        <ele>400.1</ele>
        <time>2017-04-17T08:43:40Z</time>
      </trkpt>
      <trkpt lat="44.29567" lon="2.02012">
        <ele>400.8</ele>
        <time>2017-04-17T08:43:45Z</time>
      </trkpt>
      <trkpt lat="44.29562" lon="2.02015">
        <ele>402</ele>
        <time>2017-04-17T08:43:50Z</time>
      </trkpt>
      <trkpt lat="44.29557" lon="2.02018">
        <ele>402</ele>
        <time>2017-04-17T08:43:55Z</time>
      </trkpt>
      <trkpt lat="44.29552" lon="2.02023">
        <ele>403.5</ele>
        <time>2017-04-17T08:44:00Z</time>
      </trkpt>
      <trkpt lat="44.29545" lon="2.02027">
        <ele>404.1</ele>
        <time>2017-04-17T08:44:05Z</time>
      </trkpt>
      <trkpt lat="44.29538" lon="2.02032">
        <ele>404.5</ele>
        <time>2017-04-17T08:44:10Z</time>
      </trkpt>
      <trkpt lat="44.29533" lon="2.02037">
        <ele>405.3</ele>
        <time>2017-04-17T08:44:15Z</time>
      </trkpt>
      <trkpt lat="44.29527" lon="2.02042">
        <ele>405.3</ele>
        <time>2017-04-17T08:44:20Z</time>
      </trkpt>
      <trkpt lat="44.29518" lon="2.02047">
        <ele>405.7</ele>
        <time>2017-04-17T08:44:25Z</time>
      </trkpt>
      <trkpt lat="44.2951" lon="2.02055">
        <ele>405.6</ele>
        <time>2017-04-17T08:44:30Z</time>
      </trkpt>
      <trkpt lat="44.29503" lon="2.02067">
        <ele>406.2</ele>
        <time>2017-04-17T08:44:35Z</time>
      </trkpt>
      <trkpt lat="44.29495" lon="2.0208">
        <ele>406</ele>
        <time>2017-04-17T08:44:40Z</time>
      </trkpt>
      <trkpt lat="44.29487" lon="2.02103">
        <ele>405.4</ele>
        <time>2017-04-17T08:44:45Z</time>
      </trkpt>
      <trkpt lat="44.29487" lon="2.02135">
        <ele>404.5</ele>
        <time>2017-04-17T08:44:50Z</time>
      </trkpt>
      <trkpt lat="44.29482" lon="2.0217">
        <ele>401.8</ele>
        <time>2017-04-17T08:44:55Z</time>
      </trkpt>
      <trkpt lat="44.29472" lon="2.0219">
        <ele>403.2</ele>
        <time>2017-04-17T08:45:00Z</time>
      </trkpt>
      <trkpt lat="44.29465" lon="2.02203">
        <ele>404.7</ele>
        <time>2017-04-17T08:45:05Z</time>
      </trkpt>
      <trkpt lat="44.29463" lon="2.02215">
        <ele>406.1</ele>
        <time>2017-04-17T08:45:10Z</time>
      </trkpt>
      <trkpt lat="44.29462" lon="2.02227">
        <ele>407.2</ele>
        <time>2017-04-17T08:45:15Z</time>
      </trkpt>
      <trkpt lat="44.29462" lon="2.0224">
        <ele>408</ele>
        <time>2017-04-17T08:45:20Z</time>
      </trkpt>
      <trkpt lat="44.29462" lon="2.02252">
        <ele>408.9</ele>
        <time>2017-04-17T08:45:25Z</time>
      </trkpt>
      <trkpt lat="44.29463" lon="2.02267">
        <ele>409.8</ele>
        <time>2017-04-17T08:45:30Z</time>
      </trkpt>
      <trkpt lat="44.29465" lon="2.0228">
        <ele>410.3</ele>
        <time>2017-04-17T08:45:35Z</time>
      </trkpt>
      <trkpt lat="44.29468" lon="2.02293">
        <ele>410.9</ele>
        <time>2017-04-17T08:45:40Z</time>
      </trkpt>
      <trkpt lat="44.2947" lon="2.02308">
        <ele>410.4</ele>
        <time>2017-04-17T08:45:45Z</time>
      </trkpt>
      <trkpt lat="44.29473" lon="2.02322">
        <ele>411</ele>
        <time>2017-04-17T08:45:50Z</time>
      </trkpt>
      <trkpt lat="44.29477" lon="2.02335">
        <ele>410.9</ele>
        <time>2017-04-17T08:45:55Z</time>
      </trkpt>
      <trkpt lat="44.29477" lon="2.02338">
        <ele>410.9</ele>
        <time>2017-04-17T08:46:00Z</time>
      </trkpt>
      <trkpt lat="44.29475" lon="2.02337">
        <ele>411.7</ele>
        <time>2017-04-17T08:52:20Z</time>
      </trkpt>
      <trkpt lat="44.29478" lon="2.02345">
        <ele>412</ele>
        <time>2017-04-17T08:52:25Z</time>
      </trkpt>
      <trkpt lat="44.29487" lon="2.02352">
        <ele>412.5</ele>
        <time>2017-04-17T08:52:30Z</time>
      </trkpt>
      <trkpt lat="44.29498" lon="2.02357">
        <ele>412.7</ele>
        <time>2017-04-17T08:52:35Z</time>
      </trkpt>
      <trkpt lat="44.29508" lon="2.02362">
        <ele>413.8</ele>
        <time>2017-04-17T08:52:40Z</time>
      </trkpt>
      <trkpt lat="44.2952" lon="2.02367">
        <ele>414.5</ele>
        <time>2017-04-17T08:52:45Z</time>
      </trkpt>
      <trkpt lat="44.29532" lon="2.02372">
        <ele>415.2</ele>
        <time>2017-04-17T08:52:50Z</time>
      </trkpt>
      <trkpt lat="44.29543" lon="2.02378">
        <ele>415.9</ele>
        <time>2017-04-17T08:52:55Z</time>
      </trkpt>
      <trkpt lat="44.29553" lon="2.02385">
        <ele>416.7</ele>
        <time>2017-04-17T08:53:00Z</time>
      </trkpt>
      <trkpt lat="44.29565" lon="2.0239">
        <ele>416.9</ele>
        <time>2017-04-17T08:53:05Z</time>
      </trkpt>
      <trkpt lat="44.29577" lon="2.02395">
        <ele>417.9</ele>
        <time>2017-04-17T08:53:10Z</time>
      </trkpt>
      <trkpt lat="44.29588" lon="2.02402">
        <ele>419</ele>
        <time>2017-04-17T08:53:15Z</time>
      </trkpt>
      <trkpt lat="44.296" lon="2.02408">
        <ele>419.2</ele>
        <time>2017-04-17T08:53:20Z</time>
      </trkpt>
      <trkpt lat="44.29612" lon="2.02415">
        <ele>420.2</ele>
        <time>2017-04-17T08:53:25Z</time>
      </trkpt>
      <trkpt lat="44.29623" lon="2.02425">
        <ele>420.9</ele>
        <time>2017-04-17T08:53:30Z</time>
      </trkpt>
      <trkpt lat="44.29633" lon="2.02435">
        <ele>422.2</ele>
        <time>2017-04-17T08:53:35Z</time>
      </trkpt>
      <trkpt lat="44.29643" lon="2.02445">
        <ele>422.2</ele>
        <time>2017-04-17T08:53:40Z</time>
      </trkpt>
      <trkpt lat="44.29653" lon="2.02455">
        <ele>423.2</ele>
        <time>2017-04-17T08:53:45Z</time>
      </trkpt>
      <trkpt lat="44.29662" lon="2.02465">
        <ele>423.8</ele>
        <time>2017-04-17T08:53:50Z</time>
      </trkpt>
      <trkpt lat="44.2967" lon="2.02475">
        <ele>424.4</ele>
        <time>2017-04-17T08:53:55Z</time>
      </trkpt>
      <trkpt lat="44.2968" lon="2.02487">
        <ele>425</ele>
        <time>2017-04-17T08:54:00Z</time>
      </trkpt>
      <trkpt lat="44.2969" lon="2.02497">
        <ele>425.6</ele>
        <time>2017-04-17T08:54:05Z</time>
      </trkpt>
      <trkpt lat="44.29698" lon="2.02507">
        <ele>426</ele>
        <time>2017-04-17T08:54:10Z</time>
      </trkpt>
      <trkpt lat="44.29707" lon="2.02518">
        <ele>427.7</ele>
        <time>2017-04-17T08:54:15Z</time>
      </trkpt>
      <trkpt lat="44.29715" lon="2.0253">
        <ele>428.6</ele>
        <time>2017-04-17T08:54:20Z</time>
      </trkpt>
      <trkpt lat="44.29723" lon="2.02542">
        <ele>429.6</ele>
        <time>2017-04-17T08:54:25Z</time>
      </trkpt>
      <trkpt lat="44.2973" lon="2.02555">
        <ele>430.3</ele>
        <time>2017-04-17T08:54:30Z</time>
      </trkpt>
      <trkpt lat="44.29738" lon="2.02572">
        <ele>430.7</ele>
        <time>2017-04-17T08:54:35Z</time>
      </trkpt>
      <trkpt lat="44.29747" lon="2.02593">
        <ele>430.1</ele>
        <time>2017-04-17T08:54:40Z</time>
      </trkpt>
      <trkpt lat="44.29757" lon="2.02618">
        <ele>429.4</ele>
        <time>2017-04-17T08:54:45Z</time>
      </trkpt>
      <trkpt lat="44.29768" lon="2.02643">
        <ele>429.8</ele>
        <time>2017-04-17T08:54:50Z</time>
      </trkpt>
      <trkpt lat="44.2978" lon="2.0267">
        <ele>428.2</ele>
        <time>2017-04-17T08:54:55Z</time>
      </trkpt>
      <trkpt lat="44.29792" lon="2.02695">
        <ele>428.6</ele>
        <time>2017-04-17T08:55:00Z</time>
      </trkpt>
      <trkpt lat="44.29802" lon="2.02718">
        <ele>427.8</ele>
        <time>2017-04-17T08:55:05Z</time>
      </trkpt>
      <trkpt lat="44.29812" lon="2.0274">
        <ele>428.3</ele>
        <time>2017-04-17T08:55:10Z</time>
      </trkpt>
      <trkpt lat="44.29822" lon="2.02762">
        <ele>428.4</ele>
        <time>2017-04-17T08:55:15Z</time>
      </trkpt>
      <trkpt lat="44.2983" lon="2.02783">
        <ele>428.9</ele>
        <time>2017-04-17T08:55:20Z</time>
      </trkpt>
      <trkpt lat="44.2984" lon="2.02805">
        <ele>429.4</ele>
        <time>2017-04-17T08:55:25Z</time>
      </trkpt>
      <trkpt lat="44.2985" lon="2.02827">
        <ele>430.8</ele>
        <time>2017-04-17T08:55:30Z</time>
      </trkpt>
      <trkpt lat="44.2986" lon="2.02847">
        <ele>431.2</ele>
        <time>2017-04-17T08:55:35Z</time>
      </trkpt>
      <trkpt lat="44.2987" lon="2.02867">
        <ele>432</ele>
        <time>2017-04-17T08:55:40Z</time>
      </trkpt>
      <trkpt lat="44.29882" lon="2.02887">
        <ele>432.2</ele>
        <time>2017-04-17T08:55:45Z</time>
      </trkpt>
      <trkpt lat="44.29893" lon="2.02902">
        <ele>431.6</ele>
        <time>2017-04-17T08:55:50Z</time>
      </trkpt>
      <trkpt lat="44.29893" lon="2.02902">
        <ele>430.7</ele>
        <time>2017-04-17T08:55:55Z</time>
      </trkpt>
      <trkpt lat="44.29897" lon="2.02905">
        <ele>431.2</ele>
        <time>2017-04-17T08:57:35Z</time>
      </trkpt>
      <trkpt lat="44.29908" lon="2.02915">
        <ele>431</ele>
        <time>2017-04-17T08:57:40Z</time>
      </trkpt>
      <trkpt lat="44.29925" lon="2.02932">
        <ele>430.6</ele>
        <time>2017-04-17T08:57:45Z</time>
      </trkpt>
      <trkpt lat="44.2994" lon="2.0295">
        <ele>431.9</ele>
        <time>2017-04-17T08:57:50Z</time>
      </trkpt>
      <trkpt lat="44.29952" lon="2.02972">
        <ele>431.3</ele>
        <time>2017-04-17T08:57:55Z</time>
      </trkpt>
      <trkpt lat="44.29962" lon="2.02993">
        <ele>431.7</ele>
        <time>2017-04-17T08:58:00Z</time>
      </trkpt>
      <trkpt lat="44.29968" lon="2.03018">
        <ele>430.7</ele>
        <time>2017-04-17T08:58:05Z</time>
      </trkpt>
      <trkpt lat="44.29977" lon="2.0304">
        <ele>431.6</ele>
        <time>2017-04-17T08:58:10Z</time>
      </trkpt>
      <trkpt lat="44.29982" lon="2.0306">
        <ele>432.4</ele>
        <time>2017-04-17T08:58:15Z</time>
      </trkpt>
      <trkpt lat="44.29987" lon="2.03078">
        <ele>433.7</ele>
        <time>2017-04-17T08:58:20Z</time>
      </trkpt>
      <trkpt lat="44.29992" lon="2.03093">
        <ele>435.3</ele>
        <time>2017-04-17T08:58:25Z</time>
      </trkpt>
      <trkpt lat="44.29997" lon="2.03108">
        <ele>436.2</ele>
        <time>2017-04-17T08:58:30Z</time>
      </trkpt>
      <trkpt lat="44.3" lon="2.03123">
        <ele>437.4</ele>
        <time>2017-04-17T08:58:35Z</time>
      </trkpt>
      <trkpt lat="44.30003" lon="2.03137">
        <ele>438.2</ele>
        <time>2017-04-17T08:58:40Z</time>
      </trkpt>
      <trkpt lat="44.30005" lon="2.03147">
        <ele>439.3</ele>
        <time>2017-04-17T08:58:45Z</time>
      </trkpt>
      <trkpt lat="44.30007" lon="2.0316">
        <ele>440.1</ele>
        <time>2017-04-17T08:58:50Z</time>
      </trkpt>
      <trkpt lat="44.3001" lon="2.03172">
        <ele>440.4</ele>
        <time>2017-04-17T08:58:55Z</time>
      </trkpt>
      <trkpt lat="44.30013" lon="2.03185">
        <ele>441.6</ele>
        <time>2017-04-17T08:59:00Z</time>
      </trkpt>
      <trkpt lat="44.30017" lon="2.03197">
        <ele>442.6</ele>
        <time>2017-04-17T08:59:05Z</time>
      </trkpt>
      <trkpt lat="44.30022" lon="2.0321">
        <ele>443.4</ele>
        <time>2017-04-17T08:59:10Z</time>
      </trkpt>
      <trkpt lat="44.30025" lon="2.03223">
        <ele>443.2</ele>
        <time>2017-04-17T08:59:15Z</time>
      </trkpt>
      <trkpt lat="44.3003" lon="2.03237">
        <ele>443.8</ele>
        <time>2017-04-17T08:59:20Z</time>
      </trkpt>
      <trkpt lat="44.30037" lon="2.03248">
        <ele>444.1</ele>
        <time>2017-04-17T08:59:25Z</time>
      </trkpt>
      <trkpt lat="44.30047" lon="2.0326">
        <ele>444.8</ele>
        <time>2017-04-17T08:59:30Z</time>
      </trkpt>
      <trkpt lat="44.3006" lon="2.0327">
        <ele>445.9</ele>
        <time>2017-04-17T08:59:35Z</time>
      </trkpt>
      <trkpt lat="44.30073" lon="2.03282">
        <ele>446.5</ele>
        <time>2017-04-17T08:59:40Z</time>
      </trkpt>
      <trkpt lat="44.30085" lon="2.0329">
        <ele>447.1</ele>
        <time>2017-04-17T08:59:45Z</time>
      </trkpt>
      <trkpt lat="44.30097" lon="2.03302">
        <ele>447.7</ele>
        <time>2017-04-17T08:59:50Z</time>
      </trkpt>
      <trkpt lat="44.30108" lon="2.03313">
        <ele>447.2</ele>
        <time>2017-04-17T08:59:55Z</time>
      </trkpt>
      <trkpt lat="44.30117" lon="2.03327">
        <ele>448.2</ele>
        <time>2017-04-17T09:00:00Z</time>
      </trkpt>
      <trkpt lat="44.30127" lon="2.0334">
        <ele>448.7</ele>
        <time>2017-04-17T09:00:05Z</time>
      </trkpt>
      <trkpt lat="44.30137" lon="2.03355">
        <ele>448.4</ele>
        <time>2017-04-17T09:00:10Z</time>
      </trkpt>
      <trkpt lat="44.30143" lon="2.03365">
        <ele>450</ele>
        <time>2017-04-17T09:00:15Z</time>
      </trkpt>
      <trkpt lat="44.3015" lon="2.0338">
        <ele>451</ele>
        <time>2017-04-17T09:00:20Z</time>
      </trkpt>
      <trkpt lat="44.30153" lon="2.03393">
        <ele>452.4</ele>
        <time>2017-04-17T09:00:25Z</time>
      </trkpt>
      <trkpt lat="44.3016" lon="2.03405">
        <ele>452.5</ele>
        <time>2017-04-17T09:00:30Z</time>
      </trkpt>
      <trkpt lat="44.30165" lon="2.03418">
        <ele>453.4</ele>
        <time>2017-04-17T09:00:35Z</time>
      </trkpt>
      <trkpt lat="44.30172" lon="2.0343">
        <ele>453.1</ele>
        <time>2017-04-17T09:00:40Z</time>
      </trkpt>
      <trkpt lat="44.30178" lon="2.03443">
        <ele>453.8</ele>
        <time>2017-04-17T09:00:45Z</time>
      </trkpt>
      <trkpt lat="44.30185" lon="2.03457">
        <ele>454.1</ele>
        <time>2017-04-17T09:00:50Z</time>
      </trkpt>
      <trkpt lat="44.3019" lon="2.0347">
        <ele>455.1</ele>
        <time>2017-04-17T09:00:55Z</time>
      </trkpt>
      <trkpt lat="44.30195" lon="2.03483">
        <ele>455.4</ele>
        <time>2017-04-17T09:01:00Z</time>
      </trkpt>
      <trkpt lat="44.302" lon="2.03493">
        <ele>456.4</ele>
        <time>2017-04-17T09:01:05Z</time>
      </trkpt>
      <trkpt lat="44.30203" lon="2.03505">
        <ele>457.8</ele>
        <time>2017-04-17T09:01:10Z</time>
      </trkpt>
      <trkpt lat="44.30207" lon="2.03517">
        <ele>458.7</ele>
        <time>2017-04-17T09:01:15Z</time>
      </trkpt>
      <trkpt lat="44.30208" lon="2.03528">
        <ele>459.2</ele>
        <time>2017-04-17T09:01:20Z</time>
      </trkpt>
      <trkpt lat="44.30207" lon="2.03542">
        <ele>460.4</ele>
        <time>2017-04-17T09:01:25Z</time>
      </trkpt>
      <trkpt lat="44.30203" lon="2.03552">
        <ele>461.4</ele>
        <time>2017-04-17T09:01:30Z</time>
      </trkpt>
      <trkpt lat="44.30202" lon="2.03565">
        <ele>462.4</ele>
        <time>2017-04-17T09:01:35Z</time>
      </trkpt>
      <trkpt lat="44.30198" lon="2.03575">
        <ele>463.1</ele>
        <time>2017-04-17T09:01:40Z</time>
      </trkpt>
      <trkpt lat="44.30195" lon="2.03587">
        <ele>463.8</ele>
        <time>2017-04-17T09:01:45Z</time>
      </trkpt>
      <trkpt lat="44.30193" lon="2.03598">
        <ele>464.4</ele>
        <time>2017-04-17T09:01:50Z</time>
      </trkpt>
      <trkpt lat="44.3019" lon="2.0361">
        <ele>465.8</ele>
        <time>2017-04-17T09:01:55Z</time>
      </trkpt>
      <trkpt lat="44.30187" lon="2.03622">
        <ele>466.2</ele>
        <time>2017-04-17T09:02:00Z</time>
      </trkpt>
      <trkpt lat="44.30185" lon="2.03633">
        <ele>467.3</ele>
        <time>2017-04-17T09:02:05Z</time>
      </trkpt>
      <trkpt lat="44.30183" lon="2.03645">
        <ele>467.8</ele>
        <time>2017-04-17T09:02:10Z</time>
      </trkpt>
      <trkpt lat="44.3018" lon="2.03657">
        <ele>468.6</ele>
        <time>2017-04-17T09:02:15Z</time>
      </trkpt>
      <trkpt lat="44.30178" lon="2.03667">
        <ele>469.7</ele>
        <time>2017-04-17T09:02:20Z</time>
      </trkpt>
      <trkpt lat="44.30178" lon="2.0368">
        <ele>470.1</ele>
        <time>2017-04-17T09:02:25Z</time>
      </trkpt>
      <trkpt lat="44.30178" lon="2.03692">
        <ele>470.5</ele>
        <time>2017-04-17T09:02:30Z</time>
      </trkpt>
      <trkpt lat="44.30178" lon="2.03705">
        <ele>472</ele>
        <time>2017-04-17T09:02:35Z</time>
      </trkpt>
      <trkpt lat="44.3018" lon="2.03718">
        <ele>472.4</ele>
        <time>2017-04-17T09:02:40Z</time>
      </trkpt>
      <trkpt lat="44.30182" lon="2.03732">
        <ele>473.5</ele>
        <time>2017-04-17T09:02:45Z</time>
      </trkpt>
      <trkpt lat="44.30183" lon="2.03743">
        <ele>474.4</ele>
        <time>2017-04-17T09:02:50Z</time>
      </trkpt>
      <trkpt lat="44.30185" lon="2.03755">
        <ele>475.2</ele>
        <time>2017-04-17T09:02:55Z</time>
      </trkpt>
      <trkpt lat="44.30188" lon="2.03768">
        <ele>475.2</ele>
        <time>2017-04-17T09:03:00Z</time>
      </trkpt>
      <trkpt lat="44.3019" lon="2.0378">
        <ele>476.3</ele>
        <time>2017-04-17T09:03:05Z</time>
      </trkpt>
      <trkpt lat="44.30193" lon="2.03792">
        <ele>476.9</ele>
        <time>2017-04-17T09:03:10Z</time>
      </trkpt>
      <trkpt lat="44.30195" lon="2.03802">
        <ele>477.6</ele>
        <time>2017-04-17T09:03:15Z</time>
      </trkpt>
      <trkpt lat="44.30198" lon="2.03813">
        <ele>478</ele>
        <time>2017-04-17T09:03:20Z</time>
      </trkpt>
      <trkpt lat="44.30202" lon="2.03825">
        <ele>478.6</ele>
        <time>2017-04-17T09:03:25Z</time>
      </trkpt>
      <trkpt lat="44.30205" lon="2.03837">
        <ele>480.2</ele>
        <time>2017-04-17T09:03:30Z</time>
      </trkpt>
      <trkpt lat="44.30207" lon="2.03847">
        <ele>480.6</ele>
        <time>2017-04-17T09:03:35Z</time>
      </trkpt>
      <trkpt lat="44.3021" lon="2.03858">
        <ele>481.2</ele>
        <time>2017-04-17T09:03:40Z</time>
      </trkpt>
      <trkpt lat="44.30213" lon="2.0387">
        <ele>482.1</ele>
        <time>2017-04-17T09:03:45Z</time>
      </trkpt>
      <trkpt lat="44.30215" lon="2.03882">
        <ele>482.6</ele>
        <time>2017-04-17T09:03:50Z</time>
      </trkpt>
      <trkpt lat="44.30218" lon="2.03893">
        <ele>483</ele>
        <time>2017-04-17T09:03:55Z</time>
      </trkpt>
      <trkpt lat="44.3022" lon="2.03903">
        <ele>484.7</ele>
        <time>2017-04-17T09:04:00Z</time>
      </trkpt>
      <trkpt lat="44.30222" lon="2.03917">
        <ele>485.6</ele>
        <time>2017-04-17T09:04:05Z</time>
      </trkpt>
      <trkpt lat="44.30225" lon="2.03927">
        <ele>486.2</ele>
        <time>2017-04-17T09:04:10Z</time>
      </trkpt>
      <trkpt lat="44.30228" lon="2.03938">
        <ele>487.1</ele>
        <time>2017-04-17T09:04:15Z</time>
      </trkpt>
      <trkpt lat="44.30232" lon="2.0395">
        <ele>487.7</ele>
        <time>2017-04-17T09:04:20Z</time>
      </trkpt>
      <trkpt lat="44.30237" lon="2.03962">
        <ele>488.4</ele>
        <time>2017-04-17T09:04:25Z</time>
      </trkpt>
      <trkpt lat="44.30242" lon="2.03975">
        <ele>489.7</ele>
        <time>2017-04-17T09:04:30Z</time>
      </trkpt>
      <trkpt lat="44.30248" lon="2.03987">
        <ele>490</ele>
        <time>2017-04-17T09:04:35Z</time>
      </trkpt>
      <trkpt lat="44.30255" lon="2.03998">
        <ele>490.4</ele>
        <time>2017-04-17T09:04:40Z</time>
      </trkpt>
      <trkpt lat="44.3026" lon="2.04012">
        <ele>491.2</ele>
        <time>2017-04-17T09:04:45Z</time>
      </trkpt>
      <trkpt lat="44.30267" lon="2.04023">
        <ele>491.9</ele>
        <time>2017-04-17T09:04:50Z</time>
      </trkpt>
      <trkpt lat="44.30273" lon="2.04037">
        <ele>492.5</ele>
        <time>2017-04-17T09:04:55Z</time>
      </trkpt>
      <trkpt lat="44.30282" lon="2.04047">
        <ele>492.6</ele>
        <time>2017-04-17T09:05:00Z</time>
      </trkpt>
      <trkpt lat="44.3029" lon="2.04062">
        <ele>492.6</ele>
        <time>2017-04-17T09:05:05Z</time>
      </trkpt>
      <trkpt lat="44.30298" lon="2.04077">
        <ele>494.2</ele>
        <time>2017-04-17T09:05:10Z</time>
      </trkpt>
      <trkpt lat="44.30305" lon="2.04095">
        <ele>494.7</ele>
        <time>2017-04-17T09:05:15Z</time>
      </trkpt>
      <trkpt lat="44.30312" lon="2.04112">
        <ele>494.7</ele>
        <time>2017-04-17T09:05:20Z</time>
      </trkpt>
      <trkpt lat="44.30317" lon="2.0413">
        <ele>495.2</ele>
        <time>2017-04-17T09:05:25Z</time>
      </trkpt>
      <trkpt lat="44.30322" lon="2.0415">
        <ele>496</ele>
        <time>2017-04-17T09:05:30Z</time>
      </trkpt>
      <trkpt lat="44.30327" lon="2.0417">
        <ele>496.7</ele>
        <time>2017-04-17T09:05:35Z</time>
      </trkpt>
      <trkpt lat="44.3033" lon="2.04188">
        <ele>497.8</ele>
        <time>2017-04-17T09:05:40Z</time>
      </trkpt>
      <trkpt lat="44.30333" lon="2.0421">
        <ele>497.4</ele>
        <time>2017-04-17T09:05:45Z</time>
      </trkpt>
      <trkpt lat="44.30332" lon="2.04233">
        <ele>497.8</ele>
        <time>2017-04-17T09:05:50Z</time>
      </trkpt>
      <trkpt lat="44.30325" lon="2.0426">
        <ele>498</ele>
        <time>2017-04-17T09:05:55Z</time>
      </trkpt>
      <trkpt lat="44.3032" lon="2.04287">
        <ele>497.3</ele>
        <time>2017-04-17T09:06:00Z</time>
      </trkpt>
      <trkpt lat="44.30312" lon="2.04313">
        <ele>497.1</ele>
        <time>2017-04-17T09:06:05Z</time>
      </trkpt>
      <trkpt lat="44.30305" lon="2.04343">
        <ele>497.6</ele>
        <time>2017-04-17T09:06:10Z</time>
      </trkpt>
      <trkpt lat="44.303" lon="2.04377">
        <ele>497.7</ele>
        <time>2017-04-17T09:06:15Z</time>
      </trkpt>
      <trkpt lat="44.30297" lon="2.04408">
        <ele>497.3</ele>
        <time>2017-04-17T09:06:20Z</time>
      </trkpt>
      <trkpt lat="44.30288" lon="2.04438">
        <ele>497</ele>
        <time>2017-04-17T09:06:25Z</time>
      </trkpt>
      <trkpt lat="44.30278" lon="2.04467">
        <ele>498.3</ele>
        <time>2017-04-17T09:06:30Z</time>
      </trkpt>
      <trkpt lat="44.3027" lon="2.04495">
        <ele>497.7</ele>
        <time>2017-04-17T09:06:35Z</time>
      </trkpt>
      <trkpt lat="44.30272" lon="2.04522">
        <ele>498.5</ele>
        <time>2017-04-17T09:06:40Z</time>
      </trkpt>
      <trkpt lat="44.3028" lon="2.0454">
        <ele>499.6</ele>
        <time>2017-04-17T09:06:45Z</time>
      </trkpt>
      <trkpt lat="44.30288" lon="2.04558">
        <ele>499</ele>
        <time>2017-04-17T09:06:50Z</time>
      </trkpt>
      <trkpt lat="44.30298" lon="2.04578">
        <ele>499.9</ele>
        <time>2017-04-17T09:06:55Z</time>
      </trkpt>
      <trkpt lat="44.30307" lon="2.04598">
        <ele>500.3</ele>
        <time>2017-04-17T09:07:00Z</time>
      </trkpt>
      <trkpt lat="44.30315" lon="2.04615">
        <ele>501.2</ele>
        <time>2017-04-17T09:07:05Z</time>
      </trkpt>
      <trkpt lat="44.30323" lon="2.04633">
        <ele>501.9</ele>
        <time>2017-04-17T09:07:10Z</time>
      </trkpt>
      <trkpt lat="44.30332" lon="2.0465">
        <ele>501.5</ele>
        <time>2017-04-17T09:07:15Z</time>
      </trkpt>
      <trkpt lat="44.3034" lon="2.0467">
        <ele>500.2</ele>
        <time>2017-04-17T09:07:20Z</time>
      </trkpt>
      <trkpt lat="44.30348" lon="2.04687">
        <ele>501.2</ele>
        <time>2017-04-17T09:07:25Z</time>
      </trkpt>
      <trkpt lat="44.30358" lon="2.047">
        <ele>500.7</ele>
        <time>2017-04-17T09:07:30Z</time>
      </trkpt>
      <trkpt lat="44.30372" lon="2.04705">
        <ele>501.7</ele>
        <time>2017-04-17T09:07:35Z</time>
      </trkpt>
      <trkpt lat="44.30387" lon="2.04702">
        <ele>502.8</ele>
        <time>2017-04-17T09:07:40Z</time>
      </trkpt>
      <trkpt lat="44.30398" lon="2.04697">
        <ele>503.5</ele>
        <time>2017-04-17T09:07:45Z</time>
      </trkpt>
      <trkpt lat="44.30412" lon="2.047">
        <ele>504.5</ele>
        <time>2017-04-17T09:07:50Z</time>
      </trkpt>
      <trkpt lat="44.30422" lon="2.04707">
        <ele>504.7</ele>
        <time>2017-04-17T09:07:55Z</time>
      </trkpt>
      <trkpt lat="44.30435" lon="2.04715">
        <ele>506.2</ele>
        <time>2017-04-17T09:08:00Z</time>
      </trkpt>
      <trkpt lat="44.30443" lon="2.04723">
        <ele>507.2</ele>
        <time>2017-04-17T09:08:05Z</time>
      </trkpt>
      <trkpt lat="44.30452" lon="2.04732">
        <ele>507.7</ele>
        <time>2017-04-17T09:08:10Z</time>
      </trkpt>
      <trkpt lat="44.30458" lon="2.0474">
        <ele>508.5</ele>
        <time>2017-04-17T09:08:15Z</time>
      </trkpt>
      <trkpt lat="44.30467" lon="2.04748">
        <ele>508.9</ele>
        <time>2017-04-17T09:08:20Z</time>
      </trkpt>
      <trkpt lat="44.30475" lon="2.04755">
        <ele>509.6</ele>
        <time>2017-04-17T09:08:25Z</time>
      </trkpt>
      <trkpt lat="44.30483" lon="2.04763">
        <ele>510.3</ele>
        <time>2017-04-17T09:08:30Z</time>
      </trkpt>
      <trkpt lat="44.30492" lon="2.0477">
        <ele>511.6</ele>
        <time>2017-04-17T09:08:35Z</time>
      </trkpt>
      <trkpt lat="44.305" lon="2.04777">
        <ele>512.3</ele>
        <time>2017-04-17T09:08:40Z</time>
      </trkpt>
      <trkpt lat="44.30508" lon="2.04787">
        <ele>513.1</ele>
        <time>2017-04-17T09:08:45Z</time>
      </trkpt>
      <trkpt lat="44.30515" lon="2.04793">
        <ele>513.8</ele>
        <time>2017-04-17T09:08:50Z</time>
      </trkpt>
      <trkpt lat="44.30523" lon="2.048">
        <ele>514.5</ele>
        <time>2017-04-17T09:08:55Z</time>
      </trkpt>
      <trkpt lat="44.3053" lon="2.04808">
        <ele>515</ele>
        <time>2017-04-17T09:09:00Z</time>
      </trkpt>
      <trkpt lat="44.3054" lon="2.04817">
        <ele>516.1</ele>
        <time>2017-04-17T09:09:05Z</time>
      </trkpt>
      <trkpt lat="44.30547" lon="2.04825">
        <ele>516.3</ele>
        <time>2017-04-17T09:09:10Z</time>
      </trkpt>
      <trkpt lat="44.30557" lon="2.04833">
        <ele>517.4</ele>
        <time>2017-04-17T09:09:15Z</time>
      </trkpt>
      <trkpt lat="44.30567" lon="2.04842">
        <ele>517.4</ele>
        <time>2017-04-17T09:09:20Z</time>
      </trkpt>
      <trkpt lat="44.30578" lon="2.04853">
        <ele>517.8</ele>
        <time>2017-04-17T09:09:25Z</time>
      </trkpt>
      <trkpt lat="44.3059" lon="2.04865">
        <ele>517.2</ele>
        <time>2017-04-17T09:09:30Z</time>
      </trkpt>
      <trkpt lat="44.30603" lon="2.04877">
        <ele>517.4</ele>
        <time>2017-04-17T09:09:35Z</time>
      </trkpt>
      <trkpt lat="44.30617" lon="2.0489">
        <ele>518.8</ele>
        <time>2017-04-17T09:09:40Z</time>
      </trkpt>
      <trkpt lat="44.30632" lon="2.04905">
        <ele>518</ele>
        <time>2017-04-17T09:09:45Z</time>
      </trkpt>
      <trkpt lat="44.30645" lon="2.04917">
        <ele>518.7</ele>
        <time>2017-04-17T09:09:50Z</time>
      </trkpt>
      <trkpt lat="44.30657" lon="2.0493">
        <ele>519.7</ele>
        <time>2017-04-17T09:09:55Z</time>
      </trkpt>
      <trkpt lat="44.30668" lon="2.04942">
        <ele>519.4</ele>
        <time>2017-04-17T09:10:00Z</time>
      </trkpt>
      <trkpt lat="44.30678" lon="2.04953">
        <ele>520.7</ele>
        <time>2017-04-17T09:10:05Z</time>
      </trkpt>
      <trkpt lat="44.3069" lon="2.04965">
        <ele>521.4</ele>
        <time>2017-04-17T09:10:10Z</time>
      </trkpt>
      <trkpt lat="44.30702" lon="2.04977">
        <ele>522</ele>
        <time>2017-04-17T09:10:15Z</time>
      </trkpt>
      <trkpt lat="44.30712" lon="2.04988">
        <ele>522.9</ele>
        <time>2017-04-17T09:10:20Z</time>
      </trkpt>
      <trkpt lat="44.30723" lon="2.05">
        <ele>523.7</ele>
        <time>2017-04-17T09:10:25Z</time>
      </trkpt>
      <trkpt lat="44.30737" lon="2.0501">
        <ele>524</ele>
        <time>2017-04-17T09:10:30Z</time>
      </trkpt>
      <trkpt lat="44.3075" lon="2.05023">
        <ele>524.1</ele>
        <time>2017-04-17T09:10:35Z</time>
      </trkpt>
      <trkpt lat="44.30767" lon="2.05038">
        <ele>524.5</ele>
        <time>2017-04-17T09:10:40Z</time>
      </trkpt>
      <trkpt lat="44.30782" lon="2.05053">
        <ele>524.1</ele>
        <time>2017-04-17T09:10:45Z</time>
      </trkpt>
      <trkpt lat="44.30798" lon="2.05068">
        <ele>524.1</ele>
        <time>2017-04-17T09:10:50Z</time>
      </trkpt>
      <trkpt lat="44.30815" lon="2.05085">
        <ele>524.6</ele>
        <time>2017-04-17T09:10:55Z</time>
      </trkpt>
      <trkpt lat="44.30833" lon="2.05102">
        <ele>523.6</ele>
        <time>2017-04-17T09:11:00Z</time>
      </trkpt>
      <trkpt lat="44.30852" lon="2.05118">
        <ele>525.2</ele>
        <time>2017-04-17T09:11:05Z</time>
      </trkpt>
      <trkpt lat="44.3087" lon="2.05135">
        <ele>523.9</ele>
        <time>2017-04-17T09:11:10Z</time>
      </trkpt>
      <trkpt lat="44.30888" lon="2.05153">
        <ele>525.8</ele>
        <time>2017-04-17T09:11:15Z</time>
      </trkpt>
      <trkpt lat="44.30908" lon="2.0517">
        <ele>525</ele>
        <time>2017-04-17T09:11:20Z</time>
      </trkpt>
      <trkpt lat="44.30925" lon="2.05187">
        <ele>525.4</ele>
        <time>2017-04-17T09:11:25Z</time>
      </trkpt>
      <trkpt lat="44.30943" lon="2.05203">
        <ele>526</ele>
        <time>2017-04-17T09:11:30Z</time>
      </trkpt>
      <trkpt lat="44.30967" lon="2.05225">
        <ele>522.6</ele>
        <time>2017-04-17T09:11:35Z</time>
      </trkpt>
      <trkpt lat="44.30992" lon="2.0525">
        <ele>522.6</ele>
        <time>2017-04-17T09:11:40Z</time>
      </trkpt>
      <trkpt lat="44.31012" lon="2.05247">
        <ele>522.7</ele>
        <time>2017-04-17T09:11:45Z</time>
      </trkpt>
      <trkpt lat="44.31015" lon="2.05218">
        <ele>523.5</ele>
        <time>2017-04-17T09:11:50Z</time>
      </trkpt>
      <trkpt lat="44.3102" lon="2.05192">
        <ele>523.8</ele>
        <time>2017-04-17T09:11:55Z</time>
      </trkpt>
      <trkpt lat="44.31027" lon="2.05167">
        <ele>523.1</ele>
        <time>2017-04-17T09:12:00Z</time>
      </trkpt>
      <trkpt lat="44.31035" lon="2.05143">
        <ele>524.3</ele>
        <time>2017-04-17T09:12:05Z</time>
      </trkpt>
      <trkpt lat="44.31045" lon="2.05125">
        <ele>524.8</ele>
        <time>2017-04-17T09:12:10Z</time>
      </trkpt>
      <trkpt lat="44.31053" lon="2.05108">
        <ele>526.4</ele>
        <time>2017-04-17T09:12:15Z</time>
      </trkpt>
      <trkpt lat="44.31057" lon="2.05093">
        <ele>527.5</ele>
        <time>2017-04-17T09:12:20Z</time>
      </trkpt>
      <trkpt lat="44.31063" lon="2.05078">
        <ele>527.4</ele>
        <time>2017-04-17T09:12:25Z</time>
      </trkpt>
      <trkpt lat="44.31068" lon="2.05063">
        <ele>529.3</ele>
        <time>2017-04-17T09:12:30Z</time>
      </trkpt>
      <trkpt lat="44.31073" lon="2.0505">
        <ele>529</ele>
        <time>2017-04-17T09:12:35Z</time>
      </trkpt>
      <trkpt lat="44.31077" lon="2.05035">
        <ele>529.2</ele>
        <time>2017-04-17T09:12:40Z</time>
      </trkpt>
      <trkpt lat="44.31083" lon="2.05018">
        <ele>529.7</ele>
        <time>2017-04-17T09:12:45Z</time>
      </trkpt>
      <trkpt lat="44.3109" lon="2.05">
        <ele>529.6</ele>
        <time>2017-04-17T09:12:50Z</time>
      </trkpt>
      <trkpt lat="44.31097" lon="2.04982">
        <ele>529.5</ele>
        <time>2017-04-17T09:12:55Z</time>
      </trkpt>
      <trkpt lat="44.31105" lon="2.0496">
        <ele>529.8</ele>
        <time>2017-04-17T09:13:00Z</time>
      </trkpt>
      <trkpt lat="44.31113" lon="2.04935">
        <ele>529.2</ele>
        <time>2017-04-17T09:13:05Z</time>
      </trkpt>
      <trkpt lat="44.31122" lon="2.04908">
        <ele>529.2</ele>
        <time>2017-04-17T09:13:10Z</time>
      </trkpt>
      <trkpt lat="44.3113" lon="2.04878">
        <ele>529</ele>
        <time>2017-04-17T09:13:15Z</time>
      </trkpt>
      <trkpt lat="44.31138" lon="2.04847">
        <ele>528.3</ele>
        <time>2017-04-17T09:13:20Z</time>
      </trkpt>
      <trkpt lat="44.31147" lon="2.04817">
        <ele>528.5</ele>
        <time>2017-04-17T09:13:25Z</time>
      </trkpt>
      <trkpt lat="44.31153" lon="2.04788">
        <ele>529.2</ele>
        <time>2017-04-17T09:13:30Z</time>
      </trkpt>
      <trkpt lat="44.3116" lon="2.04757">
        <ele>528</ele>
        <time>2017-04-17T09:13:35Z</time>
      </trkpt>
      <trkpt lat="44.31167" lon="2.04723">
        <ele>528.5</ele>
        <time>2017-04-17T09:13:40Z</time>
      </trkpt>
      <trkpt lat="44.31175" lon="2.0469">
        <ele>528.5</ele>
        <time>2017-04-17T09:13:45Z</time>
      </trkpt>
      <trkpt lat="44.31182" lon="2.04657">
        <ele>528.3</ele>
        <time>2017-04-17T09:13:50Z</time>
      </trkpt>
      <trkpt lat="44.31192" lon="2.04623">
        <ele>528.5</ele>
        <time>2017-04-17T09:13:55Z</time>
      </trkpt>
      <trkpt lat="44.312" lon="2.0459">
        <ele>527.1</ele>
        <time>2017-04-17T09:14:00Z</time>
      </trkpt>
      <trkpt lat="44.3121" lon="2.04553">
        <ele>527.1</ele>
        <time>2017-04-17T09:14:05Z</time>
      </trkpt>
      <trkpt lat="44.31222" lon="2.04513">
        <ele>527.7</ele>
        <time>2017-04-17T09:14:10Z</time>
      </trkpt>
      <trkpt lat="44.31237" lon="2.04473">
        <ele>525.9</ele>
        <time>2017-04-17T09:14:15Z</time>
      </trkpt>
      <trkpt lat="44.31255" lon="2.04433">
        <ele>523.9</ele>
        <time>2017-04-17T09:14:20Z</time>
      </trkpt>
      <trkpt lat="44.31278" lon="2.04395">
        <ele>522.8</ele>
        <time>2017-04-17T09:14:25Z</time>
      </trkpt>
      <trkpt lat="44.31302" lon="2.04362">
        <ele>521.2</ele>
        <time>2017-04-17T09:14:30Z</time>
      </trkpt>
      <trkpt lat="44.31327" lon="2.04332">
        <ele>521.1</ele>
        <time>2017-04-17T09:14:35Z</time>
      </trkpt>
      <trkpt lat="44.31348" lon="2.04303">
        <ele>521</ele>
        <time>2017-04-17T09:14:40Z</time>
      </trkpt>
      <trkpt lat="44.3137" lon="2.04278">
        <ele>520</ele>
        <time>2017-04-17T09:14:45Z</time>
      </trkpt>
      <trkpt lat="44.31392" lon="2.04252">
        <ele>520</ele>
        <time>2017-04-17T09:14:50Z</time>
      </trkpt>
      <trkpt lat="44.31413" lon="2.04227">
        <ele>520.3</ele>
        <time>2017-04-17T09:14:55Z</time>
      </trkpt>
      <trkpt lat="44.31433" lon="2.04203">
        <ele>520.5</ele>
        <time>2017-04-17T09:15:00Z</time>
      </trkpt>
      <trkpt lat="44.31455" lon="2.04182">
        <ele>519</ele>
        <time>2017-04-17T09:15:05Z</time>
      </trkpt>
      <trkpt lat="44.3148" lon="2.04163">
        <ele>520.4</ele>
        <time>2017-04-17T09:15:10Z</time>
      </trkpt>
      <trkpt lat="44.31507" lon="2.04148">
        <ele>518.5</ele>
        <time>2017-04-17T09:15:15Z</time>
      </trkpt>
      <trkpt lat="44.31532" lon="2.04133">
        <ele>518.6</ele>
        <time>2017-04-17T09:15:20Z</time>
      </trkpt>
      <trkpt lat="44.31557" lon="2.04117">
        <ele>516.7</ele>
        <time>2017-04-17T09:15:25Z</time>
      </trkpt>
      <trkpt lat="44.3158" lon="2.04103">
        <ele>516.6</ele>
        <time>2017-04-17T09:15:30Z</time>
      </trkpt>
      <trkpt lat="44.31603" lon="2.04088">
        <ele>516.9</ele>
        <time>2017-04-17T09:15:35Z</time>
      </trkpt>
      <trkpt lat="44.31628" lon="2.04072">
        <ele>516.5</ele>
        <time>2017-04-17T09:15:40Z</time>
      </trkpt>
      <trkpt lat="44.31655" lon="2.0406">
        <ele>514.5</ele>
        <time>2017-04-17T09:15:45Z</time>
      </trkpt>
      <trkpt lat="44.31685" lon="2.04053">
        <ele>514.5</ele>
        <time>2017-04-17T09:15:50Z</time>
      </trkpt>
      <trkpt lat="44.31713" lon="2.0405">
        <ele>511.7</ele>
        <time>2017-04-17T09:15:55Z</time>
      </trkpt>
      <trkpt lat="44.31745" lon="2.04045">
        <ele>513.1</ele>
        <time>2017-04-17T09:16:00Z</time>
      </trkpt>
      <trkpt lat="44.31773" lon="2.04033">
        <ele>512.1</ele>
        <time>2017-04-17T09:16:05Z</time>
      </trkpt>
      <trkpt lat="44.31798" lon="2.0402">
        <ele>510.8</ele>
        <time>2017-04-17T09:16:10Z</time>
      </trkpt>
      <trkpt lat="44.31817" lon="2.04013">
        <ele>510.7</ele>
        <time>2017-04-17T09:16:15Z</time>
      </trkpt>
      <trkpt lat="44.31817" lon="2.04012">
        <ele>510.1</ele>
        <time>2017-04-17T09:16:20Z</time>
      </trkpt>
      <trkpt lat="44.31815" lon="2.0401">
        <ele>509.4</ele>
        <time>2017-04-17T09:19:20Z</time>
      </trkpt>
      <trkpt lat="44.31828" lon="2.04002">
        <ele>510.1</ele>
        <time>2017-04-17T09:19:25Z</time>
      </trkpt>
      <trkpt lat="44.31842" lon="2.0399">
        <ele>510.3</ele>
        <time>2017-04-17T09:19:30Z</time>
      </trkpt>
      <trkpt lat="44.31857" lon="2.03977">
        <ele>509.6</ele>
        <time>2017-04-17T09:19:35Z</time>
      </trkpt>
      <trkpt lat="44.3188" lon="2.03968">
        <ele>509.3</ele>
        <time>2017-04-17T09:19:40Z</time>
      </trkpt>
      <trkpt lat="44.31903" lon="2.03962">
        <ele>510.5</ele>
        <time>2017-04-17T09:19:45Z</time>
      </trkpt>
      <trkpt lat="44.31932" lon="2.03953">
        <ele>509.6</ele>
        <time>2017-04-17T09:19:50Z</time>
      </trkpt>
      <trkpt lat="44.31958" lon="2.03938">
        <ele>507.5</ele>
        <time>2017-04-17T09:19:55Z</time>
      </trkpt>
      <trkpt lat="44.3198" lon="2.0392">
        <ele>508.7</ele>
        <time>2017-04-17T09:20:00Z</time>
      </trkpt>
      <trkpt lat="44.32005" lon="2.03912">
        <ele>505.3</ele>
        <time>2017-04-17T09:20:05Z</time>
      </trkpt>
      <trkpt lat="44.32025" lon="2.03913">
        <ele>506</ele>
        <time>2017-04-17T09:20:10Z</time>
      </trkpt>
      <trkpt lat="44.32047" lon="2.03907">
        <ele>504.4</ele>
        <time>2017-04-17T09:20:15Z</time>
      </trkpt>
      <trkpt lat="44.32072" lon="2.03888">
        <ele>505.1</ele>
        <time>2017-04-17T09:20:20Z</time>
      </trkpt>
      <trkpt lat="44.32093" lon="2.03882">
        <ele>502.5</ele>
        <time>2017-04-17T09:20:25Z</time>
      </trkpt>
      <trkpt lat="44.32113" lon="2.03877">
        <ele>502.8</ele>
        <time>2017-04-17T09:20:30Z</time>
      </trkpt>
      <trkpt lat="44.32132" lon="2.03865">
        <ele>504.6</ele>
        <time>2017-04-17T09:20:35Z</time>
      </trkpt>
      <trkpt lat="44.32155" lon="2.03858">
        <ele>499.8</ele>
        <time>2017-04-17T09:20:40Z</time>
      </trkpt>
      <trkpt lat="44.32178" lon="2.03848">
        <ele>501.2</ele>
        <time>2017-04-17T09:20:45Z</time>
      </trkpt>
      <trkpt lat="44.32203" lon="2.0384">
        <ele>500.5</ele>
        <time>2017-04-17T09:20:50Z</time>
      </trkpt>
      <trkpt lat="44.3223" lon="2.03832">
        <ele>497</ele>
        <time>2017-04-17T09:20:55Z</time>
      </trkpt>
      <trkpt lat="44.32252" lon="2.03822">
        <ele>499</ele>
        <time>2017-04-17T09:21:00Z</time>
      </trkpt>
      <trkpt lat="44.32258" lon="2.03815">
        <ele>497.6</ele>
        <time>2017-04-17T09:21:05Z</time>
      </trkpt>
      <trkpt lat="44.32268" lon="2.03808">
        <ele>497.7</ele>
        <time>2017-04-17T09:21:10Z</time>
      </trkpt>
      <trkpt lat="44.32285" lon="2.03792">
        <ele>500.4</ele>
        <time>2017-04-17T09:21:15Z</time>
      </trkpt>
      <trkpt lat="44.32305" lon="2.03772">
        <ele>497.8</ele>
        <time>2017-04-17T09:21:20Z</time>
      </trkpt>
      <trkpt lat="44.32328" lon="2.0375">
        <ele>496.6</ele>
        <time>2017-04-17T09:21:25Z</time>
      </trkpt>
      <trkpt lat="44.32352" lon="2.03725">
        <ele>492.1</ele>
        <time>2017-04-17T09:21:30Z</time>
      </trkpt>
      <trkpt lat="44.32375" lon="2.03692">
        <ele>496.2</ele>
        <time>2017-04-17T09:21:35Z</time>
      </trkpt>
      <trkpt lat="44.32402" lon="2.03662">
        <ele>488.3</ele>
        <time>2017-04-17T09:21:40Z</time>
      </trkpt>
      <trkpt lat="44.32432" lon="2.03635">
        <ele>484</ele>
        <time>2017-04-17T09:21:45Z</time>
      </trkpt>
      <trkpt lat="44.3246" lon="2.03613">
        <ele>486.4</ele>
        <time>2017-04-17T09:21:50Z</time>
      </trkpt>
      <trkpt lat="44.32487" lon="2.0359">
        <ele>481.3</ele>
        <time>2017-04-17T09:21:55Z</time>
      </trkpt>
      <trkpt lat="44.32517" lon="2.03565">
        <ele>483.1</ele>
        <time>2017-04-17T09:22:00Z</time>
      </trkpt>
      <trkpt lat="44.32548" lon="2.03548">
        <ele>476.3</ele>
        <time>2017-04-17T09:22:05Z</time>
      </trkpt>
      <trkpt lat="44.32563" lon="2.03523">
        <ele>474.8</ele>
        <time>2017-04-17T09:22:10Z</time>
      </trkpt>
      <trkpt lat="44.32587" lon="2.03533">
        <ele>470.9</ele>
        <time>2017-04-17T09:22:15Z</time>
      </trkpt>
      <trkpt lat="44.32603" lon="2.03548">
        <ele>471.4</ele>
        <time>2017-04-17T09:22:20Z</time>
      </trkpt>
      <trkpt lat="44.32618" lon="2.03528">
        <ele>472.2</ele>
        <time>2017-04-17T09:22:25Z</time>
      </trkpt>
      <trkpt lat="44.32635" lon="2.03505">
        <ele>471.7</ele>
        <time>2017-04-17T09:22:30Z</time>
      </trkpt>
      <trkpt lat="44.3266" lon="2.03488">
        <ele>466.1</ele>
        <time>2017-04-17T09:22:35Z</time>
      </trkpt>
      <trkpt lat="44.32683" lon="2.03458">
        <ele>466.1</ele>
        <time>2017-04-17T09:22:40Z</time>
      </trkpt>
      <trkpt lat="44.32705" lon="2.03432">
        <ele>460</ele>
        <time>2017-04-17T09:22:45Z</time>
      </trkpt>
      <trkpt lat="44.32723" lon="2.03422">
        <ele>457</ele>
        <time>2017-04-17T09:22:50Z</time>
      </trkpt>
      <trkpt lat="44.32745" lon="2.0341">
        <ele>452.6</ele>
        <time>2017-04-17T09:22:55Z</time>
      </trkpt>
      <trkpt lat="44.32762" lon="2.03393">
        <ele>451</ele>
        <time>2017-04-17T09:23:00Z</time>
      </trkpt>
      <trkpt lat="44.32775" lon="2.03373">
        <ele>447.5</ele>
        <time>2017-04-17T09:23:05Z</time>
      </trkpt>
      <trkpt lat="44.32782" lon="2.03367">
        <ele>444</ele>
        <time>2017-04-17T09:23:10Z</time>
      </trkpt>
      <trkpt lat="44.32795" lon="2.03352">
        <ele>438.7</ele>
        <time>2017-04-17T09:23:15Z</time>
      </trkpt>
      <trkpt lat="44.32808" lon="2.03335">
        <ele>436</ele>
        <time>2017-04-17T09:23:20Z</time>
      </trkpt>
      <trkpt lat="44.32812" lon="2.03338">
        <ele>434.6</ele>
        <time>2017-04-17T09:23:25Z</time>
      </trkpt>
      <trkpt lat="44.32813" lon="2.0334">
        <ele>434.1</ele>
        <time>2017-04-17T09:23:45Z</time>
      </trkpt>
      <trkpt lat="44.3283" lon="2.03348">
        <ele>433.7</ele>
        <time>2017-04-17T09:23:50Z</time>
      </trkpt>
      <trkpt lat="44.32847" lon="2.03338">
        <ele>428.7</ele>
        <time>2017-04-17T09:23:55Z</time>
      </trkpt>
      <trkpt lat="44.32862" lon="2.03323">
        <ele>421.9</ele>
        <time>2017-04-17T09:24:00Z</time>
      </trkpt>
      <trkpt lat="44.32882" lon="2.03313">
        <ele>422.9</ele>
        <time>2017-04-17T09:24:05Z</time>
      </trkpt>
      <trkpt lat="44.32893" lon="2.03317">
        <ele>417.9</ele>
        <time>2017-04-17T09:24:10Z</time>
      </trkpt>
      <trkpt lat="44.32908" lon="2.03313">
        <ele>409.6</ele>
        <time>2017-04-17T09:24:15Z</time>
      </trkpt>
      <trkpt lat="44.32922" lon="2.03292">
        <ele>410.9</ele>
        <time>2017-04-17T09:24:20Z</time>
      </trkpt>
      <trkpt lat="44.32917" lon="2.03262">
        <ele>407.3</ele>
        <time>2017-04-17T09:24:25Z</time>
      </trkpt>
      <trkpt lat="44.329" lon="2.03238">
        <ele>408</ele>
        <time>2017-04-17T09:24:30Z</time>
      </trkpt>
      <trkpt lat="44.3288" lon="2.03228">
        <ele>406</ele>
        <time>2017-04-17T09:24:35Z</time>
      </trkpt>
      <trkpt lat="44.3286" lon="2.03215">
        <ele>408.2</ele>
        <time>2017-04-17T09:24:40Z</time>
      </trkpt>
      <trkpt lat="44.32837" lon="2.03198">
        <ele>404.9</ele>
        <time>2017-04-17T09:24:45Z</time>
      </trkpt>
      <trkpt lat="44.32818" lon="2.03177">
        <ele>402.9</ele>
        <time>2017-04-17T09:24:50Z</time>
      </trkpt>
      <trkpt lat="44.328" lon="2.03157">
        <ele>401.8</ele>
        <time>2017-04-17T09:24:55Z</time>
      </trkpt>
      <trkpt lat="44.32782" lon="2.03133">
        <ele>402.1</ele>
        <time>2017-04-17T09:25:00Z</time>
      </trkpt>
      <trkpt lat="44.3276" lon="2.03127">
        <ele>398.5</ele>
        <time>2017-04-17T09:25:05Z</time>
      </trkpt>
      <trkpt lat="44.32745" lon="2.03127">
        <ele>391.5</ele>
        <time>2017-04-17T09:25:10Z</time>
      </trkpt>
      <trkpt lat="44.32747" lon="2.03115">
        <ele>390.1</ele>
        <time>2017-04-17T09:25:15Z</time>
      </trkpt>
      <trkpt lat="44.3276" lon="2.03092">
        <ele>385.4</ele>
        <time>2017-04-17T09:25:20Z</time>
      </trkpt>
      <trkpt lat="44.32773" lon="2.03072">
        <ele>383.9</ele>
        <time>2017-04-17T09:25:25Z</time>
      </trkpt>
      <trkpt lat="44.3279" lon="2.03052">
        <ele>379.6</ele>
        <time>2017-04-17T09:25:30Z</time>
      </trkpt>
      <trkpt lat="44.32812" lon="2.0304">
        <ele>374.7</ele>
        <time>2017-04-17T09:25:35Z</time>
      </trkpt>
      <trkpt lat="44.32827" lon="2.0304">
        <ele>373.1</ele>
        <time>2017-04-17T09:25:40Z</time>
      </trkpt>
      <trkpt lat="44.32842" lon="2.03038">
        <ele>362.9</ele>
        <time>2017-04-17T09:25:45Z</time>
      </trkpt>
      <trkpt lat="44.32852" lon="2.0305">
        <ele>364.2</ele>
        <time>2017-04-17T09:25:50Z</time>
      </trkpt>
      <trkpt lat="44.32863" lon="2.03063">
        <ele>356.9</ele>
        <time>2017-04-17T09:25:55Z</time>
      </trkpt>
      <trkpt lat="44.3287" lon="2.03077">
        <ele>360.4</ele>
        <time>2017-04-17T09:26:00Z</time>
      </trkpt>
      <trkpt lat="44.32883" lon="2.03087">
        <ele>352.2</ele>
        <time>2017-04-17T09:26:05Z</time>
      </trkpt>
      <trkpt lat="44.32888" lon="2.0309">
        <ele>351.1</ele>
        <time>2017-04-17T09:26:10Z</time>
      </trkpt>
      <trkpt lat="44.32888" lon="2.0309">
        <ele>351</ele>
        <time>2017-04-17T09:26:15Z</time>
      </trkpt>
      <trkpt lat="44.32903" lon="2.0309">
        <ele>348.3</ele>
        <time>2017-04-17T09:26:30Z</time>
      </trkpt>
      <trkpt lat="44.32923" lon="2.031">
        <ele>346</ele>
        <time>2017-04-17T09:26:35Z</time>
      </trkpt>
      <trkpt lat="44.32943" lon="2.03115">
        <ele>337.6</ele>
        <time>2017-04-17T09:26:40Z</time>
      </trkpt>
      <trkpt lat="44.32968" lon="2.03132">
        <ele>338.6</ele>
        <time>2017-04-17T09:26:45Z</time>
      </trkpt>
      <trkpt lat="44.3299" lon="2.03142">
        <ele>333.6</ele>
        <time>2017-04-17T09:26:50Z</time>
      </trkpt>
      <trkpt lat="44.33007" lon="2.03152">
        <ele>331.2</ele>
        <time>2017-04-17T09:26:55Z</time>
      </trkpt>
      <trkpt lat="44.33027" lon="2.03162">
        <ele>326.2</ele>
        <time>2017-04-17T09:27:00Z</time>
      </trkpt>
      <trkpt lat="44.33045" lon="2.03172">
        <ele>319.3</ele>
        <time>2017-04-17T09:27:05Z</time>
      </trkpt>
      <trkpt lat="44.33063" lon="2.03183">
        <ele>316.3</ele>
        <time>2017-04-17T09:27:10Z</time>
      </trkpt>
      <trkpt lat="44.33078" lon="2.032">
        <ele>313.6</ele>
        <time>2017-04-17T09:27:15Z</time>
      </trkpt>
      <trkpt lat="44.33093" lon="2.0321">
        <ele>311.1</ele>
        <time>2017-04-17T09:27:20Z</time>
      </trkpt>
      <trkpt lat="44.33107" lon="2.03213">
        <ele>309.2</ele>
        <time>2017-04-17T09:27:25Z</time>
      </trkpt>
      <trkpt lat="44.33122" lon="2.03218">
        <ele>303.3</ele>
        <time>2017-04-17T09:27:30Z</time>
      </trkpt>
      <trkpt lat="44.33133" lon="2.03222">
        <ele>299.7</ele>
        <time>2017-04-17T09:27:35Z</time>
      </trkpt>
      <trkpt lat="44.33148" lon="2.03228">
        <ele>296.9</ele>
        <time>2017-04-17T09:27:40Z</time>
      </trkpt>
      <trkpt lat="44.33162" lon="2.03237">
        <ele>291.7</ele>
        <time>2017-04-17T09:27:45Z</time>
      </trkpt>
      <trkpt lat="44.33178" lon="2.03247">
        <ele>290.8</ele>
        <time>2017-04-17T09:27:50Z</time>
      </trkpt>
      <trkpt lat="44.33185" lon="2.03263">
        <ele>285.8</ele>
        <time>2017-04-17T09:27:55Z</time>
      </trkpt>
      <trkpt lat="44.33197" lon="2.03287">
        <ele>285.2</ele>
        <time>2017-04-17T09:28:00Z</time>
      </trkpt>
      <trkpt lat="44.33208" lon="2.03318">
        <ele>287.9</ele>
        <time>2017-04-17T09:28:05Z</time>
      </trkpt>
      <trkpt lat="44.33218" lon="2.03338">
        <ele>278.3</ele>
        <time>2017-04-17T09:28:10Z</time>
      </trkpt>
      <trkpt lat="44.33225" lon="2.03353">
        <ele>276.8</ele>
        <time>2017-04-17T09:28:15Z</time>
      </trkpt>
      <trkpt lat="44.33227" lon="2.03357">
        <ele>275</ele>
        <time>2017-04-17T09:28:20Z</time>
      </trkpt>
      <trkpt lat="44.33227" lon="2.03362">
        <ele>273.8</ele>
        <time>2017-04-17T09:28:30Z</time>
      </trkpt>
      <trkpt lat="44.33232" lon="2.03365">
        <ele>272.6</ele>
        <time>2017-04-17T09:28:35Z</time>
      </trkpt>
      <trkpt lat="44.33238" lon="2.03347">
        <ele>269.2</ele>
        <time>2017-04-17T09:28:40Z</time>
      </trkpt>
      <trkpt lat="44.33247" lon="2.03318">
        <ele>265.5</ele>
        <time>2017-04-17T09:28:45Z</time>
      </trkpt>
      <trkpt lat="44.33257" lon="2.03292">
        <ele>262.9</ele>
        <time>2017-04-17T09:28:50Z</time>
      </trkpt>
      <trkpt lat="44.33263" lon="2.0327">
        <ele>254.7</ele>
        <time>2017-04-17T09:28:55Z</time>
      </trkpt>
      <trkpt lat="44.3327" lon="2.03248">
        <ele>250.8</ele>
        <time>2017-04-17T09:29:00Z</time>
      </trkpt>
      <trkpt lat="44.33265" lon="2.03235">
        <ele>248.6</ele>
        <time>2017-04-17T09:29:05Z</time>
      </trkpt>
      <trkpt lat="44.33273" lon="2.0323">
        <ele>247.6</ele>
        <time>2017-04-17T09:29:10Z</time>
      </trkpt>
      <trkpt lat="44.33288" lon="2.03237">
        <ele>247.4</ele>
        <time>2017-04-17T09:29:15Z</time>
      </trkpt>
      <trkpt lat="44.33308" lon="2.0325">
        <ele>246.2</ele>
        <time>2017-04-17T09:29:20Z</time>
      </trkpt>
      <trkpt lat="44.3333" lon="2.03268">
        <ele>245.3</ele>
        <time>2017-04-17T09:29:25Z</time>
      </trkpt>
      <trkpt lat="44.33352" lon="2.03287">
        <ele>244.9</ele>
        <time>2017-04-17T09:29:30Z</time>
      </trkpt>
      <trkpt lat="44.33367" lon="2.03302">
        <ele>245.2</ele>
        <time>2017-04-17T09:29:35Z</time>
      </trkpt>
      <trkpt lat="44.33382" lon="2.03313">
        <ele>244.4</ele>
        <time>2017-04-17T09:29:40Z</time>
      </trkpt>
      <trkpt lat="44.33395" lon="2.03312">
        <ele>245.3</ele>
        <time>2017-04-17T09:29:45Z</time>
      </trkpt>
      <trkpt lat="44.33403" lon="2.03297">
        <ele>246.5</ele>
        <time>2017-04-17T09:29:50Z</time>
      </trkpt>
      <trkpt lat="44.3341" lon="2.0328">
        <ele>247.5</ele>
        <time>2017-04-17T09:29:55Z</time>
      </trkpt>
      <trkpt lat="44.3341" lon="2.0326">
        <ele>245.9</ele>
        <time>2017-04-17T09:30:00Z</time>
      </trkpt>
      <trkpt lat="44.3341" lon="2.03242">
        <ele>246.3</ele>
        <time>2017-04-17T09:30:05Z</time>
      </trkpt>
      <trkpt lat="44.3341" lon="2.03222">
        <ele>246.5</ele>
        <time>2017-04-17T09:30:10Z</time>
      </trkpt>
      <trkpt lat="44.3341" lon="2.03198">
        <ele>245.9</ele>
        <time>2017-04-17T09:30:15Z</time>
      </trkpt>
      <trkpt lat="44.33412" lon="2.03173">
        <ele>245</ele>
        <time>2017-04-17T09:30:20Z</time>
      </trkpt>
      <trkpt lat="44.33412" lon="2.03145">
        <ele>245.4</ele>
        <time>2017-04-17T09:30:25Z</time>
      </trkpt>
      <trkpt lat="44.33412" lon="2.03113">
        <ele>245.4</ele>
        <time>2017-04-17T09:30:30Z</time>
      </trkpt>
      <trkpt lat="44.3341" lon="2.0308">
        <ele>246.1</ele>
        <time>2017-04-17T09:30:35Z</time>
      </trkpt>
      <trkpt lat="44.33412" lon="2.03047">
        <ele>245.7</ele>
        <time>2017-04-17T09:30:40Z</time>
      </trkpt>
      <trkpt lat="44.33412" lon="2.03013">
        <ele>245.7</ele>
        <time>2017-04-17T09:30:45Z</time>
      </trkpt>
      <trkpt lat="44.33415" lon="2.02983">
        <ele>245.6</ele>
        <time>2017-04-17T09:30:50Z</time>
      </trkpt>
      <trkpt lat="44.33417" lon="2.02953">
        <ele>246.3</ele>
        <time>2017-04-17T09:30:55Z</time>
      </trkpt>
      <trkpt lat="44.3342" lon="2.02922">
        <ele>246.5</ele>
        <time>2017-04-17T09:31:00Z</time>
      </trkpt>
      <trkpt lat="44.33422" lon="2.02893">
        <ele>247.1</ele>
        <time>2017-04-17T09:31:05Z</time>
      </trkpt>
      <trkpt lat="44.33425" lon="2.02865">
        <ele>247.7</ele>
        <time>2017-04-17T09:31:10Z</time>
      </trkpt>
      <trkpt lat="44.33427" lon="2.02837">
        <ele>247</ele>
        <time>2017-04-17T09:31:15Z</time>
      </trkpt>
      <trkpt lat="44.33423" lon="2.02808">
        <ele>247.5</ele>
        <time>2017-04-17T09:31:20Z</time>
      </trkpt>
      <trkpt lat="44.33417" lon="2.0278">
        <ele>247.8</ele>
        <time>2017-04-17T09:31:25Z</time>
      </trkpt>
      <trkpt lat="44.3341" lon="2.02753">
        <ele>248.4</ele>
        <time>2017-04-17T09:31:30Z</time>
      </trkpt>
      <trkpt lat="44.33403" lon="2.02725">
        <ele>248.8</ele>
        <time>2017-04-17T09:31:35Z</time>
      </trkpt>
      <trkpt lat="44.33395" lon="2.02697">
        <ele>248.2</ele>
        <time>2017-04-17T09:31:40Z</time>
      </trkpt>
      <trkpt lat="44.3339" lon="2.0267">
        <ele>247.8</ele>
        <time>2017-04-17T09:31:45Z</time>
      </trkpt>
      <trkpt lat="44.33395" lon="2.0265">
        <ele>248.9</ele>
        <time>2017-04-17T09:31:50Z</time>
      </trkpt>
      <trkpt lat="44.3341" lon="2.02638">
        <ele>248.8</ele>
        <time>2017-04-17T09:31:55Z</time>
      </trkpt>
      <trkpt lat="44.33422" lon="2.0263">
        <ele>249.3</ele>
        <time>2017-04-17T09:32:00Z</time>
      </trkpt>
      <trkpt lat="44.33433" lon="2.02622">
        <ele>251.1</ele>
        <time>2017-04-17T09:32:05Z</time>
      </trkpt>
      <trkpt lat="44.33443" lon="2.02615">
        <ele>251.6</ele>
        <time>2017-04-17T09:32:10Z</time>
      </trkpt>
      <trkpt lat="44.33453" lon="2.02605">
        <ele>252.8</ele>
        <time>2017-04-17T09:32:15Z</time>
      </trkpt>
      <trkpt lat="44.33463" lon="2.02595">
        <ele>252.4</ele>
        <time>2017-04-17T09:32:20Z</time>
      </trkpt>
      <trkpt lat="44.33473" lon="2.02582">
        <ele>253.1</ele>
        <time>2017-04-17T09:32:25Z</time>
      </trkpt>
      <trkpt lat="44.33483" lon="2.02567">
        <ele>252.9</ele>
        <time>2017-04-17T09:32:30Z</time>
      </trkpt>
      <trkpt lat="44.33497" lon="2.02548">
        <ele>252.5</ele>
        <time>2017-04-17T09:32:35Z</time>
      </trkpt>
      <trkpt lat="44.33512" lon="2.02528">
        <ele>252.3</ele>
        <time>2017-04-17T09:32:40Z</time>
      </trkpt>
      <trkpt lat="44.33525" lon="2.0251">
        <ele>251.8</ele>
        <time>2017-04-17T09:32:45Z</time>
      </trkpt>
      <trkpt lat="44.3354" lon="2.0249">
        <ele>252.8</ele>
        <time>2017-04-17T09:32:50Z</time>
      </trkpt>
      <trkpt lat="44.33555" lon="2.0247">
        <ele>252.7</ele>
        <time>2017-04-17T09:32:55Z</time>
      </trkpt>
      <trkpt lat="44.3357" lon="2.02452">
        <ele>253.1</ele>
        <time>2017-04-17T09:33:00Z</time>
      </trkpt>
      <trkpt lat="44.33583" lon="2.02433">
        <ele>253.3</ele>
        <time>2017-04-17T09:33:05Z</time>
      </trkpt>
      <trkpt lat="44.33598" lon="2.02415">
        <ele>254</ele>
        <time>2017-04-17T09:33:10Z</time>
      </trkpt>
      <trkpt lat="44.33613" lon="2.02393">
        <ele>254.4</ele>
        <time>2017-04-17T09:33:15Z</time>
      </trkpt>
      <trkpt lat="44.33627" lon="2.0237">
        <ele>252.8</ele>
        <time>2017-04-17T09:33:20Z</time>
      </trkpt>
      <trkpt lat="44.33638" lon="2.02347">
        <ele>252.9</ele>
        <time>2017-04-17T09:33:25Z</time>
      </trkpt>
      <trkpt lat="44.33647" lon="2.0232">
        <ele>252.1</ele>
        <time>2017-04-17T09:33:30Z</time>
      </trkpt>
      <trkpt lat="44.33655" lon="2.02292">
        <ele>251.9</ele>
        <time>2017-04-17T09:33:35Z</time>
      </trkpt>
      <trkpt lat="44.33658" lon="2.02263">
        <ele>252.1</ele>
        <time>2017-04-17T09:33:40Z</time>
      </trkpt>
      <trkpt lat="44.33663" lon="2.02235">
        <ele>252.7</ele>
        <time>2017-04-17T09:33:45Z</time>
      </trkpt>
      <trkpt lat="44.3367" lon="2.02208">
        <ele>252.4</ele>
        <time>2017-04-17T09:33:50Z</time>
      </trkpt>
      <trkpt lat="44.33678" lon="2.0219">
        <ele>253.8</ele>
        <time>2017-04-17T09:33:55Z</time>
      </trkpt>
      <trkpt lat="44.33682" lon="2.0218">
        <ele>254.9</ele>
        <time>2017-04-17T09:34:00Z</time>
      </trkpt>
      <trkpt lat="44.33683" lon="2.0217">
        <ele>255.2</ele>
        <time>2017-04-17T09:34:05Z</time>
      </trkpt>
      <trkpt lat="44.33682" lon="2.02168">
        <ele>256</ele>
        <time>2017-04-17T09:34:10Z</time>
      </trkpt>
      <trkpt lat="44.33683" lon="2.02162">
        <ele>255.8</ele>
        <time>2017-04-17T09:34:20Z</time>
      </trkpt>
      <trkpt lat="44.33683" lon="2.0215">
        <ele>256.4</ele>
        <time>2017-04-17T09:34:25Z</time>
      </trkpt>
      <trkpt lat="44.33682" lon="2.0214">
        <ele>257.1</ele>
        <time>2017-04-17T09:34:30Z</time>
      </trkpt>
      <trkpt lat="44.33682" lon="2.02128">
        <ele>257.2</ele>
        <time>2017-04-17T09:34:35Z</time>
      </trkpt>
      <trkpt lat="44.3368" lon="2.02117">
        <ele>258.3</ele>
        <time>2017-04-17T09:34:40Z</time>
      </trkpt>
      <trkpt lat="44.3368" lon="2.02103">
        <ele>259.2</ele>
        <time>2017-04-17T09:34:45Z</time>
      </trkpt>
      <trkpt lat="44.3368" lon="2.02092">
        <ele>260.4</ele>
        <time>2017-04-17T09:34:50Z</time>
      </trkpt>
      <trkpt lat="44.33678" lon="2.02078">
        <ele>261.4</ele>
        <time>2017-04-17T09:34:55Z</time>
      </trkpt>
      <trkpt lat="44.33675" lon="2.02068">
        <ele>262.2</ele>
        <time>2017-04-17T09:35:00Z</time>
      </trkpt>
      <trkpt lat="44.33673" lon="2.02055">
        <ele>262.3</ele>
        <time>2017-04-17T09:35:05Z</time>
      </trkpt>
      <trkpt lat="44.33672" lon="2.02042">
        <ele>261.9</ele>
        <time>2017-04-17T09:35:10Z</time>
      </trkpt>
      <trkpt lat="44.33668" lon="2.02027">
        <ele>262.4</ele>
        <time>2017-04-17T09:35:15Z</time>
      </trkpt>
      <trkpt lat="44.33667" lon="2.02013">
        <ele>263.6</ele>
        <time>2017-04-17T09:35:20Z</time>
      </trkpt>
      <trkpt lat="44.33663" lon="2.02">
        <ele>264.2</ele>
        <time>2017-04-17T09:35:25Z</time>
      </trkpt>
      <trkpt lat="44.33662" lon="2.01985">
        <ele>264.6</ele>
        <time>2017-04-17T09:35:30Z</time>
      </trkpt>
      <trkpt lat="44.3366" lon="2.01973">
        <ele>265</ele>
        <time>2017-04-17T09:35:35Z</time>
      </trkpt>
      <trkpt lat="44.3366" lon="2.01962">
        <ele>266.2</ele>
        <time>2017-04-17T09:35:40Z</time>
      </trkpt>
      <trkpt lat="44.3366" lon="2.0195">
        <ele>267.1</ele>
        <time>2017-04-17T09:35:45Z</time>
      </trkpt>
      <trkpt lat="44.3366" lon="2.0194">
        <ele>267.6</ele>
        <time>2017-04-17T09:35:50Z</time>
      </trkpt>
      <trkpt lat="44.3366" lon="2.01928">
        <ele>268.3</ele>
        <time>2017-04-17T09:35:55Z</time>
      </trkpt>
      <trkpt lat="44.33658" lon="2.01917">
        <ele>268.4</ele>
        <time>2017-04-17T09:36:00Z</time>
      </trkpt>
      <trkpt lat="44.33658" lon="2.01903">
        <ele>269.5</ele>
        <time>2017-04-17T09:36:05Z</time>
      </trkpt>
      <trkpt lat="44.33657" lon="2.01888">
        <ele>269.9</ele>
        <time>2017-04-17T09:36:10Z</time>
      </trkpt>
      <trkpt lat="44.33655" lon="2.01873">
        <ele>270.5</ele>
        <time>2017-04-17T09:36:15Z</time>
      </trkpt>
      <trkpt lat="44.33653" lon="2.01863">
        <ele>271</ele>
        <time>2017-04-17T09:36:20Z</time>
      </trkpt>
      <trkpt lat="44.33653" lon="2.01848">
        <ele>271.3</ele>
        <time>2017-04-17T09:36:25Z</time>
      </trkpt>
      <trkpt lat="44.33652" lon="2.01835">
        <ele>271.8</ele>
        <time>2017-04-17T09:36:30Z</time>
      </trkpt>
      <trkpt lat="44.33652" lon="2.01818">
        <ele>272.5</ele>
        <time>2017-04-17T09:36:35Z</time>
      </trkpt>
      <trkpt lat="44.33653" lon="2.01802">
        <ele>272.6</ele>
        <time>2017-04-17T09:36:40Z</time>
      </trkpt>
      <trkpt lat="44.33655" lon="2.01783">
        <ele>273.2</ele>
        <time>2017-04-17T09:36:45Z</time>
      </trkpt>
      <trkpt lat="44.33658" lon="2.01767">
        <ele>273.3</ele>
        <time>2017-04-17T09:36:50Z</time>
      </trkpt>
      <trkpt lat="44.33662" lon="2.0175">
        <ele>273.4</ele>
        <time>2017-04-17T09:36:55Z</time>
      </trkpt>
      <trkpt lat="44.33665" lon="2.01733">
        <ele>273.9</ele>
        <time>2017-04-17T09:37:00Z</time>
      </trkpt>
      <trkpt lat="44.3367" lon="2.01713">
        <ele>274.7</ele>
        <time>2017-04-17T09:37:05Z</time>
      </trkpt>
      <trkpt lat="44.33675" lon="2.01692">
        <ele>273.4</ele>
        <time>2017-04-17T09:37:10Z</time>
      </trkpt>
      <trkpt lat="44.3368" lon="2.01672">
        <ele>273.4</ele>
        <time>2017-04-17T09:37:15Z</time>
      </trkpt>
      <trkpt lat="44.33687" lon="2.0165">
        <ele>273.4</ele>
        <time>2017-04-17T09:37:20Z</time>
      </trkpt>
      <trkpt lat="44.33695" lon="2.0163">
        <ele>272.4</ele>
        <time>2017-04-17T09:37:25Z</time>
      </trkpt>
      <trkpt lat="44.33703" lon="2.01603">
        <ele>272.6</ele>
        <time>2017-04-17T09:37:30Z</time>
      </trkpt>
      <trkpt lat="44.33715" lon="2.01577">
        <ele>273.2</ele>
        <time>2017-04-17T09:37:35Z</time>
      </trkpt>
      <trkpt lat="44.3373" lon="2.01543">
        <ele>272.2</ele>
        <time>2017-04-17T09:37:40Z</time>
      </trkpt>
      <trkpt lat="44.3375" lon="2.01507">
        <ele>268.6</ele>
        <time>2017-04-17T09:37:45Z</time>
      </trkpt>
      <trkpt lat="44.3377" lon="2.0148">
        <ele>266.7</ele>
        <time>2017-04-17T09:37:50Z</time>
      </trkpt>
      <trkpt lat="44.3378" lon="2.01458">
        <ele>263.7</ele>
        <time>2017-04-17T09:37:55Z</time>
      </trkpt>
      <trkpt lat="44.3378" lon="2.0143">
        <ele>259.1</ele>
        <time>2017-04-17T09:38:00Z</time>
      </trkpt>
      <trkpt lat="44.33788" lon="2.014">
        <ele>260.9</ele>
        <time>2017-04-17T09:38:05Z</time>
      </trkpt>
      <trkpt lat="44.33792" lon="2.01373">
        <ele>259.8</ele>
        <time>2017-04-17T09:38:10Z</time>
      </trkpt>
      <trkpt lat="44.33795" lon="2.0135">
        <ele>259.4</ele>
        <time>2017-04-17T09:38:15Z</time>
      </trkpt>
      <trkpt lat="44.33798" lon="2.01323">
        <ele>260.8</ele>
        <time>2017-04-17T09:38:20Z</time>
      </trkpt>
      <trkpt lat="44.33802" lon="2.01297">
        <ele>260.3</ele>
        <time>2017-04-17T09:38:25Z</time>
      </trkpt>
      <trkpt lat="44.33805" lon="2.01273">
        <ele>260.3</ele>
        <time>2017-04-17T09:38:30Z</time>
      </trkpt>
      <trkpt lat="44.33812" lon="2.01255">
        <ele>261.9</ele>
        <time>2017-04-17T09:38:35Z</time>
      </trkpt>
      <trkpt lat="44.3382" lon="2.0124">
        <ele>262.2</ele>
        <time>2017-04-17T09:38:40Z</time>
      </trkpt>
      <trkpt lat="44.33828" lon="2.0123">
        <ele>262.6</ele>
        <time>2017-04-17T09:38:45Z</time>
      </trkpt>
      <trkpt lat="44.33838" lon="2.01222">
        <ele>264</ele>
        <time>2017-04-17T09:38:50Z</time>
      </trkpt>
      <trkpt lat="44.33848" lon="2.01212">
        <ele>264.3</ele>
        <time>2017-04-17T09:38:55Z</time>
      </trkpt>
      <trkpt lat="44.33857" lon="2.01205">
        <ele>265.6</ele>
        <time>2017-04-17T09:39:00Z</time>
      </trkpt>
      <trkpt lat="44.33865" lon="2.01198">
        <ele>266.8</ele>
        <time>2017-04-17T09:39:05Z</time>
      </trkpt>
      <trkpt lat="44.33873" lon="2.01192">
        <ele>268</ele>
        <time>2017-04-17T09:39:10Z</time>
      </trkpt>
      <trkpt lat="44.33882" lon="2.01188">
        <ele>268.5</ele>
        <time>2017-04-17T09:39:15Z</time>
      </trkpt>
      <trkpt lat="44.33888" lon="2.01183">
        <ele>269.6</ele>
        <time>2017-04-17T09:39:20Z</time>
      </trkpt>
      <trkpt lat="44.33897" lon="2.01178">
        <ele>270.2</ele>
        <time>2017-04-17T09:39:25Z</time>
      </trkpt>
      <trkpt lat="44.33903" lon="2.01173">
        <ele>270.9</ele>
        <time>2017-04-17T09:39:30Z</time>
      </trkpt>
      <trkpt lat="44.33912" lon="2.01167">
        <ele>271.4</ele>
        <time>2017-04-17T09:39:35Z</time>
      </trkpt>
      <trkpt lat="44.3392" lon="2.01162">
        <ele>271.7</ele>
        <time>2017-04-17T09:39:40Z</time>
      </trkpt>
      <trkpt lat="44.33928" lon="2.01155">
        <ele>271.6</ele>
        <time>2017-04-17T09:39:45Z</time>
      </trkpt>
      <trkpt lat="44.33937" lon="2.01147">
        <ele>272.4</ele>
        <time>2017-04-17T09:39:50Z</time>
      </trkpt>
      <trkpt lat="44.33945" lon="2.01142">
        <ele>272.9</ele>
        <time>2017-04-17T09:39:55Z</time>
      </trkpt>
      <trkpt lat="44.33952" lon="2.01137">
        <ele>273.7</ele>
        <time>2017-04-17T09:40:00Z</time>
      </trkpt>
      <trkpt lat="44.3396" lon="2.0113">
        <ele>273.7</ele>
        <time>2017-04-17T09:40:05Z</time>
      </trkpt>
      <trkpt lat="44.33967" lon="2.01125">
        <ele>275.3</ele>
        <time>2017-04-17T09:40:10Z</time>
      </trkpt>
      <trkpt lat="44.33975" lon="2.01118">
        <ele>275.9</ele>
        <time>2017-04-17T09:40:15Z</time>
      </trkpt>
      <trkpt lat="44.33985" lon="2.01112">
        <ele>276.5</ele>
        <time>2017-04-17T09:40:20Z</time>
      </trkpt>
      <trkpt lat="44.33993" lon="2.01107">
        <ele>277.3</ele>
        <time>2017-04-17T09:40:25Z</time>
      </trkpt>
      <trkpt lat="44.34" lon="2.011">
        <ele>278.2</ele>
        <time>2017-04-17T09:40:30Z</time>
      </trkpt>
      <trkpt lat="44.34008" lon="2.01097">
        <ele>279</ele>
        <time>2017-04-17T09:40:35Z</time>
      </trkpt>
      <trkpt lat="44.34015" lon="2.01092">
        <ele>280.1</ele>
        <time>2017-04-17T09:40:40Z</time>
      </trkpt>
      <trkpt lat="44.34018" lon="2.01088">
        <ele>281</ele>
        <time>2017-04-17T09:40:45Z</time>
      </trkpt>
      <trkpt lat="44.34022" lon="2.01085">
        <ele>281.1</ele>
        <time>2017-04-17T09:40:50Z</time>
      </trkpt>
      <trkpt lat="44.34027" lon="2.0108">
        <ele>281.8</ele>
        <time>2017-04-17T09:40:55Z</time>
      </trkpt>
      <trkpt lat="44.34033" lon="2.01077">
        <ele>282.2</ele>
        <time>2017-04-17T09:41:00Z</time>
      </trkpt>
      <trkpt lat="44.34038" lon="2.01072">
        <ele>283.4</ele>
        <time>2017-04-17T09:41:05Z</time>
      </trkpt>
      <trkpt lat="44.34045" lon="2.01065">
        <ele>284.1</ele>
        <time>2017-04-17T09:41:10Z</time>
      </trkpt>
      <trkpt lat="44.34053" lon="2.01058">
        <ele>285.2</ele>
        <time>2017-04-17T09:41:15Z</time>
      </trkpt>
      <trkpt lat="44.34058" lon="2.01053">
        <ele>285.8</ele>
        <time>2017-04-17T09:41:20Z</time>
      </trkpt>
      <trkpt lat="44.34067" lon="2.01047">
        <ele>286.6</ele>
        <time>2017-04-17T09:41:25Z</time>
      </trkpt>
      <trkpt lat="44.34073" lon="2.01042">
        <ele>287.4</ele>
        <time>2017-04-17T09:41:30Z</time>
      </trkpt>
      <trkpt lat="44.3408" lon="2.01038">
        <ele>287.8</ele>
        <time>2017-04-17T09:41:35Z</time>
      </trkpt>
      <trkpt lat="44.3409" lon="2.0103">
        <ele>288.8</ele>
        <time>2017-04-17T09:41:40Z</time>
      </trkpt>
      <trkpt lat="44.34097" lon="2.01025">
        <ele>288.8</ele>
        <time>2017-04-17T09:41:45Z</time>
      </trkpt>
      <trkpt lat="44.34103" lon="2.0102">
        <ele>289.5</ele>
        <time>2017-04-17T09:41:50Z</time>
      </trkpt>
      <trkpt lat="44.34107" lon="2.01012">
        <ele>290.1</ele>
        <time>2017-04-17T09:41:55Z</time>
      </trkpt>
      <trkpt lat="44.3411" lon="2.01003">
        <ele>290.8</ele>
        <time>2017-04-17T09:42:00Z</time>
      </trkpt>
      <trkpt lat="44.34115" lon="2.00997">
        <ele>291.7</ele>
        <time>2017-04-17T09:42:05Z</time>
      </trkpt>
      <trkpt lat="44.34122" lon="2.00992">
        <ele>292.8</ele>
        <time>2017-04-17T09:42:10Z</time>
      </trkpt>
      <trkpt lat="44.34128" lon="2.00987">
        <ele>292.7</ele>
        <time>2017-04-17T09:42:15Z</time>
      </trkpt>
      <trkpt lat="44.34135" lon="2.00982">
        <ele>293.6</ele>
        <time>2017-04-17T09:42:20Z</time>
      </trkpt>
      <trkpt lat="44.34143" lon="2.00977">
        <ele>294.4</ele>
        <time>2017-04-17T09:42:25Z</time>
      </trkpt>
      <trkpt lat="44.3415" lon="2.00973">
        <ele>295.1</ele>
        <time>2017-04-17T09:42:30Z</time>
      </trkpt>
      <trkpt lat="44.34157" lon="2.0097">
        <ele>295.3</ele>
        <time>2017-04-17T09:42:35Z</time>
      </trkpt>
      <trkpt lat="44.34163" lon="2.00967">
        <ele>296.7</ele>
        <time>2017-04-17T09:42:40Z</time>
      </trkpt>
      <trkpt lat="44.3417" lon="2.00962">
        <ele>296.9</ele>
        <time>2017-04-17T09:42:45Z</time>
      </trkpt>
      <trkpt lat="44.34177" lon="2.00958">
        <ele>297.7</ele>
        <time>2017-04-17T09:42:50Z</time>
      </trkpt>
      <trkpt lat="44.34183" lon="2.00953">
        <ele>297.8</ele>
        <time>2017-04-17T09:42:55Z</time>
      </trkpt>
      <trkpt lat="44.3419" lon="2.0095">
        <ele>298.1</ele>
        <time>2017-04-17T09:43:00Z</time>
      </trkpt>
      <trkpt lat="44.34195" lon="2.00947">
        <ele>299.6</ele>
        <time>2017-04-17T09:43:05Z</time>
      </trkpt>
      <trkpt lat="44.342" lon="2.00942">
        <ele>299.7</ele>
        <time>2017-04-17T09:43:10Z</time>
      </trkpt>
      <trkpt lat="44.34207" lon="2.00937">
        <ele>301</ele>
        <time>2017-04-17T09:43:15Z</time>
      </trkpt>
      <trkpt lat="44.34212" lon="2.0093">
        <ele>301.3</ele>
        <time>2017-04-17T09:43:20Z</time>
      </trkpt>
      <trkpt lat="44.34217" lon="2.00925">
        <ele>302.4</ele>
        <time>2017-04-17T09:43:25Z</time>
      </trkpt>
      <trkpt lat="44.34222" lon="2.0092">
        <ele>302.7</ele>
        <time>2017-04-17T09:43:30Z</time>
      </trkpt>
      <trkpt lat="44.34227" lon="2.00915">
        <ele>303.3</ele>
        <time>2017-04-17T09:43:35Z</time>
      </trkpt>
      <trkpt lat="44.34232" lon="2.0091">
        <ele>304.6</ele>
        <time>2017-04-17T09:43:40Z</time>
      </trkpt>
      <trkpt lat="44.34237" lon="2.00903">
        <ele>305.5</ele>
        <time>2017-04-17T09:43:45Z</time>
      </trkpt>
      <trkpt lat="44.34242" lon="2.00897">
        <ele>305.8</ele>
        <time>2017-04-17T09:43:50Z</time>
      </trkpt>
      <trkpt lat="44.34248" lon="2.0089">
        <ele>305.8</ele>
        <time>2017-04-17T09:43:55Z</time>
      </trkpt>
      <trkpt lat="44.34252" lon="2.0088">
        <ele>306.9</ele>
        <time>2017-04-17T09:44:00Z</time>
      </trkpt>
      <trkpt lat="44.34253" lon="2.0087">
        <ele>307.3</ele>
        <time>2017-04-17T09:44:05Z</time>
      </trkpt>
      <trkpt lat="44.3425" lon="2.00863">
        <ele>308.9</ele>
        <time>2017-04-17T09:44:10Z</time>
      </trkpt>
      <trkpt lat="44.3425" lon="2.00855">
        <ele>309.6</ele>
        <time>2017-04-17T09:44:15Z</time>
      </trkpt>
      <trkpt lat="44.34247" lon="2.00847">
        <ele>310.5</ele>
        <time>2017-04-17T09:44:20Z</time>
      </trkpt>
      <trkpt lat="44.34243" lon="2.0084">
        <ele>311.7</ele>
        <time>2017-04-17T09:44:25Z</time>
      </trkpt>
      <trkpt lat="44.3424" lon="2.00832">
        <ele>311.9</ele>
        <time>2017-04-17T09:44:30Z</time>
      </trkpt>
      <trkpt lat="44.34238" lon="2.00823">
        <ele>312.7</ele>
        <time>2017-04-17T09:44:35Z</time>
      </trkpt>
      <trkpt lat="44.34235" lon="2.00815">
        <ele>314.3</ele>
        <time>2017-04-17T09:44:40Z</time>
      </trkpt>
      <trkpt lat="44.34235" lon="2.00812">
        <ele>315</ele>
        <time>2017-04-17T09:44:45Z</time>
      </trkpt>
      <trkpt lat="44.34235" lon="2.00812">
        <ele>315.4</ele>
        <time>2017-04-17T09:45:00Z</time>
      </trkpt>
      <trkpt lat="44.34233" lon="2.00807">
        <ele>316.5</ele>
        <time>2017-04-17T09:45:05Z</time>
      </trkpt>
      <trkpt lat="44.34232" lon="2.008">
        <ele>316.9</ele>
        <time>2017-04-17T09:45:10Z</time>
      </trkpt>
      <trkpt lat="44.3423" lon="2.00793">
        <ele>317.9</ele>
        <time>2017-04-17T09:45:15Z</time>
      </trkpt>
      <trkpt lat="44.34228" lon="2.00785">
        <ele>319.1</ele>
        <time>2017-04-17T09:45:20Z</time>
      </trkpt>
      <trkpt lat="44.34228" lon="2.00777">
        <ele>319.9</ele>
        <time>2017-04-17T09:45:25Z</time>
      </trkpt>
      <trkpt lat="44.34228" lon="2.00775">
        <ele>320.1</ele>
        <time>2017-04-17T09:45:30Z</time>
      </trkpt>
      <trkpt lat="44.34228" lon="2.00773">
        <ele>320.6</ele>
        <time>2017-04-17T09:46:10Z</time>
      </trkpt>
      <trkpt lat="44.34228" lon="2.00763">
        <ele>321</ele>
        <time>2017-04-17T09:46:15Z</time>
      </trkpt>
      <trkpt lat="44.3423" lon="2.00757">
        <ele>322.3</ele>
        <time>2017-04-17T09:46:20Z</time>
      </trkpt>
      <trkpt lat="44.34232" lon="2.0075">
        <ele>323.4</ele>
        <time>2017-04-17T09:46:25Z</time>
      </trkpt>
      <trkpt lat="44.34235" lon="2.00742">
        <ele>324.7</ele>
        <time>2017-04-17T09:46:30Z</time>
      </trkpt>
      <trkpt lat="44.34238" lon="2.00735">
        <ele>324.4</ele>
        <time>2017-04-17T09:46:35Z</time>
      </trkpt>
      <trkpt lat="44.34243" lon="2.0073">
        <ele>325.8</ele>
        <time>2017-04-17T09:46:40Z</time>
      </trkpt>
      <trkpt lat="44.34245" lon="2.00728">
        <ele>325.1</ele>
        <time>2017-04-17T09:46:45Z</time>
      </trkpt>
      <trkpt lat="44.34247" lon="2.00728">
        <ele>325.7</ele>
        <time>2017-04-17T09:46:50Z</time>
      </trkpt>
      <trkpt lat="44.34252" lon="2.00723">
        <ele>326.3</ele>
        <time>2017-04-17T09:46:55Z</time>
      </trkpt>
      <trkpt lat="44.34257" lon="2.00718">
        <ele>326.6</ele>
        <time>2017-04-17T09:47:00Z</time>
      </trkpt>
      <trkpt lat="44.34262" lon="2.00715">
        <ele>326.6</ele>
        <time>2017-04-17T09:47:05Z</time>
      </trkpt>
      <trkpt lat="44.34268" lon="2.0071">
        <ele>327.2</ele>
        <time>2017-04-17T09:47:10Z</time>
      </trkpt>
      <trkpt lat="44.34277" lon="2.00705">
        <ele>327.4</ele>
        <time>2017-04-17T09:47:15Z</time>
      </trkpt>
      <trkpt lat="44.34285" lon="2.007">
        <ele>328.2</ele>
        <time>2017-04-17T09:47:20Z</time>
      </trkpt>
      <trkpt lat="44.34293" lon="2.00695">
        <ele>329</ele>
        <time>2017-04-17T09:47:25Z</time>
      </trkpt>
      <trkpt lat="44.34302" lon="2.0069">
        <ele>328.9</ele>
        <time>2017-04-17T09:47:30Z</time>
      </trkpt>
      <trkpt lat="44.34308" lon="2.00683">
        <ele>329.3</ele>
        <time>2017-04-17T09:47:35Z</time>
      </trkpt>
      <trkpt lat="44.34315" lon="2.00678">
        <ele>330.4</ele>
        <time>2017-04-17T09:47:40Z</time>
      </trkpt>
      <trkpt lat="44.34317" lon="2.00668">
        <ele>330.8</ele>
        <time>2017-04-17T09:47:45Z</time>
      </trkpt>
      <trkpt lat="44.34317" lon="2.00658">
        <ele>331.8</ele>
        <time>2017-04-17T09:47:50Z</time>
      </trkpt>
      <trkpt lat="44.34318" lon="2.00647">
        <ele>332.9</ele>
        <time>2017-04-17T09:47:55Z</time>
      </trkpt>
      <trkpt lat="44.34317" lon="2.00633">
        <ele>334</ele>
        <time>2017-04-17T09:48:00Z</time>
      </trkpt>
      <trkpt lat="44.34313" lon="2.00623">
        <ele>335.7</ele>
        <time>2017-04-17T09:48:05Z</time>
      </trkpt>
      <trkpt lat="44.34317" lon="2.00613">
        <ele>336</ele>
        <time>2017-04-17T09:48:10Z</time>
      </trkpt>
      <trkpt lat="44.34322" lon="2.00605">
        <ele>337.4</ele>
        <time>2017-04-17T09:48:15Z</time>
      </trkpt>
      <trkpt lat="44.34328" lon="2.00597">
        <ele>338.2</ele>
        <time>2017-04-17T09:48:20Z</time>
      </trkpt>
      <trkpt lat="44.34333" lon="2.0059">
        <ele>338.5</ele>
        <time>2017-04-17T09:48:25Z</time>
      </trkpt>
      <trkpt lat="44.34342" lon="2.00583">
        <ele>338.7</ele>
        <time>2017-04-17T09:48:30Z</time>
      </trkpt>
      <trkpt lat="44.34348" lon="2.00577">
        <ele>339.7</ele>
        <time>2017-04-17T09:48:35Z</time>
      </trkpt>
      <trkpt lat="44.34357" lon="2.00568">
        <ele>340</ele>
        <time>2017-04-17T09:48:40Z</time>
      </trkpt>
      <trkpt lat="44.34363" lon="2.00562">
        <ele>341.2</ele>
        <time>2017-04-17T09:48:45Z</time>
      </trkpt>
      <trkpt lat="44.34372" lon="2.00555">
        <ele>342</ele>
        <time>2017-04-17T09:48:50Z</time>
      </trkpt>
      <trkpt lat="44.3438" lon="2.00548">
        <ele>342.3</ele>
        <time>2017-04-17T09:48:55Z</time>
      </trkpt>
      <trkpt lat="44.3439" lon="2.00543">
        <ele>342.6</ele>
        <time>2017-04-17T09:49:00Z</time>
      </trkpt>
      <trkpt lat="44.344" lon="2.00537">
        <ele>343.1</ele>
        <time>2017-04-17T09:49:05Z</time>
      </trkpt>
      <trkpt lat="44.34412" lon="2.00532">
        <ele>343.5</ele>
        <time>2017-04-17T09:49:10Z</time>
      </trkpt>
      <trkpt lat="44.34425" lon="2.00527">
        <ele>343.3</ele>
        <time>2017-04-17T09:49:15Z</time>
      </trkpt>
      <trkpt lat="44.34437" lon="2.0052">
        <ele>344.1</ele>
        <time>2017-04-17T09:49:20Z</time>
      </trkpt>
      <trkpt lat="44.34448" lon="2.00513">
        <ele>344.3</ele>
        <time>2017-04-17T09:49:25Z</time>
      </trkpt>
      <trkpt lat="44.34462" lon="2.00508">
        <ele>344.6</ele>
        <time>2017-04-17T09:49:30Z</time>
      </trkpt>
      <trkpt lat="44.34473" lon="2.005">
        <ele>344.6</ele>
        <time>2017-04-17T09:49:35Z</time>
      </trkpt>
      <trkpt lat="44.34485" lon="2.00495">
        <ele>345.8</ele>
        <time>2017-04-17T09:49:40Z</time>
      </trkpt>
      <trkpt lat="44.34498" lon="2.00492">
        <ele>346.1</ele>
        <time>2017-04-17T09:49:45Z</time>
      </trkpt>
      <trkpt lat="44.34513" lon="2.00498">
        <ele>346.1</ele>
        <time>2017-04-17T09:49:50Z</time>
      </trkpt>
      <trkpt lat="44.34528" lon="2.00505">
        <ele>345.8</ele>
        <time>2017-04-17T09:49:55Z</time>
      </trkpt>
      <trkpt lat="44.34542" lon="2.00518">
        <ele>346.3</ele>
        <time>2017-04-17T09:50:00Z</time>
      </trkpt>
      <trkpt lat="44.34553" lon="2.00532">
        <ele>345.7</ele>
        <time>2017-04-17T09:50:05Z</time>
      </trkpt>
      <trkpt lat="44.34567" lon="2.00547">
        <ele>346.3</ele>
        <time>2017-04-17T09:50:10Z</time>
      </trkpt>
      <trkpt lat="44.3458" lon="2.00562">
        <ele>346.6</ele>
        <time>2017-04-17T09:50:15Z</time>
      </trkpt>
      <trkpt lat="44.34595" lon="2.0057">
        <ele>346.9</ele>
        <time>2017-04-17T09:50:20Z</time>
      </trkpt>
      <trkpt lat="44.34612" lon="2.00565">
        <ele>347.9</ele>
        <time>2017-04-17T09:50:25Z</time>
      </trkpt>
      <trkpt lat="44.34627" lon="2.00557">
        <ele>348.1</ele>
        <time>2017-04-17T09:50:30Z</time>
      </trkpt>
      <trkpt lat="44.34642" lon="2.00548">
        <ele>349.1</ele>
        <time>2017-04-17T09:50:35Z</time>
      </trkpt>
      <trkpt lat="44.34658" lon="2.00538">
        <ele>349.6</ele>
        <time>2017-04-17T09:50:40Z</time>
      </trkpt>
      <trkpt lat="44.34675" lon="2.00525">
        <ele>349.6</ele>
        <time>2017-04-17T09:50:45Z</time>
      </trkpt>
      <trkpt lat="44.34688" lon="2.00505">
        <ele>349.6</ele>
        <time>2017-04-17T09:50:50Z</time>
      </trkpt>
      <trkpt lat="44.34697" lon="2.0048">
        <ele>350.2</ele>
        <time>2017-04-17T09:50:55Z</time>
      </trkpt>
      <trkpt lat="44.34705" lon="2.00452">
        <ele>349.8</ele>
        <time>2017-04-17T09:51:00Z</time>
      </trkpt>
      <trkpt lat="44.34715" lon="2.00427">
        <ele>349.4</ele>
        <time>2017-04-17T09:51:05Z</time>
      </trkpt>
      <trkpt lat="44.34733" lon="2.0041">
        <ele>348.1</ele>
        <time>2017-04-17T09:51:10Z</time>
      </trkpt>
      <trkpt lat="44.34755" lon="2.00398">
        <ele>347.2</ele>
        <time>2017-04-17T09:51:15Z</time>
      </trkpt>
      <trkpt lat="44.3478" lon="2.00387">
        <ele>348.2</ele>
        <time>2017-04-17T09:51:20Z</time>
      </trkpt>
      <trkpt lat="44.34812" lon="2.0037">
        <ele>346.5</ele>
        <time>2017-04-17T09:51:25Z</time>
      </trkpt>
      <trkpt lat="44.34848" lon="2.00355">
        <ele>341.7</ele>
        <time>2017-04-17T09:51:30Z</time>
      </trkpt>
      <trkpt lat="44.34893" lon="2.00338">
        <ele>340.1</ele>
        <time>2017-04-17T09:51:35Z</time>
      </trkpt>
      <trkpt lat="44.3494" lon="2.00323">
        <ele>340.1</ele>
        <time>2017-04-17T09:51:40Z</time>
      </trkpt>
      <trkpt lat="44.34978" lon="2.0031">
        <ele>339.7</ele>
        <time>2017-04-17T09:51:45Z</time>
      </trkpt>
      <trkpt lat="44.35017" lon="2.00295">
        <ele>337.5</ele>
        <time>2017-04-17T09:51:50Z</time>
      </trkpt>
      <trkpt lat="44.3505" lon="2.00282">
        <ele>337.2</ele>
        <time>2017-04-17T09:51:55Z</time>
      </trkpt>
      <trkpt lat="44.3508" lon="2.00272">
        <ele>336.1</ele>
        <time>2017-04-17T09:52:00Z</time>
      </trkpt>
      <trkpt lat="44.35113" lon="2.0026">
        <ele>337.3</ele>
        <time>2017-04-17T09:52:05Z</time>
      </trkpt>
      <trkpt lat="44.35155" lon="2.00247">
        <ele>333.8</ele>
        <time>2017-04-17T09:52:10Z</time>
      </trkpt>
      <trkpt lat="44.35198" lon="2.00218">
        <ele>332.3</ele>
        <time>2017-04-17T09:52:15Z</time>
      </trkpt>
      <trkpt lat="44.35237" lon="2.00192">
        <ele>330.3</ele>
        <time>2017-04-17T09:52:20Z</time>
      </trkpt>
      <trkpt lat="44.35273" lon="2.00168">
        <ele>330.2</ele>
        <time>2017-04-17T09:52:25Z</time>
      </trkpt>
      <trkpt lat="44.35303" lon="2.00157">
        <ele>329.8</ele>
        <time>2017-04-17T09:52:30Z</time>
      </trkpt>
      <trkpt lat="44.35333" lon="2.0015">
        <ele>329.9</ele>
        <time>2017-04-17T09:52:35Z</time>
      </trkpt>
      <trkpt lat="44.35362" lon="2.00143">
        <ele>330.4</ele>
        <time>2017-04-17T09:52:40Z</time>
      </trkpt>
      <trkpt lat="44.35385" lon="2.0014">
        <ele>330.4</ele>
        <time>2017-04-17T09:52:45Z</time>
      </trkpt>
      <trkpt lat="44.35408" lon="2.00135">
        <ele>330.4</ele>
        <time>2017-04-17T09:52:50Z</time>
      </trkpt>
      <trkpt lat="44.35432" lon="2.00128">
        <ele>330.7</ele>
        <time>2017-04-17T09:52:55Z</time>
      </trkpt>
      <trkpt lat="44.35452" lon="2.00112">
        <ele>331.6</ele>
        <time>2017-04-17T09:53:00Z</time>
      </trkpt>
      <trkpt lat="44.35468" lon="2.0009">
        <ele>331.4</ele>
        <time>2017-04-17T09:53:05Z</time>
      </trkpt>
      <trkpt lat="44.35483" lon="2.00067">
        <ele>331.8</ele>
        <time>2017-04-17T09:53:10Z</time>
      </trkpt>
      <trkpt lat="44.35498" lon="2.00042">
        <ele>331.8</ele>
        <time>2017-04-17T09:53:15Z</time>
      </trkpt>
      <trkpt lat="44.35512" lon="2.00017">
        <ele>331</ele>
        <time>2017-04-17T09:53:20Z</time>
      </trkpt>
      <trkpt lat="44.35522" lon="1.99987">
        <ele>331.2</ele>
        <time>2017-04-17T09:53:25Z</time>
      </trkpt>
      <trkpt lat="44.35528" lon="1.9996">
        <ele>330.9</ele>
        <time>2017-04-17T09:53:30Z</time>
      </trkpt>
      <trkpt lat="44.35535" lon="1.99938">
        <ele>331</ele>
        <time>2017-04-17T09:53:35Z</time>
      </trkpt>
      <trkpt lat="44.35542" lon="1.9992">
        <ele>332.1</ele>
        <time>2017-04-17T09:53:40Z</time>
      </trkpt>
      <trkpt lat="44.35543" lon="1.99902">
        <ele>332.5</ele>
        <time>2017-04-17T09:53:45Z</time>
      </trkpt>
      <trkpt lat="44.35545" lon="1.99887">
        <ele>332.4</ele>
        <time>2017-04-17T09:53:50Z</time>
      </trkpt>
      <trkpt lat="44.35547" lon="1.99873">
        <ele>333.7</ele>
        <time>2017-04-17T09:53:55Z</time>
      </trkpt>
      <trkpt lat="44.35552" lon="1.9986">
        <ele>334.7</ele>
        <time>2017-04-17T09:54:00Z</time>
      </trkpt>
      <trkpt lat="44.35555" lon="1.99847">
        <ele>335</ele>
        <time>2017-04-17T09:54:05Z</time>
      </trkpt>
      <trkpt lat="44.3556" lon="1.99828">
        <ele>335.4</ele>
        <time>2017-04-17T09:54:10Z</time>
      </trkpt>
      <trkpt lat="44.35565" lon="1.99808">
        <ele>335.4</ele>
        <time>2017-04-17T09:54:15Z</time>
      </trkpt>
      <trkpt lat="44.3557" lon="1.9979">
        <ele>336.1</ele>
        <time>2017-04-17T09:54:20Z</time>
      </trkpt>
      <trkpt lat="44.35575" lon="1.99768">
        <ele>336.1</ele>
        <time>2017-04-17T09:54:25Z</time>
      </trkpt>
      <trkpt lat="44.35577" lon="1.99748">
        <ele>337.2</ele>
        <time>2017-04-17T09:54:30Z</time>
      </trkpt>
      <trkpt lat="44.35577" lon="1.99728">
        <ele>338.1</ele>
        <time>2017-04-17T09:54:35Z</time>
      </trkpt>
      <trkpt lat="44.35583" lon="1.9971">
        <ele>339</ele>
        <time>2017-04-17T09:54:40Z</time>
      </trkpt>
      <trkpt lat="44.35592" lon="1.99695">
        <ele>339.4</ele>
        <time>2017-04-17T09:54:45Z</time>
      </trkpt>
      <trkpt lat="44.35605" lon="1.99688">
        <ele>339.6</ele>
        <time>2017-04-17T09:54:50Z</time>
      </trkpt>
      <trkpt lat="44.35618" lon="1.99697">
        <ele>340</ele>
        <time>2017-04-17T09:54:55Z</time>
      </trkpt>
      <trkpt lat="44.35635" lon="1.99712">
        <ele>340.4</ele>
        <time>2017-04-17T09:55:00Z</time>
      </trkpt>
      <trkpt lat="44.35653" lon="1.99733">
        <ele>338.4</ele>
        <time>2017-04-17T09:55:05Z</time>
      </trkpt>
      <trkpt lat="44.35687" lon="1.99752">
        <ele>337.8</ele>
        <time>2017-04-17T09:55:10Z</time>
      </trkpt>
      <trkpt lat="44.3573" lon="1.99762">
        <ele>336.8</ele>
        <time>2017-04-17T09:55:15Z</time>
      </trkpt>
      <trkpt lat="44.3577" lon="1.99773">
        <ele>334.3</ele>
        <time>2017-04-17T09:55:20Z</time>
      </trkpt>
      <trkpt lat="44.358" lon="1.99785">
        <ele>334.2</ele>
        <time>2017-04-17T09:55:25Z</time>
      </trkpt>
      <trkpt lat="44.35823" lon="1.99793">
        <ele>333.8</ele>
        <time>2017-04-17T09:55:30Z</time>
      </trkpt>
      <trkpt lat="44.3585" lon="1.99805">
        <ele>333.9</ele>
        <time>2017-04-17T09:55:35Z</time>
      </trkpt>
      <trkpt lat="44.35877" lon="1.99813">
        <ele>333.9</ele>
        <time>2017-04-17T09:55:40Z</time>
      </trkpt>
      <trkpt lat="44.359" lon="1.9981">
        <ele>334.1</ele>
        <time>2017-04-17T09:55:45Z</time>
      </trkpt>
      <trkpt lat="44.35915" lon="1.9979">
        <ele>334.6</ele>
        <time>2017-04-17T09:55:50Z</time>
      </trkpt>
      <trkpt lat="44.35922" lon="1.99763">
        <ele>333.7</ele>
        <time>2017-04-17T09:55:55Z</time>
      </trkpt>
      <trkpt lat="44.35935" lon="1.99743">
        <ele>334.3</ele>
        <time>2017-04-17T09:56:00Z</time>
      </trkpt>
      <trkpt lat="44.35948" lon="1.9974">
        <ele>334.6</ele>
        <time>2017-04-17T09:56:05Z</time>
      </trkpt>
      <trkpt lat="44.35958" lon="1.9974">
        <ele>333.9</ele>
        <time>2017-04-17T09:56:10Z</time>
      </trkpt>
      <trkpt lat="44.35958" lon="1.99738">
        <ele>333.8</ele>
        <time>2017-04-17T09:56:15Z</time>
      </trkpt>
      <trkpt lat="44.3596" lon="1.99742">
        <ele>333.4</ele>
        <time>2017-04-17T09:57:15Z</time>
      </trkpt>
      <trkpt lat="44.35957" lon="1.99748">
        <ele>332.8</ele>
        <time>2017-04-17T09:57:20Z</time>
      </trkpt>
      <trkpt lat="44.35955" lon="1.99753">
        <ele>332.8</ele>
        <time>2017-04-17T09:57:25Z</time>
      </trkpt>
      <trkpt lat="44.35952" lon="1.99758">
        <ele>332.7</ele>
        <time>2017-04-17T09:57:30Z</time>
      </trkpt>
      <trkpt lat="44.35952" lon="1.9976">
        <ele>333</ele>
        <time>2017-04-17T09:57:35Z</time>
      </trkpt>
      <trkpt lat="44.35965" lon="1.99737">
        <ele>334.3</ele>
        <time>2017-04-17T10:02:05Z</time>
      </trkpt>
      <trkpt lat="44.35968" lon="1.99722">
        <ele>334.1</ele>
        <time>2017-04-17T10:02:10Z</time>
      </trkpt>
      <trkpt lat="44.35963" lon="1.99712">
        <ele>334.1</ele>
        <time>2017-04-17T10:02:15Z</time>
      </trkpt>
      <trkpt lat="44.35952" lon="1.99725">
        <ele>333.8</ele>
        <time>2017-04-17T10:02:20Z</time>
      </trkpt>
      <trkpt lat="44.35932" lon="1.99735">
        <ele>334.4</ele>
        <time>2017-04-17T10:02:25Z</time>
      </trkpt>
      <trkpt lat="44.35918" lon="1.9976">
        <ele>334.5</ele>
        <time>2017-04-17T10:02:30Z</time>
      </trkpt>
      <trkpt lat="44.35918" lon="1.99788">
        <ele>334</ele>
        <time>2017-04-17T10:02:35Z</time>
      </trkpt>
      <trkpt lat="44.35928" lon="1.99815">
        <ele>334.1</ele>
        <time>2017-04-17T10:02:40Z</time>
      </trkpt>
      <trkpt lat="44.35932" lon="1.99842">
        <ele>334.4</ele>
        <time>2017-04-17T10:02:45Z</time>
      </trkpt>
      <trkpt lat="44.35933" lon="1.99872">
        <ele>336.1</ele>
        <time>2017-04-17T10:02:50Z</time>
      </trkpt>
      <trkpt lat="44.35937" lon="1.99902">
        <ele>335.6</ele>
        <time>2017-04-17T10:02:55Z</time>
      </trkpt>
      <trkpt lat="44.35937" lon="1.99938">
        <ele>335.3</ele>
        <time>2017-04-17T10:03:00Z</time>
      </trkpt>
      <trkpt lat="44.35942" lon="1.99987">
        <ele>333.7</ele>
        <time>2017-04-17T10:03:05Z</time>
      </trkpt>
      <trkpt lat="44.35947" lon="2.00048">
        <ele>333</ele>
        <time>2017-04-17T10:03:10Z</time>
      </trkpt>
      <trkpt lat="44.35953" lon="2.00118">
        <ele>327.5</ele>
        <time>2017-04-17T10:03:15Z</time>
      </trkpt>
      <trkpt lat="44.3595" lon="2.00182">
        <ele>326.5</ele>
        <time>2017-04-17T10:03:20Z</time>
      </trkpt>
      <trkpt lat="44.35933" lon="2.0023">
        <ele>325</ele>
        <time>2017-04-17T10:03:25Z</time>
      </trkpt>
      <trkpt lat="44.35907" lon="2.00273">
        <ele>324.6</ele>
        <time>2017-04-17T10:03:30Z</time>
      </trkpt>
      <trkpt lat="44.35877" lon="2.00312">
        <ele>323.9</ele>
        <time>2017-04-17T10:03:35Z</time>
      </trkpt>
      <trkpt lat="44.35848" lon="2.00353">
        <ele>321.7</ele>
        <time>2017-04-17T10:03:40Z</time>
      </trkpt>
      <trkpt lat="44.35825" lon="2.00402">
        <ele>321.7</ele>
        <time>2017-04-17T10:03:45Z</time>
      </trkpt>
      <trkpt lat="44.358" lon="2.00455">
        <ele>316.3</ele>
        <time>2017-04-17T10:03:50Z</time>
      </trkpt>
      <trkpt lat="44.35775" lon="2.00513">
        <ele>316</ele>
        <time>2017-04-17T10:03:55Z</time>
      </trkpt>
      <trkpt lat="44.35752" lon="2.0055">
        <ele>313.7</ele>
        <time>2017-04-17T10:04:00Z</time>
      </trkpt>
      <trkpt lat="44.3574" lon="2.00568">
        <ele>312.2</ele>
        <time>2017-04-17T10:04:05Z</time>
      </trkpt>
      <trkpt lat="44.35727" lon="2.00587">
        <ele>313.6</ele>
        <time>2017-04-17T10:04:10Z</time>
      </trkpt>
      <trkpt lat="44.35715" lon="2.00608">
        <ele>314.8</ele>
        <time>2017-04-17T10:04:15Z</time>
      </trkpt>
      <trkpt lat="44.35703" lon="2.00632">
        <ele>315.6</ele>
        <time>2017-04-17T10:04:20Z</time>
      </trkpt>
      <trkpt lat="44.35693" lon="2.00653">
        <ele>316.8</ele>
        <time>2017-04-17T10:04:25Z</time>
      </trkpt>
      <trkpt lat="44.35685" lon="2.00677">
        <ele>318.3</ele>
        <time>2017-04-17T10:04:30Z</time>
      </trkpt>
      <trkpt lat="44.35677" lon="2.00702">
        <ele>319.1</ele>
        <time>2017-04-17T10:04:35Z</time>
      </trkpt>
      <trkpt lat="44.35668" lon="2.00725">
        <ele>319.4</ele>
        <time>2017-04-17T10:04:40Z</time>
      </trkpt>
      <trkpt lat="44.3566" lon="2.00753">
        <ele>320.8</ele>
        <time>2017-04-17T10:04:45Z</time>
      </trkpt>
      <trkpt lat="44.35653" lon="2.00782">
        <ele>319.1</ele>
        <time>2017-04-17T10:04:50Z</time>
      </trkpt>
      <trkpt lat="44.35643" lon="2.00813">
        <ele>320.6</ele>
        <time>2017-04-17T10:04:55Z</time>
      </trkpt>
      <trkpt lat="44.35633" lon="2.00842">
        <ele>319.7</ele>
        <time>2017-04-17T10:05:00Z</time>
      </trkpt>
      <trkpt lat="44.35623" lon="2.0087">
        <ele>319.6</ele>
        <time>2017-04-17T10:05:05Z</time>
      </trkpt>
      <trkpt lat="44.35613" lon="2.00903">
        <ele>320.5</ele>
        <time>2017-04-17T10:05:10Z</time>
      </trkpt>
      <trkpt lat="44.35605" lon="2.00935">
        <ele>320.9</ele>
        <time>2017-04-17T10:05:15Z</time>
      </trkpt>
      <trkpt lat="44.35597" lon="2.00968">
        <ele>320.7</ele>
        <time>2017-04-17T10:05:20Z</time>
      </trkpt>
      <trkpt lat="44.35587" lon="2.01">
        <ele>321.8</ele>
        <time>2017-04-17T10:05:25Z</time>
      </trkpt>
      <trkpt lat="44.35577" lon="2.01032">
        <ele>322.4</ele>
        <time>2017-04-17T10:05:30Z</time>
      </trkpt>
      <trkpt lat="44.35565" lon="2.01062">
        <ele>321.8</ele>
        <time>2017-04-17T10:05:35Z</time>
      </trkpt>
      <trkpt lat="44.35555" lon="2.01095">
        <ele>321.4</ele>
        <time>2017-04-17T10:05:40Z</time>
      </trkpt>
      <trkpt lat="44.35543" lon="2.0113">
        <ele>321.3</ele>
        <time>2017-04-17T10:05:45Z</time>
      </trkpt>
      <trkpt lat="44.35532" lon="2.01163">
        <ele>320.1</ele>
        <time>2017-04-17T10:05:50Z</time>
      </trkpt>
      <trkpt lat="44.35533" lon="2.01192">
        <ele>318.2</ele>
        <time>2017-04-17T10:05:55Z</time>
      </trkpt>
      <trkpt lat="44.35528" lon="2.01212">
        <ele>318.9</ele>
        <time>2017-04-17T10:06:00Z</time>
      </trkpt>
      <trkpt lat="44.3553" lon="2.01213">
        <ele>317.7</ele>
        <time>2017-04-17T10:06:05Z</time>
      </trkpt>
    </trkseg>
  </trk>
  <rte>
      <rtept lat="44.35535" lon="2.01178">
        <ele>322.8</ele>
      </rtept>
      <rtept lat="44.3553" lon="2.01213">
        <ele>322.2</ele>
      </rtept>
    </rte>
</gpx>